[[{"header":{"parameterUnit":"m.s-1","parameterCategory":1,"la1":30.6,"la2":29.2853,"lo1":-89.7004,"lo2":-87.6739,"dy":0.0162,"dx":0.0183,"nx":112,"ny":82,"refTime":"2024-05-01T00:00:00:Z","depth":0,"parameterNumber":2,"parameterNumberName":"U-component_of_WINDS"},"data":[0.0,0.0,0.0,0.0,0.0,0.0,0.0,0.0,0.0,0.0,0.0,0.0,0.0,0.0,0.0,0.0,0.0,0.0,0.0,0.0,0.0,0.0,0.0,0.0,0.0,0.0,0.0,0.0,0.0,0.0,0.0,0.0,0.0,0.0,0.0,0.0,0.0,0.0,0.0,0.0,0.0,0.0,0.0,0.0,0.0,0.0,0.0,0.0,0.0,0.0,0.0,0.0,0.0,0.0,0.0,0.0,0.0,0.0,0.0,0.0,0.0,0.0,0.0,0.0,0.0,0.0,0.0,0.0,0.0,0.0,0.0,0.0,0.0,0.0,0.0,0.0,0.0,0.0,0.0,0.0,0.0,0.0,0.0,0.0,0.0,0.0,0.0,0.0,0.0,0.0,-2.758,-3.0335,-3.3476,-3.4283,-3.1477,-3.012,-2.8185,-2.5261,0.0,0.0,0.0,0.0,0.0,0.0,0.0,0.0,0.0,0.0,0.0,0.0,0.0,0.0,0.0,0.0,0.0,0.0,0.0,0.0,0.0,0.0,0.0,0.0,0.0,0.0,0.0,0.0,0.0,0.0,0.0,0.0,0.0,0.0,0.0,0.0,0.0,0.0,0.0,0.0,0.0,0.0,0.0,0.0,0.0,0.0,0.0,0.0,0.0,0.0,0.0,0.0,0.0,0.0,0.0,0.0,0.0,0.0,0.0,0.0,0.0,0.0,0.0,0.0,0.0,0.0,0.0,0.0,0.0,0.0,0.0,0.0,0.0,0.0,0.0,0.0,0.0,0.0,0.0,0.0,0.0,0.0,0.0,0.0,0.0,0.0,0.0,0.0,0.0,0.0,0.0,0.0,0.0,0.0,0.0,0.0,0.0,0.0,0.0,0.0,0.0,0.0,0.0,0.0,-2.7188,-3.0871,-3.3187,-3.3553,-3.116,-2.9534,-2.7629,-2.5268,0.0,0.0,0.0,0.0,0.0,0.0,0.0,0.0,0.0,0.0,0.0,0.0,0.0,0.0,0.0,0.0,0.0,0.0,0.0,0.0,0.0,0.0,0.0,0.0,0.0,0.0,0.0,0.0,0.0,0.0,0.0,0.0,0.0,0.0,0.0,0.0,0.0,0.0,0.0,0.0,0.0,0.0,0.0,0.0,0.0,0.0,0.0,0.0,0.0,0.0,0.0,0.0,0.0,0.0,0.0,0.0,0.0,0.0,0.0,0.0,0.0,0.0,0.0,0.0,0.0,0.0,0.0,0.0,0.0,0.0,0.0,0.0,0.0,0.0,0.0,0.0,0.0,0.0,0.0,0.0,0.0,0.0,0.0,0.0,0.0,0.0,0.0,0.0,0.0,0.0,0.0,0.0,0.0,0.0,0.0,0.0,0.0,0.0,0.0,0.0,0.0,0.0,0.0,-2.6756,-2.8363,-3.1305,-3.3259,-3.3403,-3.1059,-2.9416,-2.7589,-2.55,-2.4206,0.0,0.0,0.0,0.0,0.0,0.0,0.0,0.0,0.0,0.0,0.0,0.0,0.0,0.0,0.0,0.0,0.0,0.0,0.0,0.0,0.0,0.0,0.0,0.0,0.0,0.0,0.0,0.0,0.0,0.0,0.0,0.0,0.0,0.0,0.0,0.0,0.0,0.0,0.0,0.0,0.0,0.0,0.0,0.0,0.0,0.0,0.0,0.0,0.0,0.0,0.0,0.0,0.0,0.0,0.0,0.0,0.0,0.0,0.0,0.0,0.0,0.0,0.0,0.0,0.0,0.0,0.0,0.0,0.0,0.0,0.0,0.0,0.0,0.0,0.0,0.0,0.0,0.0,0.0,0.0,0.0,0.0,0.0,0.0,0.0,0.0,0.0,0.0,0.0,0.0,0.0,0.0,0.0,0.0,0.0,0.0,0.0,0.0,0.0,0.0,0.0,0.0,-2.8905,-2.9868,-3.1616,-3.3333,-3.3367,-3.1002,-2.9196,-2.7448,-2.5712,-2.3587,0.0,0.0,0.0,0.0,0.0,0.0,0.0,0.0,0.0,0.0,0.0,0.0,0.0,0.0,0.0,0.0,0.0,0.0,0.0,0.0,0.0,0.0,0.0,0.0,0.0,0.0,0.0,0.0,0.0,0.0,0.0,0.0,0.0,0.0,0.0,0.0,0.0,0.0,0.0,0.0,0.0,0.0,0.0,0.0,0.0,0.0,0.0,0.0,0.0,0.0,0.0,0.0,0.0,0.0,0.0,0.0,0.0,0.0,0.0,0.0,0.0,0.0,0.0,0.0,0.0,0.0,0.0,0.0,0.0,0.0,0.0,0.0,0.0,0.0,0.0,0.0,0.0,0.0,0.0,0.0,0.0,0.0,0.0,0.0,0.0,0.0,0.0,0.0,0.0,0.0,0.0,0.0,0.0,0.0,0.0,0.0,0.0,0.0,0.0,0.0,0.0,0.0,-2.9299,-3.1238,-3.1735,-3.3178,-3.323,-3.0995,-2.8589,-2.6749,-2.5664,-2.3003,0.0,0.0,0.0,0.0,0.0,0.0,0.0,0.0,0.0,0.0,0.0,0.0,0.0,0.0,0.0,0.0,0.0,0.0,0.0,0.0,0.0,0.0,0.0,0.0,0.0,0.0,0.0,0.0,0.0,0.0,0.0,0.0,0.0,0.0,0.0,0.0,0.0,0.0,0.0,0.0,0.0,0.0,0.0,0.0,0.0,0.0,0.0,0.0,0.0,0.0,0.0,0.0,0.0,0.0,0.0,0.0,0.0,0.0,0.0,0.0,0.0,0.0,0.0,0.0,0.0,0.0,0.0,0.0,0.0,0.0,0.0,0.0,0.0,0.0,0.0,0.0,0.0,0.0,0.0,0.0,0.0,0.0,0.0,0.0,0.0,0.0,0.0,0.0,0.0,0.0,0.0,0.0,0.0,0.0,0.0,0.0,0.0,0.0,0.0,0.0,0.0,0.0,-2.8112,-2.9675,0.0,-3.1763,-3.1446,-3.0104,-2.8117,-2.6442,-2.5357,0.0,0.0,0.0,0.0,0.0,0.0,0.0,0.0,0.0,0.0,0.0,0.0,0.0,0.0,0.0,0.0,0.0,0.0,0.0,0.0,0.0,0.0,0.0,0.0,0.0,0.0,0.0,0.0,0.0,0.0,0.0,0.0,0.0,0.0,0.0,0.0,0.0,0.0,0.0,0.0,0.0,0.0,0.0,0.0,0.0,0.0,0.0,0.0,0.0,0.0,0.0,0.0,0.0,0.0,0.0,0.0,0.0,0.0,0.0,0.0,0.0,0.0,0.0,0.0,0.0,0.0,0.0,0.0,0.0,0.0,0.0,0.0,0.0,0.0,0.0,0.0,0.0,0.0,0.0,0.0,0.0,0.0,0.0,0.0,0.0,0.0,0.0,0.0,0.0,0.0,0.0,0.0,0.0,0.0,0.0,0.0,0.0,0.0,0.0,0.0,0.0,0.0,-2.6471,-2.7774,-2.9154,0.0,-3.0878,-3.0332,-2.8973,-2.7233,-2.5799,-2.4823,0.0,0.0,0.0,0.0,0.0,0.0,0.0,0.0,0.0,0.0,0.0,0.0,0.0,0.0,0.0,0.0,0.0,0.0,0.0,0.0,0.0,0.0,0.0,0.0,0.0,0.0,0.0,0.0,0.0,0.0,0.0,0.0,0.0,0.0,0.0,0.0,0.0,0.0,0.0,0.0,0.0,0.0,0.0,0.0,0.0,0.0,0.0,0.0,0.0,0.0,0.0,0.0,0.0,0.0,0.0,0.0,0.0,0.0,0.0,0.0,0.0,0.0,0.0,0.0,0.0,0.0,0.0,0.0,0.0,0.0,0.0,0.0,0.0,0.0,0.0,0.0,0.0,0.0,0.0,0.0,0.0,0.0,0.0,0.0,0.0,0.0,0.0,0.0,0.0,0.0,0.0,0.0,0.0,0.0,0.0,0.0,0.0,0.0,0.0,0.0,0.0,0.0,-2.6505,-2.8687,-3.0132,-3.0273,-3.0804,-3.0137,-2.7668,-2.5866,-2.4606,0.0,0.0,0.0,0.0,0.0,0.0,0.0,0.0,0.0,0.0,0.0,0.0,0.0,0.0,0.0,0.0,0.0,0.0,0.0,0.0,0.0,0.0,0.0,0.0,0.0,0.0,0.0,0.0,0.0,0.0,0.0,0.0,0.0,0.0,0.0,0.0,0.0,0.0,0.0,0.0,0.0,0.0,0.0,0.0,0.0,0.0,0.0,0.0,0.0,0.0,0.0,0.0,0.0,0.0,0.0,0.0,0.0,0.0,0.0,0.0,0.0,0.0,0.0,0.0,0.0,0.0,0.0,0.0,0.0,0.0,0.0,0.0,0.0,0.0,0.0,0.0,0.0,0.0,0.0,0.0,0.0,0.0,0.0,0.0,0.0,0.0,0.0,0.0,0.0,0.0,0.0,0.0,0.0,0.0,0.0,0.0,0.0,0.0,0.0,0.0,0.0,0.0,0.0,-2.5779,-2.7418,-2.8553,-2.8794,-2.8508,-2.7675,-2.6101,-2.4079,-2.2992,-2.3085,0.0,0.0,0.0,0.0,0.0,0.0,0.0,0.0,0.0,0.0,0.0,0.0,0.0,0.0,0.0,0.0,0.0,0.0,0.0,0.0,0.0,0.0,0.0,0.0,0.0,0.0,0.0,0.0,0.0,0.0,0.0,0.0,0.0,0.0,0.0,0.0,0.0,0.0,0.0,0.0,0.0,0.0,0.0,0.0,0.0,0.0,0.0,0.0,0.0,0.0,0.0,0.0,0.0,0.0,0.0,0.0,0.0,0.0,0.0,0.0,0.0,0.0,0.0,0.0,0.0,0.0,0.0,0.0,0.0,0.0,0.0,0.0,0.0,0.0,0.0,0.0,0.0,0.0,0.0,0.0,0.0,0.0,0.0,0.0,0.0,0.0,0.0,0.0,0.0,0.0,0.0,0.0,0.0,0.0,0.0,0.0,0.0,0.0,0.0,0.0,0.0,0.0,-2.5146,-2.641,-2.7292,-2.7486,-2.7088,-2.6147,-2.4632,-2.3287,-2.2358,-2.2036,0.0,0.0,0.0,0.0,0.0,0.0,0.0,0.0,0.0,0.0,0.0,0.0,0.0,0.0,0.0,0.0,0.0,0.0,0.0,0.0,0.0,0.0,0.0,0.0,0.0,0.0,0.0,0.0,0.0,0.0,0.0,0.0,0.0,0.0,0.0,0.0,0.0,0.0,0.0,0.0,0.0,0.0,0.0,0.0,0.0,0.0,0.0,0.0,0.0,0.0,0.0,0.0,0.0,0.0,0.0,0.0,0.0,0.0,0.0,0.0,0.0,0.0,0.0,0.0,0.0,0.0,0.0,0.0,0.0,0.0,0.0,0.0,0.0,0.0,0.0,0.0,0.0,0.0,0.0,0.0,0.0,0.0,0.0,0.0,0.0,0.0,0.0,0.0,0.0,0.0,0.0,0.0,0.0,0.0,0.0,0.0,0.0,0.0,0.0,0.0,0.0,0.0,-2.452,-2.5565,-2.6236,-2.6318,-2.6198,-2.531,-2.331,-2.2985,-2.231,-2.1022,0.0,0.0,0.0,0.0,0.0,0.0,0.0,0.0,0.0,0.0,0.0,0.0,0.0,0.0,0.0,0.0,0.0,0.0,0.0,0.0,0.0,0.0,0.0,0.0,0.0,0.0,0.0,0.0,0.0,0.0,0.0,0.0,0.0,0.0,0.0,0.0,0.0,0.0,0.0,0.0,0.0,0.0,0.0,0.0,0.0,0.0,0.0,0.0,0.0,0.0,0.0,0.0,0.0,0.0,0.0,0.0,0.0,0.0,0.0,0.0,-2.1745,0.0,0.0,0.0,0.0,0.0,0.0,0.0,0.0,0.0,0.0,0.0,0.0,0.0,0.0,0.0,0.0,0.0,0.0,0.0,0.0,0.0,0.0,0.0,0.0,0.0,0.0,0.0,0.0,0.0,0.0,0.0,0.0,0.0,0.0,0.0,0.0,0.0,0.0,0.0,0.0,0.0,-2.3383,-2.4617,-2.5294,-2.4906,-2.4823,-2.4059,-2.2194,-2.1527,-2.099,-2.0479,-1.9999,0.0,0.0,0.0,0.0,0.0,0.0,0.0,0.0,0.0,0.0,0.0,0.0,0.0,0.0,0.0,0.0,0.0,0.0,0.0,0.0,0.0,0.0,0.0,0.0,0.0,0.0,0.0,0.0,0.0,0.0,0.0,0.0,0.0,0.0,0.0,0.0,0.0,0.0,0.0,0.0,0.0,0.0,0.0,0.0,0.0,0.0,0.0,0.0,0.0,0.0,0.0,0.0,0.0,0.0,0.0,0.0,0.0,0.0,0.0,0.0,-2.3386,0.0,0.0,0.0,0.0,0.0,0.0,0.0,0.0,0.0,0.0,0.0,0.0,0.0,0.0,0.0,0.0,0.0,0.0,0.0,0.0,0.0,0.0,0.0,0.0,0.0,0.0,0.0,0.0,0.0,0.0,0.0,0.0,0.0,0.0,0.0,0.0,0.0,0.0,0.0,0.0,-2.2622,-2.3448,-2.3884,-2.3631,-2.359,-2.292,-2.1355,-2.0897,-2.0501,-2.0045,-1.9714,0.0,0.0,0.0,0.0,0.0,0.0,0.0,0.0,0.0,0.0,0.0,0.0,0.0,0.0,0.0,0.0,0.0,0.0,0.0,0.0,0.0,0.0,0.0,0.0,0.0,0.0,0.0,0.0,0.0,0.0,0.0,0.0,0.0,0.0,0.0,0.0,0.0,0.0,0.0,0.0,0.0,0.0,0.0,0.0,0.0,0.0,0.0,0.0,0.0,0.0,0.0,0.0,0.0,-3.026,-2.9551,-2.8803,-2.7789,-2.7056,-2.6629,-2.6627,-2.6061,-2.5131,-2.5048,0.0,0.0,0.0,0.0,0.0,0.0,0.0,0.0,0.0,0.0,0.0,0.0,0.0,0.0,0.0,0.0,0.0,0.0,0.0,0.0,0.0,0.0,0.0,0.0,-2.5623,-2.5139,-2.3079,0.0,0.0,0.0,0.0,0.0,0.0,0.0,0.0,0.0,0.0,0.0,-2.2099,-2.2566,-2.2853,-2.2853,-2.2853,-2.2323,-2.1006,-2.0868,-2.0528,-1.9738,-1.9708,-1.9839,0.0,0.0,0.0,0.0,0.0,0.0,0.0,0.0,0.0,0.0,0.0,0.0,0.0,0.0,0.0,0.0,0.0,0.0,0.0,0.0,0.0,0.0,0.0,0.0,0.0,0.0,0.0,0.0,0.0,0.0,0.0,0.0,-2.9088,-2.9574,0.0,0.0,0.0,0.0,0.0,0.0,0.0,0.0,0.0,0.0,0.0,0.0,0.0,-3.0344,-3.1381,-3.314,-3.3577,-3.2698,-3.3375,-3.2872,-3.1404,-3.0471,-3.0021,-2.992,-2.9479,0.0,-2.5699,-2.4675,0.0,0.0,0.0,0.0,0.0,0.0,0.0,0.0,0.0,0.0,0.0,0.0,0.0,0.0,0.0,0.0,0.0,0.0,0.0,0.0,0.0,0.0,-2.7705,-2.6669,-2.6874,-2.6898,0.0,-2.414,-2.3163,-2.2876,-2.2066,0.0,0.0,0.0,0.0,0.0,0.0,0.0,-2.1744,-2.2783,-2.346,-2.346,-2.346,-2.2951,-2.1665,-2.1575,-2.1036,-1.9798,-1.9708,-1.9726,-1.9767,-1.9767,0.0,0.0,0.0,0.0,0.0,0.0,0.0,0.0,0.0,0.0,0.0,0.0,0.0,0.0,0.0,0.0,0.0,0.0,0.0,0.0,0.0,0.0,0.0,0.0,0.0,0.0,0.0,0.0,0.0,-2.9459,-3.1464,-2.9987,-2.9848,-2.8868,0.0,0.0,0.0,0.0,0.0,0.0,0.0,0.0,0.0,-3.1056,-3.2095,-3.2889,-3.3395,-3.4986,-3.5626,-3.5186,-3.5022,-3.4393,-3.3462,-3.2459,-3.1662,-3.1035,-3.0809,-2.9694,-2.8023,-2.6876,-2.6059,-2.5525,0.0,0.0,0.0,0.0,-2.566,-2.5107,-2.7173,-2.661,-2.5241,-2.6747,0.0,0.0,0.0,0.0,0.0,0.0,0.0,-2.4759,0.0,0.0,-2.717,-2.7369,-2.7312,-2.7223,-2.7135,-2.5638,-2.4053,0.0,-2.3581,-2.3347,-2.1567,0.0,0.0,0.0,0.0,-2.1425,-2.2164,-2.2763,-2.3092,-2.3092,-2.2742,-2.2143,-2.1216,-2.0797,-2.0337,-1.9738,-1.9708,-1.9708,-1.9708,-1.9708,-1.9708,0.0,0.0,0.0,0.0,0.0,0.0,0.0,0.0,0.0,0.0,0.0,0.0,0.0,0.0,0.0,0.0,0.0,0.0,0.0,0.0,0.0,0.0,0.0,0.0,0.0,0.0,0.0,0.0,-3.1076,-3.259,-3.01,-3.0848,-3.0248,0.0,0.0,0.0,0.0,0.0,0.0,-3.099,-3.1915,-3.2791,-3.3472,-3.492,-3.5752,-3.5867,-3.6968,-3.7481,-3.7434,-3.6157,-3.5303,-3.4871,-3.3784,-3.2817,-3.2014,-3.1712,-3.106,-3.0094,-2.8743,-2.7619,-2.6771,-2.6496,-2.6263,-2.6192,-2.7265,-2.6988,-2.6386,-2.8675,-2.8289,-2.6935,-2.7677,-2.6993,-2.5675,-2.4641,0.0,0.0,0.0,0.0,-2.4887,-2.578,-2.6249,-2.6809,-2.7971,-2.8072,-2.7926,-2.8254,-2.7416,-2.6096,0.0,-2.4792,-2.4826,-2.2564,0.0,0.0,0.0,0.0,-2.1575,-2.2583,-2.2823,-2.2942,-2.2942,-2.2473,-2.1844,-2.1036,-2.0498,-2.0067,-1.9738,-1.9708,-1.9708,-1.9708,-1.9708,-1.9708,-1.9708,0.0,0.0,0.0,0.0,0.0,0.0,0.0,0.0,0.0,0.0,0.0,0.0,0.0,0.0,0.0,0.0,0.0,0.0,0.0,0.0,0.0,0.0,0.0,0.0,0.0,0.0,0.0,0.0,0.0,-3.0512,-3.1883,0.0,0.0,0.0,0.0,-2.8762,-3.0321,-3.177,-3.2895,-3.3985,-3.5047,-3.6175,-3.797,-3.9097,-3.9606,-3.9679,-3.9523,-3.8951,-3.7131,-3.5997,-3.5424,-3.4349,-3.3822,-3.3721,-3.2641,-3.1838,-3.1135,-2.8988,-2.7756,-2.7163,-2.6089,-2.5996,-2.6578,-2.7319,-2.7118,-2.6714,-2.8201,-2.7793,-2.7038,-2.959,-2.9212,-2.7637,-2.7015,-2.5549,0.0,0.0,-2.5003,-2.5947,-2.6058,-2.7016,-2.8081,-2.8778,-2.9572,-2.9807,-2.857,-2.9311,-2.9301,0.0,-2.4522,-2.3486,-2.2786,0.0,-2.2414,-2.1764,-2.2194,-2.2613,-2.2673,-2.3212,-2.355,-2.355,-2.352,-2.3011,-2.1754,-2.1605,-2.1055,-1.9798,-1.9708,-1.9708,-1.9708,-1.9708,-1.9708,-1.9708,-1.9708,0.0,0.0,0.0,0.0,0.0,0.0,0.0,0.0,0.0,0.0,0.0,0.0,0.0,0.0,0.0,0.0,0.0,0.0,0.0,0.0,0.0,0.0,0.0,0.0,0.0,0.0,0.0,0.0,-3.3315,-3.4739,0.0,-3.1461,-3.1569,-3.1913,-3.2114,-3.3646,-3.4821,-3.5223,-3.6584,-3.7563,-3.8014,-3.8965,-3.9237,-3.87,-3.8674,-3.8256,-3.7365,-3.6657,-3.607,-3.5483,-3.4731,-3.4248,-3.3847,-3.3093,-3.224,-3.1336,-3.0532,-2.9704,-2.885,-2.8448,-2.8197,-2.8133,-2.878,-2.8605,-2.817,-2.9083,-2.8852,-2.8125,-2.8385,-2.7816,-2.695,-2.6738,-2.6193,-2.5626,-2.5626,-2.5974,-2.6317,-2.6352,-2.6664,-2.7103,-2.7345,-2.8032,-2.8529,-2.8165,-2.8941,-2.9283,-2.7816,-2.6782,-2.5698,-2.4178,-2.3939,-2.3699,-2.3011,-2.3131,-2.3302,-2.3302,-2.346,-2.361,-2.361,-2.3251,-2.2673,-2.1784,-2.1306,-2.0677,-1.9768,-1.9708,-1.9708,-1.9708,-1.9708,-1.9708,-1.9708,-1.9708,-1.9708,0.0,0.0,0.0,0.0,0.0,0.0,0.0,0.0,0.0,0.0,0.0,0.0,0.0,0.0,0.0,0.0,0.0,0.0,0.0,0.0,0.0,0.0,0.0,0.0,0.0,0.0,-3.5504,-3.4627,-3.6297,-3.6489,-3.3775,-3.4255,-3.4751,-3.4726,-3.6329,-3.726,-3.726,-3.8492,-3.9145,-3.9145,-3.9931,-4.0006,-3.9239,-3.883,-3.8268,-3.7574,-3.677,-3.6182,-3.5805,-3.5207,-3.47,-3.4148,-3.3596,-3.2616,-3.1386,-3.1386,-3.0758,-2.9804,-2.9804,-2.9553,-2.9277,-2.9654,-2.9553,-2.9277,-2.9654,-2.9553,-2.9076,-2.8147,-2.7595,-2.7304,-2.7102,-2.7052,-2.7052,-2.7052,-2.7052,-2.7002,-2.6826,-2.6776,-2.6795,-2.6875,-2.7537,-2.8169,-2.8383,-2.9284,-2.9811,-2.9095,-2.8423,-2.7375,-2.5561,-2.5262,-2.5046,-2.4388,-2.4268,-2.4208,-2.3969,-2.3939,-2.3849,-2.361,-2.3221,-2.2673,-2.1754,-2.1485,-2.0887,-1.9768,-1.9899,-1.9947,-1.9708,-1.9708,-1.9708,-1.9708,-1.9708,-1.9828,-2.0019,0.0,0.0,0.0,0.0,0.0,0.0,0.0,0.0,0.0,0.0,0.0,0.0,0.0,0.0,0.0,0.0,0.0,0.0,0.0,0.0,0.0,0.0,0.0,-3.0733,-3.4048,-3.5855,-3.4248,-3.6433,-3.7036,-3.4349,-3.5554,-3.6483,-3.6505,-3.8014,-3.8944,-3.8944,-3.9396,-3.9697,-3.9697,-4.0895,-4.1541,-4.1489,-4.0403,-3.9823,-3.977,-3.7501,-3.6405,-3.638,-3.578,-3.5182,-3.47,-3.4123,-3.2943,-3.1411,-3.1411,-3.0758,-2.9804,-2.9804,-2.9804,-2.9804,-2.9804,-2.9804,-2.9804,-2.9804,-2.9804,-2.9704,-2.9126,-2.8913,-2.8813,-2.8323,-2.8147,-2.8147,-2.8147,-2.8122,-2.7996,-2.7419,-2.7293,-2.7364,-2.7602,-2.833,-2.9025,-2.9254,-3.0426,-3.1093,-2.9864,-2.9086,-2.8218,-2.6871,-2.6632,-2.6393,-2.5734,-2.5615,0.0,-2.4701,-2.4559,-2.4313,-2.3686,-2.3618,-2.308,-2.1844,-2.2343,-2.1834,-1.9828,-2.0318,-2.0378,-1.9738,-1.9708,-1.9708,-1.9708,-1.9708,-2.0019,-2.0639,0.0,0.0,0.0,0.0,0.0,0.0,0.0,0.0,0.0,0.0,0.0,0.0,0.0,0.0,0.0,0.0,0.0,0.0,0.0,0.0,0.0,-3.1738,-3.3596,-3.3596,-3.5881,-3.7538,-3.7513,-3.8868,-3.9371,-3.8216,-3.8517,-3.8793,-3.8768,-3.9195,-3.9471,-3.9471,-3.9622,-3.9697,-3.9697,-4.0032,-3.9829,-3.8989,-3.8657,-3.8146,-3.733,-3.672,-3.6405,-3.638,-3.5378,-3.4831,-3.4675,-3.3721,-3.2792,-3.1964,-3.1562,-3.1009,-3.0357,-2.9955,-2.9804,-2.9804,-2.9804,-2.9804,-2.9804,-2.9804,-2.9804,-2.9754,-2.9603,-2.9553,-2.9528,-2.9377,-2.9327,-2.9252,-2.8825,-2.8662,-2.8473,-2.7519,-2.7293,-2.7213,-2.6909,-2.7438,-2.8271,-2.8938,-2.9883,-3.0573,-3.0291,-3.0103,-2.9564,-2.8278,-2.7675,-2.7106,-2.6422,-2.5914,0.0,-2.4631,-2.3763,-2.3472,-2.4181,-2.3903,-2.3348,-2.2482,-2.2583,-2.1834,-1.9828,-1.9869,-1.9887,-1.9708,-1.9708,-1.9708,-1.9708,-1.9708,-1.9586,0.0,0.0,0.0,0.0,0.0,0.0,0.0,0.0,0.0,0.0,0.0,0.0,0.0,0.0,0.0,0.0,0.0,0.0,0.0,0.0,0.0,0.0,-3.4048,-3.5906,-3.6383,-3.7965,-3.9195,-3.9521,-4.0325,-4.0551,-3.9772,-3.9697,-3.9697,-3.9697,-3.9697,-3.9697,-3.9697,-3.9697,-3.9697,-3.9697,-3.9697,-3.9371,-3.8718,-3.8492,-3.7939,-3.7036,-3.6857,-3.6631,-3.638,-3.5454,-3.4906,-3.4675,-3.3796,-3.2968,-3.219,-3.1863,-3.1286,0.0,0.0,0.0,0.0,0.0,-2.9804,-2.9856,-3.0254,-3.0139,-2.9856,-3.0254,-3.0101,-2.9804,-2.9804,-2.9804,-2.9729,-2.9377,-2.9302,-2.9076,-2.8197,-2.7971,-2.7929,-2.7736,-2.7884,-2.8279,-2.9164,-2.9857,-3.0304,-3.0397,-3.0446,0.0,-2.9535,-2.8637,-2.7914,-2.75,-2.6594,-2.5716,-2.4998,-2.4042,-2.3473,-2.3671,-2.3437,-2.2987,-2.2342,-2.2296,0.0,0.0,0.0,-1.9989,-1.9708,-1.9708,0.0,0.0,0.0,-1.969,-1.9651,0.0,0.0,0.0,-2.1137,-2.0905,0.0,0.0,0.0,0.0,0.0,0.0,0.0,0.0,0.0,0.0,0.0,0.0,0.0,0.0,0.0,0.0,-3.6377,-3.7887,-3.9222,-4.0027,-4.0501,-4.0425,-4.0849,-4.0774,-3.9798,-3.9697,-3.9697,-3.9697,-3.9697,-3.9697,-3.9697,0.0,0.0,0.0,0.0,-3.9672,-3.9597,-3.912,-3.8542,-3.7914,-3.7412,-3.6933,-3.638,-3.5805,-3.5207,-3.47,-3.4148,-3.3294,-3.2315,-3.224,-3.1612,-3.0633,-3.003,-2.9804,-2.9804,-2.9804,-2.9856,-3.0062,-3.0809,0.0,0.0,-3.0809,-3.0495,-2.9804,-2.9804,-2.9804,-2.9804,-2.9804,-2.9804,-2.9654,-2.9076,-2.8888,-2.8961,-2.9184,-2.8847,-2.8667,-2.9487,-2.9887,-3.0142,-3.0269,-3.0397,-3.0499,-3.0584,-2.9564,-2.8697,-2.8607,-2.7381,-2.6268,-2.5561,-2.4736,-2.3792,-2.2803,0.0,0.0,-2.1753,-2.1771,-2.146,-2.0644,-2.0609,-2.0318,-1.9738,-1.9708,-1.9708,-1.9708,-1.9708,-1.9967,-2.0501,-2.0645,-2.0974,-2.1462,-2.0488,-2.0004,0.0,0.0,0.0,0.0,0.0,0.0,0.0,0.0,0.0,0.0,0.0,0.0,0.0,0.0,0.0,-3.7194,-3.8137,-3.9474,-4.2008,-4.1309,-4.035,-3.9898,-4.035,-4.0425,-3.9747,-3.9697,-3.9697,-3.9697,-3.9697,-3.9697,-3.9697,-3.9697,-3.9697,-3.9697,-3.9697,-3.9471,-3.9044,-3.8969,-3.8366,-3.7337,0.0,0.0,-3.638,-3.5805,-3.5207,-3.47,-3.4148,-3.352,-3.2867,-3.2416,-3.1838,-3.1135,-3.0181,-2.9804,-2.9804,-2.9804,-3.0292,-3.0846,-3.0292,-3.0457,-3.082,-3.0254,-2.9934,-2.9804,-2.9804,-2.9804,0.0,-2.9804,-2.9804,-2.9654,-2.9076,-2.8888,-2.8837,-2.8442,-2.825,-2.8273,-2.866,-2.8786,-2.9133,-3.0111,-3.0333,-3.0543,-3.1186,-3.0253,-2.9205,-2.8697,-2.7381,-2.6254,-2.5492,-2.3879,-2.291,-2.3203,-2.2858,-2.2368,-2.1745,-2.2198,-2.1744,-1.9998,-1.9878,-1.9857,-1.9708,-1.9708,-1.9708,-1.9708,-1.9708,-1.9542,-1.9267,-2.0234,-2.0543,-2.0274,-2.0997,-2.1328,0.0,0.0,0.0,0.0,0.0,0.0,0.0,0.0,0.0,0.0,0.0,-3.3861,-3.439,0.0,-3.9432,-4.1144,-4.1882,-4.2731,-4.4142,-4.3261,-4.2364,-4.1983,-4.1072,-4.0637,-4.1106,-4.0287,-3.9697,-3.9697,-3.9697,-3.9697,-3.9697,-3.9697,-3.9697,-3.9697,-3.9697,-3.9572,-3.927,-3.927,-3.8718,-3.7588,-3.7588,-3.7161,-3.638,-3.5805,-3.5357,-3.5056,-3.455,-3.4148,-3.3847,-3.2993,-3.2315,-3.1712,-3.0909,-3.0583,-3.0557,-3.0306,-3.0494,-3.0855,-3.0572,-3.0495,-3.0495,-3.0495,-3.0177,-2.9804,-2.9804,-2.9804,-2.9804,-2.9804,-2.9804,-2.9729,-2.9428,-2.9352,-2.9302,-2.9026,-2.8524,-2.8131,-2.8267,-2.8178,-2.8286,-2.8867,-2.969,-3.0299,-3.0238,-3.0425,-3.0342,-2.9654,-2.7782,-2.6328,-2.5966,-2.405,-2.276,-2.2845,-2.2358,-2.1929,-2.1672,-2.2007,-2.1643,-2.0309,-2.0519,-2.0557,-2.0198,-2.0528,-2.0528,-2.0198,-2.0528,-2.0577,-2.0312,-2.0924,-2.1053,-2.0826,-2.1407,-2.1544,0.0,0.0,0.0,0.0,0.0,0.0,0.0,0.0,-3.1411,-3.2591,-3.527,-3.773,-3.8838,-4.1183,-4.3405,-4.4869,-4.5337,-4.5594,-4.579,-4.5066,-4.4557,-4.4741,-4.2346,-4.1183,-4.2303,-4.0773,-3.9697,-3.9697,-3.9697,-3.9697,-3.9697,-3.9697,-3.9697,-3.9697,-3.9697,-3.9697,-3.9697,-3.9697,-3.9195,-3.8165,-3.8065,-3.7487,-3.6556,-3.5956,-3.5608,-3.5458,-3.4806,-3.453,-3.4474,-3.3495,-3.2792,-3.234,-3.1888,-3.1637,-3.1486,-3.0859,-3.0651,-3.0749,-3.0889,-3.0545,-3.0177,-3.0733,-3.0419,-2.9804,-2.9804,-2.9804,-2.9804,-2.9804,-2.9804,-2.9804,-2.9804,-2.9804,-2.9804,-2.9804,-2.9026,-2.8247,-2.8122,-2.7857,-2.7635,-2.7696,-2.8844,-2.9628,-2.9097,-3.0117,-3.0807,-3.0129,-2.814,-2.6601,-2.6179,-2.4461,-2.302,-2.2368,-2.192,-2.1695,-2.1747,-2.1592,-2.1292,-2.0912,-2.1278,-2.1248,-2.0714,-2.1336,-2.1455,-2.0897,-2.1425,-2.1691,-2.1679,-2.1845,-2.1893,-2.1894,-2.189,-2.1524,-2.9963,-2.8708,-2.9001,-3.1888,-3.1562,-3.1788,0.0,0.0,-3.6128,-3.7762,-3.8768,-3.9777,-4.1093,-4.2047,-4.3584,-4.6605,-4.62,-4.5839,-4.6881,-4.5549,-4.51,-4.667,-4.365,-4.1547,-4.1696,-4.0491,-3.9697,-3.9697,-3.9697,-3.9697,-3.9697,-3.9697,-3.9697,-3.9697,-3.9697,-3.9697,-3.9697,-3.9697,-3.9396,-3.8768,-3.8241,-3.7688,-3.7086,-3.6581,-3.6006,-3.5433,-3.4449,-3.3997,-3.3947,-3.3345,-3.3043,-3.2968,-3.2918,-3.2566,-3.1989,-3.0984,-3.0842,-3.1011,-3.0241,-3.0419,-3.0932,-3.0177,-2.9895,-2.9804,-2.9804,-2.9804,-2.9804,-2.9804,-2.9804,-2.9804,-2.9804,-2.9804,-2.9804,-2.9804,-2.9302,-2.8662,-2.8222,-2.7691,-2.7401,-2.7642,-2.7868,-2.8201,-2.8876,-2.916,-2.9059,-2.8358,-2.8102,-2.733,-2.5492,-2.4458,-2.3502,-2.2393,-2.2246,-2.2226,-2.2296,-2.1351,-2.0957,-2.1474,-2.1075,-2.0777,-2.0699,-2.1325,-2.1665,-2.1575,-2.1665,-2.1685,-2.1684,-2.2301,-2.2608,-2.2583,-2.2591,-2.1927,-3.2249,-3.2098,0.0,0.0,-3.3771,-3.5052,-3.7362,-3.7913,-3.8265,-3.9546,-4.1155,-4.2761,-4.4107,-4.5801,-4.7589,0.0,-4.9501,-4.928,-4.8975,-4.7975,-4.7299,-4.727,-4.52,-4.3974,-4.4383,-4.3253,-4.2332,-4.1963,-4.1583,-4.1231,-4.082,-4.0083,-3.9697,-3.9697,-3.9697,-3.9697,-3.9697,-3.9697,-3.9421,-3.8919,-3.8617,-3.804,-3.7186,-3.6983,-3.6533,-3.5981,-3.5529,-3.5152,-3.4781,-3.4248,-3.3847,-3.352,-3.3194,-3.2717,-3.2164,-3.1712,-3.1265,-3.0791,-3.0413,-3.0303,-3.0305,-2.9934,-2.9804,-2.9804,-2.9804,-2.9804,-2.9804,-2.9804,-2.9804,-2.9804,-2.9804,-2.9804,-2.9804,-2.9804,-2.9352,-2.8737,-2.8222,-2.767,-2.7258,-2.7054,-2.7397,-2.767,-2.7571,-2.833,-2.857,-2.7321,-2.7301,-2.7122,-2.6237,-2.514,-2.4023,-2.2895,-2.2498,-2.2059,-2.1474,-2.1251,-2.1297,-2.1574,-2.1764,-2.1844,-2.1749,-2.2435,-2.2622,-2.2283,-2.2622,-2.2802,-2.2802,-2.3071,-2.3221,-2.3221,-2.3222,-2.2762,-3.3913,0.0,0.0,-3.4366,-3.5856,-3.7538,-3.799,-3.8969,-4.0101,-4.1003,-4.2516,-4.4125,-4.5665,-4.7346,-4.9009,-5.0394,-5.1065,-5.106,-5.0106,-4.9404,-4.8506,-4.7189,-4.6064,-4.5651,-4.6292,-4.4724,-4.3636,-4.3484,-4.2408,-4.1765,-4.1617,-4.0415,-3.9697,-3.9697,-3.9697,-3.9697,-3.9697,-3.9697,-3.9496,-3.9094,-3.8994,-3.8366,-3.7387,-3.7086,-3.6782,-3.6405,-3.6207,-3.5906,-3.5458,-3.4906,-3.4399,-3.3847,-3.347,-3.2842,-3.224,-3.239,-3.1662,-3.0608,-3.0608,-3.0256,-2.9804,-2.9804,-2.9804,-2.9804,-2.9804,-2.9804,-2.9804,-2.9804,-2.9804,-2.9804,-2.9804,-2.9804,-2.9804,-2.9804,-2.9352,-2.8787,-2.8423,-2.777,-2.7253,-2.7002,-2.7191,-2.7248,-2.6779,-2.7575,-2.7954,-2.6882,-2.6763,-2.6752,-2.657,-2.5371,-2.4249,-2.3421,-2.2844,-2.2221,-2.1446,-2.1629,-2.177,-2.177,-2.2321,-2.2572,-2.2472,-2.3345,-2.3644,-2.32,-2.3644,-2.3763,-2.3607,-2.3585,-2.3496,-2.3341,-2.3523,-2.3363,-3.438,0.0,-3.4304,-3.663,-3.7582,-3.8417,-4.0049,-4.1279,-4.2263,-4.2785,-4.2564,-4.283,-4.4702,-4.4679,-4.5434,-4.8751,-4.9288,-4.932,-4.9328,-4.876,-4.7818,-4.6501,-4.5711,-4.5592,0.0,-4.35,-4.2181,-4.3409,-4.1196,-4.0338,-4.1568,-4.0415,-3.9697,-3.9697,-3.9697,-3.9697,-3.9697,-3.9697,-3.9697,-3.9672,-3.912,-3.8567,-3.7939,-3.6933,-3.643,-3.638,-3.5805,-3.5508,-3.5458,-3.4906,-3.4399,-3.3897,-3.3872,-3.3194,-3.229,-3.2842,-3.2014,-3.0608,-3.0608,-3.0256,-2.9804,-2.9804,-2.9804,-2.9804,-2.9804,-2.9804,-2.9804,-2.9804,-2.9804,-2.9804,-2.9804,-2.9804,-2.9804,-2.9804,-2.9352,-2.8888,-2.8863,-2.8047,-2.7444,-2.7946,-2.7228,-2.6684,-2.7203,-2.6886,-2.6744,-2.7203,-2.6861,-2.6307,-2.5695,-2.4714,-2.4004,-2.3979,-2.3421,-2.307,-2.302,-2.2573,-2.23,-2.23,-2.2363,-2.2431,-2.2378,-2.3761,-2.446,-2.4431,-2.446,-2.4221,-2.371,-2.3569,-2.3252,-2.274,-2.3319,-2.361,-3.627,0.0,-3.7871,-3.8812,-3.9355,-3.9923,-4.0799,-4.163,-4.2162,-4.1932,-4.1153,-4.1023,-4.2547,-4.3037,-4.4134,-4.7042,-4.85,-4.9262,-4.9298,-4.912,-4.8117,-4.5903,-4.5843,0.0,0.0,0.0,0.0,-4.5958,-4.4054,-4.2878,-4.2861,-4.0844,-3.9697,-3.9697,-3.9697,-3.9697,-3.9697,-3.9697,-3.9697,-3.9697,-3.8743,-3.8191,-3.7965,-3.6908,-3.6405,-3.6405,-3.6182,-3.5881,-3.5458,-3.4906,-3.4399,-3.3872,-3.3495,-3.3119,-3.2817,-3.3061,-3.2491,-3.1612,-3.126,-3.0783,-3.0281,-2.9905,-2.9804,-2.9804,-2.9804,-2.9804,-2.9804,-2.9804,-2.9804,-2.9804,-2.9804,-2.9804,-2.9804,-2.9804,-2.9654,-2.9402,-2.8988,-2.8612,-2.8323,-2.8147,-2.7821,-2.762,-2.7795,-2.767,-2.762,-2.7795,-2.7344,-2.6826,-2.6273,-2.4976,-2.4344,-2.4993,-2.3666,-2.2823,-2.3085,-2.2594,-2.2322,-2.2322,-2.236,-2.2587,-2.2981,-2.3494,-2.3791,-2.3791,-2.3791,-2.3509,-2.2968,-2.292,-2.2828,-2.2723,-2.3356,-2.3644,-3.8222,-3.9029,-3.9984,-4.0362,-4.0618,-4.0852,-4.0949,-4.148,-4.1656,-4.0902,-3.9873,-3.9323,-3.9988,-4.0106,-4.1041,-4.3901,-4.5279,-4.6567,-4.8096,-4.791,-4.7244,-4.613,-4.5992,-4.5873,0.0,0.0,0.0,-4.7279,-4.4903,-4.3485,-4.3531,-4.1069,-3.9697,-3.9697,-3.9697,-3.9697,-3.9697,-3.9697,-3.9697,-3.9697,-3.8743,-3.8216,-3.7965,-3.7061,-3.6606,-3.6405,-3.6157,-3.5981,-3.578,-3.4981,-3.4525,-3.4148,-3.3596,-3.3244,-3.3111,-3.3111,-3.2842,-3.2441,-3.1888,-3.1336,-3.0809,-3.0256,-3.008,-3.0055,-2.9854,-2.9804,-2.9804,-2.9804,-2.9804,-2.9804,-2.9804,-2.9804,-2.9804,-2.9804,-2.9804,-2.9679,-2.9327,-2.9038,-2.8838,-2.8725,-2.8373,-2.8172,-2.8373,-2.8398,-2.8323,-2.8147,-2.7795,-2.7369,-2.6851,-2.5276,-2.4438,-2.505,-2.339,-2.245,-2.2867,-2.2561,-2.2441,-2.2594,-2.262,-2.2825,-2.3215,-2.355,-2.3717,-2.3717,-2.3717,-2.3446,-2.2875,-2.2849,-2.2754,-2.262,-2.3574,-2.3972,-4.0112,-4.0502,-4.0671,-4.134,-4.1415,-4.1125,-4.0601,-4.0774,-4.0852,-3.9747,-3.8592,-3.7588,0.0,0.0,-3.6523,-3.9559,-4.0192,-4.1761,-4.5981,-4.5553,-4.5404,0.0,0.0,0.0,0.0,0.0,0.0,-4.7309,0.0,-4.223,-4.3456,-4.1069,-3.9697,-3.9697,-3.9697,-3.9697,-3.9697,-3.9697,-3.9697,-3.9697,-3.9145,-3.8567,-3.799,-3.7437,-3.6933,-3.638,-3.5805,-3.5855,-3.6279,-3.5152,-3.4655,-3.4625,-3.4073,-3.3545,-3.3111,-3.3111,-3.3111,-3.2993,-3.2441,-3.1863,-3.1311,-3.0783,-3.0608,-3.0482,-2.9955,-2.9804,-2.9804,-2.9804,-2.9804,-2.9804,-2.9804,-2.9804,-2.9804,-2.9804,-2.9804,-2.9804,-2.9804,-2.9352,-2.9088,-2.9601,-2.885,-2.8274,-2.8838,-2.8938,-2.8762,-2.8273,-2.8147,-2.7921,-2.7344,-2.546,-2.4186,-2.4245,-2.2822,-2.2026,-2.2465,-2.2492,-2.2607,-2.2989,-2.3055,-2.306,-2.3035,-2.3813,-2.4247,-2.4247,-2.4247,-2.3932,-2.3326,-2.327,-2.2954,-2.243,-2.3819,-2.4422,-4.1526,-4.244,-4.3099,-4.281,-4.2006,-4.1025,-4.0124,-3.9346,-3.8542,-3.7437,-3.568,-3.4299,0.0,0.0,0.0,-3.9078,-4.1232,0.0,-4.7272,-4.7462,0.0,-4.7985,0.0,-4.7578,-4.7758,-4.7339,0.0,0.0,-4.4911,-4.317,-4.3504,-4.1069,-3.9697,-3.9697,-3.9697,-3.9697,-3.9697,-3.9697,-3.9697,-3.9697,-3.9145,-3.8567,-3.799,-3.7437,-3.6933,-3.6405,-3.6254,-3.6006,-3.5658,-3.4956,-3.4474,-3.4048,-3.3495,-3.3194,-3.3111,-3.3111,-3.3111,-3.3068,-3.2893,-3.2215,-3.1311,-3.0783,-3.0331,-2.998,-2.9829,-2.9804,-2.9804,-2.9804,-2.9804,-2.9804,-2.9804,-2.9804,-2.9804,-2.9804,-2.9804,-2.9804,-2.9804,-2.9679,-2.9372,-2.8664,-2.8288,-2.8402,-2.9413,-2.9578,-2.9528,-2.9377,-2.8649,-2.7921,-2.7344,-2.5206,-2.3961,-2.4696,-2.2755,-2.1725,-2.2602,-2.2275,-2.1946,-2.1707,-2.2297,-2.2534,-2.2211,-2.3005,-2.3395,-2.3395,-2.3395,-2.3145,-2.2585,-2.2556,-2.2506,-2.243,-2.3285,-2.3686,-4.2697,-4.3387,-4.3762,-4.2962,-4.1839,-4.0501,-3.8642,-3.7764,-3.6709,-3.46,-3.3395,0.0,-3.1436,0.0,0.0,0.0,0.0,0.0,-4.5548,-4.6364,-4.71,0.0,-4.8684,0.0,-4.876,-4.8117,-4.7997,0.0,-4.5673,-4.3842,-4.3842,-4.146,-4.0049,-4.0049,-3.9823,-3.9697,-3.9697,-3.9697,-3.9697,-3.9697,-3.9371,-3.8793,-3.799,-3.7688,-3.7111,-3.6405,0.0,-3.5956,-3.583,-3.4801,-3.4324,-3.4173,-3.3395,-3.3111,-3.3111,-3.3111,-3.3111,-3.3043,-3.2792,-3.229,-3.1662,-3.1135,-3.0583,-3.0105,-2.9854,-2.9804,-2.9804,-2.9804,-2.9804,-2.9804,-2.9804,-2.9804,-2.9804,-2.9804,-2.9804,-2.9804,-2.9804,-2.9404,-2.8727,-2.7602,-2.74,-2.7747,-2.8846,-2.9067,-2.9223,-2.9702,-2.9026,-2.81,-2.7127,-2.4971,-2.3562,-2.3672,-2.203,-2.1242,-2.1984,-2.1775,-2.1481,-2.1219,-2.1843,-2.2153,-2.1901,-2.2497,-2.2924,-2.312,-2.3095,-2.2945,-2.2644,-2.2644,-2.2673,-2.2714,-2.3476,-2.3789,-4.3563,-4.3915,-4.3639,-4.2514,-4.1279,-3.9672,-3.6885,-3.5981,-3.4876,-3.1813,0.0,-3.1009,-2.9214,-3.0281,-3.1838,-3.3194,0.0,-3.8299,-4.3116,-4.4325,-4.5881,-4.896,-4.9457,-4.9569,-4.9569,-4.8925,-4.8775,-4.9389,-4.6557,-4.4706,-4.4428,-4.1904,-4.0475,-4.04,-3.9948,-3.9697,-3.9697,-3.9697,-3.9697,-3.9697,-3.9697,-3.9094,-3.8015,-3.8015,-3.7412,-3.638,-3.5855,-3.5931,-3.6279,-3.4726,-3.4349,-3.4625,-3.3596,-3.3144,-3.3111,-3.3111,-3.3111,-3.2993,-3.2416,-3.2164,-3.2014,-3.1537,-3.1085,-3.0608,-3.0055,-2.9905,-2.988,-2.9804,-2.9804,-2.9804,-2.9804,-2.9804,-2.9804,-2.9804,-2.9804,-2.9804,-2.9804,-2.8767,-2.7602,-2.6689,-2.64,-2.6625,-2.7683,-2.8004,-2.8426,-2.9443,-2.9048,-2.8161,-2.6681,-2.482,-2.3187,-2.2113,-2.1145,-2.0736,-2.1065,-2.1118,-2.1108,-2.1013,-2.1535,-2.1812,-2.18,-2.2241,-2.2686,-2.309,-2.3095,-2.3095,-2.3095,-2.3095,-2.3095,-2.3125,-2.3839,-2.416,-4.4299,-4.4493,-4.4116,-4.259,-4.0978,-3.9094,-3.6285,-3.3922,0.0,0.0,-2.9051,-2.8298,-2.8787,-3.0281,-3.2215,-3.4655,0.0,0.0,0.0,0.0,-4.7208,0.0,0.0,0.0,0.0,0.0,0.0,0.0,-4.8457,-4.6817,-4.521,-4.2189,-4.03,-3.9848,-3.9747,-3.9697,-3.9697,-3.9697,-3.9697,-3.9697,-3.9697,-3.9094,-3.8015,-3.8015,-3.7412,-3.6405,-3.6304,0.0,-3.6355,-3.5554,-3.5006,-3.465,-3.3997,-3.347,-3.3111,-3.3111,-3.3111,-3.2993,-3.2416,-3.1913,-3.1512,-3.1411,-3.1336,-3.116,-3.0633,-3.0482,-3.0382,-2.993,-2.9804,-2.9804,-2.9804,-2.9804,-2.9804,-2.9804,-2.9804,-2.9804,-2.9804,-2.8211,-2.6707,-2.6565,-2.5755,-2.5462,-2.6584,-2.7522,-2.8187,-2.8386,-2.793,-2.7159,-2.6086,-2.4889,-2.3636,-2.2134,-2.1145,-2.0605,-2.0719,-2.0699,-2.052,-2.0152,-2.087,-2.1331,-2.1317,-2.2083,-2.2686,-2.309,-2.3095,-2.3095,-2.3095,-2.3095,-2.3095,-2.3095,-2.3245,-2.3305,-4.5698,-4.5497,-4.4669,-4.3067,-4.1072,-3.8774,-3.5622,0.0,0.0,0.0,-2.7942,-2.7344,-2.7595,0.0,0.0,0.0,0.0,0.0,0.0,0.0,0.0,0.0,0.0,0.0,0.0,0.0,0.0,0.0,-4.8093,-4.6671,-4.5796,-4.2684,-4.0701,-4.0149,-3.9848,-4.0032,-4.0693,-4.0032,-4.0032,-4.0693,-4.0032,-3.927,-3.8442,-3.814,-3.7563,-3.6832,-3.6531,-3.6405,-3.6355,-3.578,-3.5182,-3.4675,-3.4123,-3.3571,-3.3111,-3.3111,-3.3111,-3.2993,-3.2416,-3.224,-3.2215,-3.1913,-3.126,-3.0507,-3.0256,-3.0181,-3.0131,-2.9854,-2.9804,-2.9804,-2.9804,-2.9804,-2.9804,-2.9804,-2.9365,-2.8767,-2.8211,-2.6789,-2.542,-2.4851,-2.4296,-2.4296,-2.542,-2.6025,-2.6562,-2.7197,-2.7031,-2.6416,-2.512,-2.4563,-2.3673,-2.2087,-2.1313,-2.0918,-2.0918,-2.0742,-2.0391,-1.9941,-2.0534,-2.09,-2.0879,-2.1722,-2.2358,-2.2785,-2.3002,-2.3095,-2.3095,-2.3095,-2.3095,-2.3095,-2.3095,-2.3095,-4.6702,-4.615,-4.4978,-4.3731,-4.1312,-3.8495,-3.5389,-3.2616,0.0,0.0,-2.7027,-2.6565,-2.6499,0.0,-2.9453,0.0,0.0,0.0,0.0,0.0,0.0,0.0,0.0,0.0,0.0,0.0,0.0,0.0,-4.7097,-4.6008,-4.5704,-4.289,-4.1025,-4.0526,-4.0207,-4.0465,-4.1169,-4.0465,-4.0465,-4.1169,-4.016,-3.9396,-3.8894,-3.8266,-3.7713,-3.7161,-3.6656,-3.6405,-3.638,-3.5906,-3.5357,-3.4806,-3.4299,-3.3746,-3.3244,-3.3162,-3.3111,-3.2993,-3.2416,-3.2516,-3.2792,-3.2215,-3.1336,-3.0457,-3.0206,-3.0131,-3.008,-2.9854,-2.9804,-2.9804,-2.9804,-2.9804,-2.9804,-2.9804,-2.8949,-2.7804,-2.673,-2.5588,-2.4467,-2.3299,-2.3101,-2.3387,-2.4296,-2.4617,-2.5083,-2.6005,-2.6152,-2.5708,-2.4471,-2.4096,-2.3492,-2.2271,-2.168,-2.1288,-2.121,-2.0918,-2.0527,-2.0078,-2.041,-2.0614,-2.0719,-2.1366,-2.1945,-2.2348,-2.259,-2.2696,-2.2696,-2.2629,-2.2555,-2.2555,-2.2763,-2.2854,-4.6225,-4.5573,-4.4706,-4.4713,-4.1688,-3.8247,-3.6416,0.0,0.0,-2.7241,-2.5575,-2.4732,-2.6223,-2.6675,-2.7806,-3.0809,-3.1863,-3.4125,0.0,0.0,0.0,0.0,0.0,0.0,0.0,0.0,0.0,0.0,-4.6542,-4.5602,-4.4439,-4.2439,-4.1025,-4.0526,-4.1078,-4.0945,-3.9878,-4.0895,-4.0895,-3.9878,-3.9749,-3.9396,-3.8894,-3.8266,-3.7713,-3.7161,-3.6656,-3.6405,0.0,-3.6355,-3.5956,-3.5357,-3.4831,-3.4299,-3.3771,-3.3269,-3.3111,-3.2993,-3.2416,-3.224,-3.219,-3.1637,-3.2064,-3.2591,-3.1562,-3.1235,-3.1035,-3.0055,-2.9804,-2.9804,-2.9804,-2.9804,-2.9804,-2.9804,-2.8949,-2.7804,-2.673,-2.5588,-2.4467,-2.3299,-2.3101,-2.3144,-2.3256,-2.4125,-2.483,-2.4957,-2.4957,-2.4893,-2.4766,-2.3826,-2.3153,-2.2984,-2.2305,-2.166,-2.1229,-2.1151,-2.0977,-2.0566,-2.0586,-2.0753,-2.112,-2.1209,-2.1482,-2.1968,-2.1554,-2.1372,-2.1372,-2.0986,-2.0846,-2.0846,-2.1659,-2.2002,-4.5799,-4.6637,-4.6627,-4.5251,-4.2851,-4.0012,-3.6902,0.0,-2.8741,-2.7603,-2.5826,-2.4908,-2.6248,-2.6499,-2.7153,-2.9101,-2.9327,-3.0781,0.0,0.0,0.0,0.0,0.0,0.0,0.0,0.0,0.0,-4.5334,-4.5485,-4.5408,-4.4905,-4.3758,-4.2474,-4.1003,-4.2142,-4.2496,-4.1985,-4.1739,-4.1739,-4.1985,-4.0415,-3.9396,-3.8894,-3.8266,-3.7713,-3.7161,-3.6656,-3.6405,0.0,-3.6405,-3.583,-3.4981,-3.4756,-3.4173,-3.337,-3.3169,-3.3111,-3.3086,-3.2817,-3.2742,-3.2692,-3.2466,-3.2759,-3.286,-3.1361,-3.0934,-3.0758,-3.0005,-2.9804,-2.9804,-2.9804,-2.9804,-2.9804,-2.9804,-2.845,-2.6994,-2.6607,-2.5062,-2.3627,-2.3188,-2.3101,-2.3101,-2.3101,-2.3474,-2.38,-2.38,-2.38,-2.38,-2.38,-2.3387,-2.3101,-2.3101,-2.2617,-2.209,-2.166,-2.1346,-2.1055,-2.0625,-2.0605,-2.0681,-2.0827,-2.1069,-2.1171,-2.1131,-2.1149,-2.1107,-2.0849,-2.068,-2.059,-2.0623,-2.0942,-2.1101,-4.4732,-4.657,-4.7404,-4.6114,-4.3717,-4.0718,0.0,-3.277,-2.8816,-2.7715,-2.6058,-2.5109,-2.6072,-2.6373,-2.6851,-2.7921,-2.8072,-2.9202,-3.2634,0.0,0.0,0.0,0.0,0.0,0.0,0.0,0.0,-4.3887,-4.4583,-4.4974,-4.4974,-4.5144,-4.4075,-4.1717,-4.3231,-4.3504,-4.2398,-4.223,-4.223,-4.235,-4.0541,-3.9396,-3.8894,-3.8266,-3.7713,-3.7161,-3.6656,-3.6405,0.0,-3.6405,-3.5805,-3.4906,-3.4731,-3.4148,-3.3294,-3.3187,-3.3111,-3.3111,-3.3111,-3.2853,-3.2612,-3.2982,-3.2612,-3.1864,-3.1281,-3.1085,-3.0934,-3.0231,-2.9905,-2.9804,-2.9804,-2.9804,-2.9804,-2.9804,-2.8091,-2.6524,-2.6524,-2.4723,-2.3101,-2.3101,-2.3101,-2.3101,-2.3101,-2.3101,-2.3101,-2.3101,-2.3101,-2.3101,-2.3101,-2.3101,-2.3101,-2.3101,-2.2828,-2.2519,-2.2109,-2.168,-2.123,-2.0781,-2.0683,-2.0605,-2.0605,-2.0881,-2.0892,-2.0585,-2.0751,-2.0629,-2.0245,-2.0094,-1.9965,-1.9846,-2.0107,-2.0365,-4.2917,-4.4652,-4.6276,-4.7645,-4.3917,-3.9591,0.0,-3.3211,-2.8365,-2.7135,-2.5775,-2.4983,-2.5511,-2.6097,-2.6851,-2.7921,-2.9051,-3.0532,-3.281,0.0,0.0,0.0,0.0,0.0,0.0,0.0,0.0,-4.3178,-4.3859,0.0,-4.4318,-4.6172,-4.5797,-4.2512,-4.433,-4.3551,-3.98,-4.223,-4.223,-3.9749,-3.9697,-3.9396,-3.8894,-3.8266,-3.7713,-3.7161,-3.6656,-3.6405,0.0,-3.6405,-3.6031,-3.5433,-3.4881,-3.4374,-3.3822,-3.3312,-3.3111,-3.3111,-3.3111,-3.2283,-3.1444,-3.2698,-3.1424,-2.9761,-3.162,-3.219,-3.1964,-3.0909,-3.0206,-2.9804,-2.9804,-2.9804,-2.9804,-2.9804,-2.8091,-2.6524,-2.6524,-2.4723,-2.3101,-2.3101,-2.3101,-2.3101,-2.3101,-2.3101,-2.3101,-2.3101,-2.3101,-2.3101,-2.3101,-2.3101,-2.3101,-2.3101,-2.3081,-2.2925,-2.2539,-2.2109,-2.1699,-2.121,-2.082,-2.0605,-2.0605,-2.0605,-2.0586,-2.0586,-2.0155,-1.9725,-1.9314,-1.8848,-1.8418,-1.8042,-1.8911,-1.9781,-3.8044,-4.0285,-4.1741,-4.0522,-3.9219,-3.7597,-3.5094,-3.1944,-2.9176,-2.7735,-2.6798,-2.6233,-2.6223,-2.6373,-2.6977,-2.8423,-2.8938,-2.9729,0.0,0.0,0.0,0.0,0.0,0.0,0.0,0.0,-4.1667,-4.1892,-4.3061,-4.3732,-4.3732,-4.603,-4.6205,-4.3754,-4.4828,-4.4396,-4.2301,-4.223,-4.1789,-4.0969,-4.0134,-3.9396,-3.8894,-3.8266,-3.7713,-3.7161,-3.6656,-3.6405,-3.6405,-3.6405,-3.5805,-3.4931,-3.4801,-3.4148,-3.3319,-3.3144,-3.3111,-3.2982,-3.2108,-3.1557,-3.1134,-3.0732,-3.0598,-3.073,-3.134,-3.1269,-3.0931,-3.0667,-3.0482,-3.0256,-2.9905,-2.9804,-2.9804,-2.9804,-2.8648,-2.74,-2.6648,-2.5294,-2.4039,-2.3256,-2.3101,-2.3101,-2.3101,-2.3101,-2.3101,-2.3101,-2.3101,-2.3101,-2.3101,-2.3101,-2.3101,-2.3101,-2.3101,-2.2925,-2.2539,-2.2383,-2.2012,-2.1249,-2.1054,-2.0879,-2.0625,-2.0605,-2.0468,-2.0137,-1.998,-1.9707,-1.9297,-1.916,-1.8867,-1.8403,-1.8398,-1.8724,-3.4733,-3.7527,-3.9173,-3.7752,-3.6825,-3.5691,-3.3417,-3.1082,-2.9098,-2.7941,-2.7413,-2.7053,-2.6595,-2.6675,-2.7153,-2.8147,-2.8612,-2.9364,0.0,0.0,0.0,0.0,0.0,0.0,0.0,-4.1505,-4.12,-4.1,-4.2145,-4.2786,-4.2786,-4.4748,-4.5287,-4.4056,-4.4901,-4.4303,-4.2084,-4.1739,-4.1369,-4.0895,-4.0083,-3.9295,-3.8542,-3.8165,-3.7588,-3.6908,-3.6556,-3.6405,0.0,-3.6132,-3.5529,-3.47,-3.45,-3.3872,-3.3111,-3.3111,-3.281,-3.2283,-3.1488,-3.0574,-2.9761,-2.9487,-2.9897,-3.044,-2.9988,-3.0402,-3.1113,-3.1182,-3.0934,-3.0532,-3.0206,-2.9955,-2.9804,-2.9804,-2.8949,-2.7804,-2.673,-2.5588,-2.4467,-2.3299,-2.3101,-2.3101,-2.3101,-2.3101,-2.3101,-2.3101,-2.3101,-2.3101,-2.3101,-2.3101,-2.3101,-2.3101,-2.3101,-2.2984,-2.2773,-2.2598,-2.2285,-2.1717,-2.1562,-2.1289,-2.084,-2.082,-2.0605,-2.0176,-2.0156,-1.9941,-1.9531,-1.9375,-1.9141,-1.8867,-1.8613,-1.8633,0.0,-3.571,-3.7695,-3.7785,-3.5894,-3.3715,-3.283,-3.0569,0.0,-2.8007,-2.7835,-2.7564,-2.6798,-2.6961,-2.7268,-2.7444,-2.8298,0.0,0.0,0.0,0.0,0.0,0.0,0.0,0.0,-4.0676,-4.1025,-4.0551,-4.1155,-4.1591,-4.1591,-4.2786,-4.3456,-4.3361,-4.4489,-4.3456,-3.9878,-4.0893,-4.0843,-3.9697,-3.9647,-3.9094,-3.8065,-3.8015,-3.7437,0.0,-3.643,-3.6405,-3.6355,-3.578,-3.5182,-3.4675,-3.4123,-3.3571,-3.3068,-3.2982,-3.2239,-3.1178,-3.1,-2.951,-2.7767,-2.8912,-2.9258,-2.9096,-2.8049,-2.9713,-3.1988,-3.2047,-3.1364,-3.0588,-3.0593,-3.0231,-2.9854,-2.9854,-2.9013,-2.7907,-2.6816,-2.5694,-2.4553,-2.3343,-2.3101,-2.3057,-2.2994,-2.3057,-2.3057,-2.2994,-2.3057,-2.3101,-2.3101,-2.3101,-2.3101,-2.3101,-2.3101,-2.3101,-2.3101,-2.2773,-2.2539,-2.2519,-2.2148,-2.1738,-2.1268,-2.121,-2.1035,-2.0664,-2.0625,-2.041,-1.9961,-1.9531,-1.9336,-1.9336,-1.9297,-1.9297,-2.866,0.0,-3.0305,-2.958,-2.9958,-3.0459,0.0,-3.0215,-3.033,-2.98,0.0,0.0,-2.8121,-2.7301,-2.7253,-2.8925,-2.9051,-2.9503,0.0,0.0,0.0,0.0,0.0,0.0,0.0,-4.0551,-4.0651,-4.0526,-4.1155,-4.1591,-4.1591,-4.2786,-4.3074,-4.2084,-4.235,-4.2084,-4.1169,-4.008,-3.9601,-3.9697,-3.927,-3.8919,-3.8642,-3.8216,-3.7638,-3.696,-3.6581,-3.6405,-3.6355,-3.578,-3.5182,-3.4675,-3.4123,-3.3571,-3.2982,-3.2021,-3.1444,-3.0956,-2.9096,-2.8096,-2.7647,-2.7908,-2.8049,-2.8143,-2.8773,-2.9465,-3.014,-3.0687,-3.0615,-3.0465,-3.0568,-3.0507,-3.0407,-3.0407,-2.9884,-2.8992,-2.7455,-2.6563,-2.5504,-2.3474,-2.3101,-2.2818,-2.1898,-2.2492,-2.2775,-2.1854,-2.2492,-2.3101,-2.3101,-2.3101,-2.3101,-2.3101,-2.3101,-2.3101,-2.3101,-2.3003,-2.2808,-2.2539,-2.2422,-2.2168,-2.1758,-2.1366,-2.1151,-2.1074,-2.0781,-2.0546,-2.0449,-1.998,-1.9766,-1.9766,-1.9434,-1.9453,-2.6927,-2.767,-2.8273,-2.7419,-2.8038,-2.8707,-2.8437,-2.8995,0.0,0.0,0.0,0.0,0.0,0.0,0.0,-2.8775,-2.9176,0.0,0.0,0.0,0.0,0.0,0.0,0.0,0.0,-4.0526,-4.04,-4.0149,-4.0492,-4.0743,-4.0743,-4.1369,-4.1468,-4.0743,-4.0743,-4.0614,-4.0356,-3.9398,-3.8894,-3.8919,-3.8617,-3.8341,-3.809,-3.7764,-3.7337,-3.6832,-3.6531,-3.6405,-3.6355,-3.5504,-3.4956,-3.465,-3.3847,-3.3345,-3.2939,-3.1689,-3.0866,-3.0124,-2.8262,-2.722,-2.6716,-2.6716,-2.6716,-2.6839,-2.7484,-2.772,-2.8032,-2.9533,-3.0003,-3.0048,-3.0146,-3.0183,-3.0231,-3.0231,-2.9628,-2.8642,-2.7235,-2.6287,-2.521,-2.343,-2.3101,-2.2731,-2.1525,-2.1854,-2.2031,-2.1391,-2.1854,-2.2492,-2.3038,-2.3101,-2.3101,-2.3101,-2.3101,-2.3101,-2.3101,-2.3101,-2.3003,-2.2769,-2.2793,-2.2617,-2.2187,-2.1953,-2.16,-2.121,-2.0801,-2.0605,-2.0605,-2.037,-2.0215,-2.0215,-1.998,-2.0,-2.67,-2.7871,-2.8875,-2.8047,-2.8005,-2.8064,-2.7799,0.0,0.0,0.0,0.0,0.0,0.0,0.0,0.0,0.0,0.0,0.0,0.0,0.0,0.0,0.0,0.0,0.0,-4.03,-4.035,-4.0199,-3.9722,-3.9697,-3.9697,-3.9697,-3.9697,-3.9647,-3.9572,-3.9572,-3.927,-3.8668,-3.8693,-3.8492,-3.8015,-3.7914,-3.7638,-3.7186,-3.7186,-3.6835,-3.6279,0.0,0.0,-3.6078,-3.5002,-3.46,-3.45,-3.347,-3.3111,-3.2939,-3.1444,-3.0259,-2.9212,-2.7814,-2.662,-2.5693,-2.5693,-2.5693,-2.5693,-2.5693,-2.5693,-2.6159,-2.8262,-2.9148,-2.9451,-2.955,-2.9764,-2.9905,-2.9905,-2.8998,-2.7827,-2.682,-2.5631,-2.4467,-2.3299,-2.3101,-2.2731,-2.1525,-2.1302,-2.1302,-2.1302,-2.1302,-2.1747,-2.295,-2.3101,-2.3038,-2.2862,-2.2818,-2.2775,-2.2599,-2.2731,-2.2775,-2.2536,-2.2906,-2.2906,-2.2539,-2.2519,-2.2068,-2.121,-2.0859,-2.0664,-2.0605,-2.0605,-2.0605,-2.0605,-2.045,-2.045,-2.7595,-2.875,-2.9176,-2.7228,-2.761,-2.8323,-2.7802,0.0,0.0,0.0,0.0,0.0,0.0,0.0,0.0,0.0,0.0,0.0,0.0,0.0,0.0,0.0,0.0,-4.0651,-3.927,-3.9546,-3.9798,-3.9697,-3.9697,-3.9697,-3.9697,-3.9697,-3.9471,-3.907,-3.9045,-3.8492,-3.7462,-3.7914,-3.809,-3.799,-3.7538,-3.7262,-3.7186,-3.7186,-3.6634,-3.5633,0.0,-3.5357,-3.4926,-3.4299,-3.4022,-3.3972,-3.3319,-3.3111,-3.281,-3.0508,-2.9555,-2.9074,-2.6791,-2.5868,-2.5693,-2.5693,-2.5693,-2.5693,-2.5693,-2.5693,-2.5771,-2.6159,-2.7458,-2.8852,-2.9432,-3.0057,-3.0482,-3.0482,-2.9267,-2.7921,-2.7292,-2.5912,-2.4467,-2.3299,-2.3101,-2.2731,-2.1525,-2.1302,-2.1302,-2.1302,-2.1302,-2.1747,-2.295,-2.3101,-2.2731,-2.1702,-2.1569,-2.1168,-2.0133,-2.0989,-2.1123,-2.0133,-2.1943,-2.2906,-2.2539,-2.2519,-2.2068,-2.121,-2.1132,-2.0937,-2.0605,-2.0605,-2.0605,-2.0566,-1.9687,-1.9726,-2.7102,-2.8021,-2.8624,-2.7595,-2.8526,-2.9318,-2.8174,-2.8239,0.0,0.0,0.0,0.0,0.0,0.0,0.0,0.0,0.0,0.0,0.0,0.0,0.0,0.0,0.0,-3.9823,-3.9371,-3.9546,-3.9697,-3.9697,-3.9421,-3.9371,-3.9672,-3.912,-3.8818,-3.8919,-3.8567,-3.8015,-3.7186,-3.7437,-3.7412,-3.7111,-3.6908,-3.6782,-3.6782,-3.6782,-3.6307,-3.5508,0.0,-3.5182,-3.4675,-3.4123,-3.3897,-3.3847,-3.3294,-3.3111,-3.281,-3.0328,-2.9004,-2.8168,-2.6332,-2.6159,-2.662,-2.5917,-2.5693,-2.5693,-2.5693,-2.5693,-2.5693,-2.5693,-2.6423,-2.7365,-2.7922,-2.8222,-2.8437,-2.8657,-2.7483,-2.6257,-2.5997,-2.4869,-2.3714,-2.3212,-2.3101,-2.2731,-2.1525,-2.1302,-2.1302,-2.1302,-2.1302,-2.1747,-2.295,-2.2536,-2.1898,-2.1346,-2.0702,-2.007,-1.9542,-1.9997,-2.0342,-2.0477,-2.1525,-2.2045,-2.1858,-2.2274,-2.2324,-2.1892,-2.1424,-2.1093,-2.0918,-2.0723,-2.0605,-2.0605,-2.0079,-1.9805,-2.7002,-2.7745,-2.8473,-2.8323,-2.9277,-2.998,-2.9076,-2.8775,0.0,0.0,0.0,0.0,0.0,0.0,0.0,0.0,0.0,0.0,0.0,-3.7965,-3.8291,-3.9145,-3.9245,-3.9371,-3.9672,-3.9697,-3.9647,-3.9521,-3.912,-3.8994,-3.9295,-3.8467,-3.814,-3.8467,-3.804,-3.7538,-3.6985,-3.6985,-3.6832,-3.6405,-3.6405,-3.6405,-3.6405,-3.6405,-3.5981,-3.5307,-3.5307,-3.4931,-3.4299,-3.3872,-3.3696,-3.3671,-3.3244,-3.2939,-3.2438,-3.0508,-2.905,-2.7861,-2.6887,-2.722,-2.7861,-2.6887,-2.638,-2.6207,-2.6476,-2.638,-2.6139,-2.602,-2.6058,-2.6277,-2.6795,-2.6715,-2.6655,-2.7182,-2.6059,-2.4787,-2.4787,-2.393,-2.3101,-2.3101,-2.3101,-2.2818,-2.1898,-2.148,-2.1391,-2.1658,-2.148,-2.1614,-2.2536,-2.1854,-2.106,-2.0522,-1.9633,-1.9085,-1.9085,-1.881,-1.9177,-2.0387,-2.0702,-2.1033,-2.1302,-2.1864,-2.2298,-2.2519,-2.1834,-2.1405,-2.119,-2.0898,-2.0703,-2.0605,-2.0333,-1.9923,-2.8473,-2.9202,-2.9553,-2.8963,-2.8913,-2.9389,-3.0834,-3.0783,0.0,-3.1662,0.0,0.0,0.0,0.0,0.0,0.0,0.0,0.0,-4.0124,0.0,-4.03,-4.04,-4.04,-4.0199,-3.9747,-3.9697,-3.9471,-3.902,-3.8944,-3.8642,-3.814,-3.804,-3.7789,-3.7312,-3.7262,-3.6985,-3.648,-3.6455,-3.6455,-3.6405,-3.6405,-3.6405,-3.6405,-3.6405,-3.578,-3.4776,-3.4776,-3.4173,-3.3194,-3.3144,-3.3187,-3.3144,-3.3136,-3.237,-3.1311,-3.1134,-3.0305,-2.9258,-2.9189,-2.9189,-2.9258,-2.9189,-2.8355,-2.7673,-2.8819,-2.8355,-2.7353,-2.6936,-2.6571,-2.6485,-2.7393,-2.7053,-2.6771,-2.777,-2.6378,-2.4787,-2.4787,-2.393,-2.3101,-2.3101,-2.3101,-2.3057,-2.2994,-2.2031,-2.1658,-2.2818,-2.2031,-2.1346,-2.1436,-2.1346,-2.0432,-1.818,-1.787,-1.7824,-1.7824,-1.6763,-1.6622,-1.787,-1.8993,-2.0116,-2.1239,-2.1355,-2.172,-2.2477,-2.2461,-2.2031,-2.119,-2.1171,-2.0977,-2.0566,-1.9569,-1.9608,-2.7795,-2.8825,-2.9654,-2.9038,-2.9916,0.0,0.0,-3.1788,-3.2365,-3.3119,-3.3972,0.0,0.0,0.0,0.0,0.0,0.0,-3.9145,-3.9898,-3.9998,-3.9998,-3.9998,-3.9998,-3.9923,-3.9722,-3.9371,-3.9094,-3.8944,-3.8216,-3.7889,-3.799,-3.7362,-3.7036,-3.7186,-3.6908,-3.6631,-3.6405,-3.6031,-3.6031,-3.6405,-3.6405,-3.6405,-3.6405,-3.6006,-3.5429,-3.4655,-3.4349,-3.3771,-3.3111,-3.3111,-3.3111,-3.3111,-3.3111,-3.2326,-3.1223,-3.1223,-3.0911,-3.0395,-2.967,-2.9897,-3.0395,-2.9624,-2.9096,-2.8819,-2.9258,-2.8324,-2.7117,-2.6949,-2.5863,-2.5056,-2.6377,-2.6087,-2.5611,-2.6253,-2.5593,-2.4617,-2.3887,-2.3387,-2.3101,-2.3101,-2.3101,-2.3101,-2.3101,-2.2731,-2.258,-2.3038,-2.2731,-2.2164,-2.1391,-2.0612,-1.9542,-1.787,-1.6998,-1.6527,-1.6527,-1.6055,-1.6008,-1.648,-1.7684,-1.8902,-2.0116,-2.0881,-2.1452,-2.1764,-2.2231,-2.1943,-2.0885,-2.1368,-2.1406,-2.0996,-2.0847,-2.0394,-2.7344,-2.8247,-2.9176,-2.8775,0.0,0.0,-3.2365,-3.3319,-3.4424,-3.5504,-3.5755,0.0,0.0,0.0,0.0,0.0,-3.8517,-3.927,-3.9647,-3.9697,-3.9697,-3.9697,-3.9546,-3.9421,-3.9421,-3.8919,-3.8517,-3.8391,-3.7613,-3.7287,-3.7487,-3.6832,-3.6581,-3.6958,-3.6383,-3.6107,-3.6107,-3.5554,-3.5479,-3.583,-3.583,-3.5931,-3.6081,-3.5683,-3.5107,-3.4449,-3.4073,-3.3596,-3.3111,-3.3111,-3.3111,-3.3111,-3.3111,-3.2568,-3.1821,-3.1821,-3.1821,-3.1665,-3.0634,-3.0947,-3.1621,-3.0634,-3.0144,-2.9943,-2.9943,-2.8787,-2.7393,-2.6834,-2.5571,-2.4593,-2.5446,-2.4987,-2.4487,-2.5508,-2.4996,-2.4039,-2.3256,-2.3101,-2.3101,-2.3101,-2.3101,-2.3101,-2.3101,-2.3101,-2.3101,-2.3101,-2.3101,-2.2668,-2.148,-2.0268,-1.8856,-1.7264,-1.6339,-1.5784,-1.5784,-1.5784,-1.5784,-1.5784,-1.6622,-1.7638,-1.8856,-1.9724,-2.0342,-2.0702,-2.1269,-2.1261,-2.0706,-2.124,-2.1505,-2.1445,-2.1738,-2.1176,-2.7444,-2.7695,-2.8122,0.0,0.0,0.0,-3.4223,-3.5604,-3.7036,-3.9245,-3.7914,-3.643,-3.643,0.0,0.0,-3.7111,-3.8592,-3.9697,-3.9697,-3.9697,-3.9697,-3.9697,-3.9195,-3.8919,-3.8919,-3.8341,-3.7764,-3.7236,-3.7186,-3.6935,-3.643,-3.6405,-3.638,-3.638,-3.5805,-3.5483,-3.5483,-3.4956,-3.468,-3.468,-3.468,-3.4956,-3.5483,-3.5483,-3.4881,-3.3897,-3.3872,-3.3571,-3.3068,-3.3068,-3.3111,-3.3111,-3.3111,-3.3111,-3.3111,-3.3111,-3.3111,-3.2993,-3.2416,-3.2591,-3.2993,-3.2416,-3.173,-3.1223,-3.1223,-3.0047,-2.8433,-2.6747,-2.5969,-2.5441,-2.4956,-2.3973,-2.3671,-2.5944,-2.4766,-2.3101,-2.3101,-2.3101,-2.3101,-2.3101,-2.3101,-2.3101,-2.3101,-2.3101,-2.3101,-2.3101,-2.3101,-2.2624,-2.1436,-2.0251,-1.8534,-1.6055,-1.5832,-1.5784,-1.5784,-1.5784,-1.5784,-1.5784,-1.5784,-1.6386,-1.7638,-1.7684,-1.8272,-1.9451,-1.9497,-1.99,-2.0681,-2.0681,-2.1102,-2.1894,-2.1894,-2.1894,-2.7444,-2.8273,0.0,-2.9302,0.0,0.0,0.0,-3.6179,0.0,0.0,-3.8868,-3.8064,-3.7588,0.0,0.0,-3.7739,-3.8517,-3.9245,-3.9647,-3.9371,-3.912,-3.912,-3.8617,-3.8266,-3.8266,-3.7764,-3.7362,-3.7186,-3.6458,-3.5909,-3.5805,-3.5429,-3.5203,-3.5203,-3.5052,-3.4931,-3.4931,-3.4424,-3.4349,-3.468,-3.3947,-3.4048,-3.4881,-3.4173,-3.3621,-3.3269,-3.2491,-3.2039,-3.1888,-3.1888,-3.2365,-3.3086,-3.2616,-3.2717,-3.3111,-3.3111,-3.3111,-3.2993,-3.2416,-3.2591,-3.2993,-3.2416,-3.2062,-3.1736,-3.1004,-2.9369,-2.7496,-2.6149,-2.4851,-2.4005,-2.4616,-2.3973,-2.3474,-2.4957,-2.4787,-2.4082,-2.3256,-2.3101,-2.3101,-2.3101,-2.3101,-2.3101,-2.3101,-2.2403,-2.212,-2.295,-2.2403,-2.1702,-2.1346,-1.9497,-1.7948,-1.7217,-1.6339,-1.5784,-1.5784,-1.5784,-1.5784,-1.5784,-1.5784,-1.6386,-1.7638,-1.7684,-1.787,-1.8226,-1.9085,-1.9219,-1.8575,-2.0276,-2.1098,-2.1077,-2.2231,-2.2441,-2.7645,-2.8524,0.0,-3.0532,-3.2767,-3.5127,-3.6659,0.0,0.0,0.0,0.0,-3.8768,-3.8417,-3.799,0.0,-3.7965,-3.8492,-3.8919,-3.9019,-3.8944,-3.8844,-3.8542,-3.8015,-3.7688,-3.7688,-3.6985,-3.6533,-3.6533,-3.5683,-3.5182,-3.5182,-3.4856,-3.468,-3.468,-3.45,-3.4399,-3.4399,-3.3847,-3.3621,-3.3721,-3.3043,-3.2968,-3.337,-3.2943,-3.2616,-3.2365,-3.1687,-3.1512,-3.1712,-3.1712,-3.224,-3.3043,-3.2692,-3.2767,-3.3111,-3.3111,-3.3111,-3.2968,-3.2164,-3.2265,-3.2591,-3.1838,-3.1423,-3.1003,-2.9871,-2.8173,-2.6389,-2.5238,-2.4011,-2.3256,-2.3973,-2.3584,-2.3387,-2.4532,-2.4447,-2.393,-2.3256,-2.3101,-2.3101,-2.3101,-2.3101,-2.3101,-2.3101,-2.212,-2.1569,-2.2271,-2.1747,-2.1302,-2.1302,-1.9633,-1.8226,-1.7731,-1.6574,-1.5784,-1.5784,-1.5784,-1.5784,-1.5784,-1.5784,-1.615,-1.6904,-1.6951,-1.6951,-1.6951,-1.7669,-1.7902,-1.7684,-1.9177,-2.0238,-2.0959,-2.1919,-2.2375,-2.7946,0.0,0.0,-3.1813,-3.3746,0.0,-3.7688,-3.9295,-4.0375,-4.0375,0.0,-3.9045,-3.8944,-3.8015,-3.7487,-3.7939,-3.8442,-3.8617,-3.809,-3.8417,-3.8517,-3.799,-3.7412,-3.7036,-3.7036,-3.6081,-3.5433,-3.5433,-3.4906,-3.4625,-3.4575,-3.4525,-3.4474,-3.4424,-3.3972,-3.3721,-3.3671,-3.3269,-3.2767,-3.2139,-3.2139,-3.1863,-3.1336,-3.1838,-3.1763,-3.1235,-3.1235,-3.1562,-3.2064,-3.2014,-3.2365,-3.296,-3.2867,-3.2918,-3.2993,-3.2993,-3.3043,-3.296,-3.1788,-3.1763,-3.1997,-3.0838,-3.0139,-2.9479,-2.8109,-2.6693,-2.5286,-2.4068,-2.3437,-2.3101,-2.3101,-2.3101,-2.3343,-2.4425,-2.3844,-2.3101,-2.3101,-2.3101,-2.3101,-2.3101,-2.3101,-2.3101,-2.3101,-2.2031,-2.115,-2.115,-2.1346,-2.148,-2.148,-2.0387,-1.9177,-1.801,-1.6716,-1.5927,-1.5832,-1.5784,-1.5784,-1.5784,-1.5784,-1.5784,-1.5784,-1.5784,-1.5784,-1.5784,-1.5784,-1.6386,-1.7544,-1.7638,-1.8826,-2.0971,-2.1194,-2.1898,-2.7946,-2.885,0.0,0.0,-3.578,-3.8216,-3.912,-3.927,-3.922,-3.922,-3.9722,-3.9898,-3.907,-3.8718,-3.8391,-3.8065,-3.8115,-3.814,-3.8015,-3.7739,-3.7513,-3.7387,-3.6508,-3.5859,-3.5859,-3.5232,-3.4856,-3.4856,-3.4399,-3.3897,-3.3445,-3.2993,-3.2541,-3.2114,-3.2416,-3.2365,-3.1938,-3.2692,-3.2566,-3.1562,-3.1562,-3.1286,-3.0783,-3.0909,-3.0658,-3.0131,-3.0131,-3.0457,-3.0934,-3.0482,-3.0884,-3.1712,-3.1311,-3.1662,-3.239,-3.239,-3.2692,-3.296,-3.1788,-3.1763,-3.1872,-2.991,-2.921,-2.8704,-2.6692,-2.555,-2.472,-2.3569,-2.3159,-2.3101,-2.3101,-2.3101,-2.3188,-2.343,-2.3256,-2.3101,-2.3101,-2.3101,-2.3101,-2.3101,-2.3101,-2.3101,-2.3101,-2.132,-1.9906,-1.9906,-2.1498,-2.2731,-2.2731,-2.1658,-2.0432,-1.9222,-1.7994,-1.6904,-1.5879,-1.5784,-1.5784,-1.5784,-1.5784,-1.5784,-1.5784,-1.5784,-1.5784,-1.5784,-1.5784,-1.5913,-1.6197,-1.7232,-1.7963,-1.8503,-2.0432,-2.1436,-2.8273,0.0,0.0,-3.465,0.0,-3.8617,-3.917,-3.8868,-3.8467,-3.8467,-3.8919,-3.9145,-3.8567,-3.8241,-3.7965,-3.7663,-3.7613,-3.7513,-3.7262,-3.696,-3.6684,-3.6433,-3.5608,-3.5107,-3.5107,-3.465,-3.4324,-3.4324,-3.3571,-3.2968,-3.2667,-3.2139,-3.1687,-3.1411,-3.1662,-3.1687,-3.1386,-3.1964,-3.1838,-3.1009,-3.1009,-3.0733,-3.0231,-3.0231,-3.0055,-2.9804,-2.9804,-3.0105,-3.0583,-3.0306,-3.0658,-3.1361,-3.1085,-3.1336,-3.1863,-3.2114,-3.224,-3.219,-3.1587,-3.1411,-3.1082,-2.914,-2.8163,-2.7424,-2.5744,-2.4654,-2.3887,-2.3256,-2.3101,-2.3101,-2.3101,-2.3101,-2.3101,-2.3101,-2.3101,-2.3101,-2.3101,-2.3101,-2.3101,-2.3101,-2.3101,-2.3101,-2.3101,-2.1587,-2.0178,-1.9588,-2.1078,-2.2448,-2.3038,-2.2031,-2.0836,-1.9633,-1.8411,-1.7185,-1.5927,-1.5784,-1.5784,-1.5784,-1.5784,-1.5784,-1.5784,-1.5784,-1.5784,-1.5784,-1.5784,-1.5784,-1.5784,-1.648,-1.7404,-1.8596,-1.9844,-2.1078,-2.8348,0.0,-3.2516,-3.6031,-3.7462,0.0,-3.8617,-3.8291,-3.7864,-3.7864,-3.7939,-3.7965,-3.7889,-3.7487,-3.7136,-3.6935,-3.691,-3.6709,-3.6157,-3.6128,-3.5906,-3.5408,-3.4881,-3.455,-3.4449,-3.3947,-3.3571,-3.347,-3.2591,-3.2039,-3.1938,-3.1512,-3.121,-3.111,-3.121,-3.121,-3.111,-3.1311,-3.1085,-3.0482,-3.0482,-3.0231,-2.9804,-2.9804,-2.9804,-2.9804,-2.9804,-3.0055,-3.0482,-3.0482,-3.0733,-3.111,-3.111,-3.116,-3.1311,-3.1763,-3.1712,-3.1386,-3.1286,-3.0984,-3.0308,-2.8634,-2.736,-2.6318,-2.5168,-2.3996,-2.3101,-2.3101,-2.3101,-2.3101,-2.3101,-2.3101,-2.3101,-2.3101,-2.3101,-2.3101,-2.3101,-2.3101,-2.3101,-2.3101,-2.3101,-2.3038,-2.2818,-2.212,-2.1212,-1.9997,-2.0854,-2.1987,-2.295,-2.2208,-2.1168,-1.9951,-1.8902,-1.7809,-1.656,-1.6433,-1.6433,-1.6433,-1.6244,-1.6103,-1.6103,-1.5927,-1.5784,-1.5784,-1.5784,-1.5784,-1.5784,-1.5784,-1.6842,-1.8856,-1.9085,-2.0359,0.0,0.0,-3.3319,0.0,-3.6837,-3.8015,0.0,0.0,-3.7287,0.0,-3.7688,-3.7864,-3.7387,-3.7236,-3.6885,-3.5884,-3.5708,-3.5533,-3.5027,-3.4951,-3.4901,-3.4851,-3.4349,-3.3822,-3.3345,-3.2767,-3.224,-3.1763,-3.1587,-3.1311,-3.0859,-3.0758,-3.0507,-3.003,-3.0457,-3.0482,-3.0005,-3.0934,-3.0884,-2.9905,-2.9905,-2.9854,-2.9804,-2.9804,-2.9804,-2.9804,-2.9804,-2.9829,-2.9905,-2.9905,-2.9955,-3.0005,-3.0005,-3.0306,-3.0733,-3.0809,-3.106,-3.1336,-3.0884,-3.0683,-3.0308,-2.8634,-2.736,-2.6318,-2.5168,-2.3996,-2.3101,-2.3101,-2.3101,-2.3101,-2.3101,-2.3101,-2.3101,-2.3101,-2.3101,-2.3101,-2.3101,-2.3101,-2.3101,-2.3101,-2.3101,-2.2775,-2.1702,-2.2271,-2.2448,-2.1257,-2.2076,-2.2906,-2.3101,-2.295,-2.2403,-2.1212,-2.0926,-2.0342,-1.9131,-1.8993,-1.8993,-1.8993,-1.7994,-1.7451,-1.7451,-1.6386,-1.5784,-1.5784,-1.5784,-1.5784,-1.5784,-1.5784,-1.5961,-1.6339,-1.7451,-1.8688,-2.8222,-2.993,-3.1863,0.0,-3.5629,-3.6332,-3.6935,0.0,-3.6257,-3.6257,-3.6207,-3.6182,-3.6257,-3.6257,-3.6006,-3.5157,-3.5031,-3.4956,-3.4705,-3.4449,-3.4148,-3.3847,-3.3596,-3.3093,-3.2215,-3.219,-3.1989,-3.1436,-3.111,-3.0859,-3.0633,-3.0331,-3.003,-2.9804,-3.003,-3.003,-2.9804,-3.0256,-3.0256,-2.9804,-2.9804,-2.9804,-2.9804,-2.9804,-2.9804,-2.9804,-2.9804,-2.9804,-2.9804,-2.9804,-2.9804,-2.9804,-2.9804,-2.993,-3.0206,-3.0507,-3.0557,-3.0507,-3.0583,-3.0407,-2.9949,-2.8538,-2.7763,-2.7075,-2.5336,-2.4467,-2.393,-2.3256,-2.3101,-2.3101,-2.3101,-2.3101,-2.3101,-2.3101,-2.3101,-2.3101,-2.3101,-2.3101,-2.3101,-2.3101,-2.3101,-2.2731,-2.1525,-2.2315,-2.2687,-2.148,-2.2359,-2.3101,-2.3101,-2.3101,-2.2643,-2.1436,-2.1302,-2.0792,-1.9588,-1.9497,-1.9497,-1.9497,-1.8365,-1.7684,-1.7684,-1.648,-1.5784,-1.5784,-1.5784,-1.5784,-1.5784,-1.5784,-1.615,-1.6904,-1.7451,-1.8365,0.0,0.0,-2.9854,-3.2742,-3.3771,0.0,0.0,0.0,-3.4906,0.0,-3.4801,-3.46,-3.4831,-3.5107,-3.5107,-3.46,-3.4525,-3.4424,-3.4123,-3.3721,-3.3269,-3.2717,-3.2684,-3.2265,-3.1286,-3.1562,-3.1587,-3.1035,-3.0633,-3.0407,-3.0407,-3.0005,-2.9804,-2.9804,-2.9804,-2.9804,-2.9804,-2.9804,-2.9804,-2.9804,-2.9804,-2.9804,-2.9804,-2.9804,-2.9804,-2.9779,-2.9482,-2.9521,-2.9779,-2.9482,-2.9546,-2.9804,-2.9804,-2.9624,-2.9415,-2.9811,-2.9712,-2.9415,-2.9836,-2.987,-2.9663,-2.8806,-2.8347,-2.7763,-2.5839,-2.5041,-2.4532,-2.343,-2.3101,-2.3101,-2.3101,-2.3101,-2.3101,-2.3101,-2.3101,-2.3101,-2.3101,-2.3101,-2.3101,-2.3101,-2.3101,-2.2818,-2.1898,-2.2492,-2.2775,-2.1898,-2.2536,-2.3101,-2.3101,-2.3101,-2.2775,-2.1836,-2.1747,-2.1391,-2.0494,-2.0404,-2.0268,-1.998,-1.881,-1.801,-1.7684,-1.648,-1.5784,-1.5784,-1.5784,-1.5784,-1.5784,-1.5784,-1.6292,-1.7217,-1.7217,-1.7855,0.0,-2.6214,0.0,-2.9603,0.0,0.0,0.0,0.0,0.0,0.0,-3.3972,-3.3796,-3.3294,-3.4048,-3.4575,-3.4022,-3.3947,-3.3571,-3.2491,-3.2315,-3.2089,-3.1537,-3.1486,-3.126,-3.0708,-3.0683,-3.0457,-2.9905,-2.9854,-2.9829,-2.9829,-2.9804,-2.9804,-2.9804,-2.9804,-2.9804,-2.9804,-2.9804,-2.9804,-2.9804,-2.9804,-2.9804,-2.9804,-2.9804,-2.9804,-2.974,-2.8648,-2.8806,-2.9702,-2.8648,-2.8806,-2.9804,-2.9804,-2.9145,-2.8187,-2.8211,-2.8187,-2.8187,-2.8211,-2.891,-2.9804,-2.974,-2.8988,-2.7884,-2.6748,-2.5672,-2.4532,-2.343,-2.3101,-2.3101,-2.3101,-2.3101,-2.3101,-2.3101,-2.3101,-2.3101,-2.3101,-2.3101,-2.3101,-2.3101,-2.3101,-2.3101,-2.3013,-2.3057,-2.3101,-2.3013,-2.3057,-2.3101,-2.3101,-2.3101,-2.3101,-2.2994,-2.2994,-2.2994,-2.2906,-2.2906,-2.2403,-2.1302,-2.007,-1.8902,-1.7731,-1.648,-1.5784,-1.5784,-1.5784,-1.5784,-1.5784,-1.5784,-1.5832,-1.5927,-1.5927,-1.6574,0.0,0.0,0.0,-2.8197,-2.9704,-3.0959,0.0,-3.2416,-3.2591,-3.2767,-3.2541,-3.224,-3.2039,-3.3194,-3.4022,-3.347,-3.3068,-3.2667,-3.2265,-3.1913,-3.1486,-3.0959,-3.1185,-3.1035,-3.0181,-3.0407,-3.0382,-2.9829,-2.9804,-2.9804,-2.9804,-2.9804,-2.9804,-2.9804,-2.9804,-2.9804,-2.9804,-2.9804,-2.9804,-2.9804,-2.9804,-2.9804,-2.9804,-2.9804,-2.9804,-2.974,-2.8585,-2.8767,-2.974,-2.9365,-2.9443,-2.9804,-2.9804,-2.9546,-2.9106,-2.8386,-2.8084,-2.8084,-2.8084,-2.8386,-2.8806,-2.9585,-2.9546,-2.8988,-2.7867,-2.6748,-2.563,-2.451,-2.3671,-2.3101,-2.3101,-2.3101,-2.3101,-2.3101,-2.2492,-2.2164,-2.295,-2.3101,-2.3101,-2.3101,-2.3101,-2.3101,-2.3101,-2.3101,-2.3101,-2.3101,-2.3101,-2.3101,-2.3101,-2.3101,-2.3101,-2.3101,-2.3101,-2.3101,-2.3101,-2.3101,-2.2906,-2.2492,-2.0584,-1.9314,-1.8856,-1.6889,-1.5784,-1.5784,-1.5784,-1.5784,-1.5784,-1.5784,-1.5784,-1.5784,-1.5784,-1.6055,-2.4023,0.0,0.0,0.0,0.0,-2.8775,-3.0231,0.0,-3.0578,-3.0564,-3.0408,-3.0253,-3.0056,-3.1083,-3.2073,-3.2481,-3.219,-3.1863,-3.1712,-3.1361,-3.0934,-3.0407,-3.0658,-3.0583,-2.9854,-3.0131,-3.0181,-2.9829,-2.9804,0.0,-2.9804,-2.9804,-2.9804,-2.9804,-2.9804,-2.9804,-2.9804,-2.9804,-2.9804,-2.9804,-2.9804,-2.9804,-2.9804,-2.9804,-2.9804,-2.974,-2.8988,-2.9106,-2.974,-2.9404,-2.9443,-2.9804,-2.9804,-2.9585,-2.9145,-2.8386,-2.8084,-2.8084,-2.8084,-2.8347,-2.8806,-2.9546,-2.9804,-2.9585,-2.8426,-2.736,-2.6254,-2.5126,-2.3973,-2.3101,-2.3101,-2.3101,-2.3101,-2.3101,-2.2492,-2.212,-2.2906,-2.2775,-2.2643,-2.2994,-2.3101,-2.3101,-2.3101,-2.3101,-2.3101,-2.3101,-2.3101,-2.3101,-2.3101,-2.3101,-2.3101,-2.3101,-2.3101,-2.3101,-2.3101,-2.3101,-2.2906,-2.2536,-2.0629,-1.9314,-1.8902,-1.6889,-1.5784,-1.5784,-1.5784,-1.5784,-1.5784,-1.5784,-1.5784,-1.5784,-1.5784,-1.5784,0.0,0.0,0.0,0.0,0.0,0.0,-2.8286,0.0,-2.7257,-2.7253,-2.768,-2.7881,-2.736,-2.771,-2.8757,-3.0902,-3.1279,-3.1104,-3.0563,-3.0488,-3.0263,-2.9777,-2.9702,-2.974,-2.974,-2.9779,-2.9804,-2.9804,-2.9804,-2.9804,-2.9804,-2.9804,-2.9804,-2.9804,-2.9804,-2.9779,-2.9754,-2.9754,-2.9754,-2.9754,-2.9754,-2.9779,-2.9804,-2.9804,-2.9804,-2.9804,-2.9804,-2.9804,-2.9702,-2.8609,-2.8806,-2.9804,-2.9804,-2.9106,-2.8124,-2.8124,-2.8084,-2.8084,-2.8084,-2.8806,-2.974,-2.9804,-2.9804,-2.9585,-2.8466,-2.736,-2.6276,-2.5168,-2.3996,-2.3101,-2.3101,-2.3101,-2.3101,-2.3101,-2.3057,-2.3057,-2.3101,-2.2164,-2.1658,-2.2862,-2.3101,-2.3101,-2.3101,-2.3101,-2.3101,-2.3101,-2.3101,-2.3101,-2.3101,-2.3101,-2.3101,-2.3101,-2.3101,-2.3101,-2.3101,-2.3101,-2.258,-2.1436,-2.0178,-1.8948,-1.7777,-1.648,-1.5784,-1.5784,-1.5784,-1.5784,-1.5784,-1.5784,-1.5784,-1.5784,-1.5784,-1.5784,-2.3221,0.0,0.0,0.0,0.0,0.0,-2.6289,-2.6615,-2.6621,-2.626,-2.6609,-2.6808,-2.63,-2.6633,-2.7137,-2.7759,-2.8184,-2.837,-2.8254,-2.7864,-2.7586,-2.7447,-2.8108,-2.8569,-2.8569,-2.9326,-2.9804,0.0,-2.9804,-2.9804,-2.9804,-2.9804,-2.9804,-2.9804,-2.9804,-2.9603,-2.9139,-2.9139,-2.9139,-2.9139,-2.9139,-2.9377,-2.9804,-2.9804,-2.9804,-2.9804,-2.9804,-2.9804,-2.9804,-2.9443,-2.9546,-2.9804,-2.9804,-2.9624,-2.9248,-2.8386,-2.8084,-2.8084,-2.8084,-2.8307,-2.8727,-2.9521,-2.9804,-2.974,-2.9443,-2.8011,-2.6442,-2.611,-2.4595,-2.3101,-2.3101,-2.3101,-2.3101,-2.3101,-2.2448,-2.2031,-2.2906,-2.2164,-2.1658,-2.2862,-2.3101,-2.3101,-2.3101,-2.3101,-2.3101,-2.3101,-2.3101,-2.3101,-2.3101,-2.3101,-2.3101,-2.3101,-2.3101,-2.3101,-2.3101,-2.3101,-2.295,-2.2624,-2.0629,-1.936,-1.8993,-1.6936,-1.5784,-1.5784,-1.5784,-1.5784,-1.5784,-1.5784,-1.5784,-1.5784,-1.5784,-1.5784,0.0,0.0,0.0,0.0,0.0,0.0,-2.5109,-2.536,-2.5294,0.0,-2.5099,-2.5178,-2.4327,-2.4556,-2.4786,-2.4634,-2.4955,-2.5678,-2.6802,-2.6704,-2.6524,-2.6524,-2.7035,-2.7441,-2.7441,-2.845,-2.9106,-2.9106,-2.9521,-2.9804,-2.9804,-2.9804,-2.9804,-2.9804,-2.9804,-2.9528,-2.8888,-2.8888,-2.8888,-2.8888,-2.8888,-2.9227,-2.9804,-2.9804,-2.9804,-2.9804,-2.9804,-2.9804,-2.9804,-2.9804,-2.9804,-2.9804,-2.9804,-2.9804,-2.9702,-2.9067,-2.8806,-2.8806,-2.8806,-2.8806,-2.8949,-2.9585,-2.9804,-2.9804,-2.9804,-2.8569,-2.7075,-2.6648,-2.4851,-2.3101,-2.3101,-2.3101,-2.3101,-2.3101,-2.2536,-2.2252,-2.295,-2.2536,-2.2252,-2.295,-2.3101,-2.3101,-2.3101,-2.3101,-2.3101,-2.3101,-2.3101,-2.3101,-2.3101,-2.3101,-2.3101,-2.3101,-2.3101,-2.3101,-2.3101,-2.3101,-2.3101,-2.3101,-2.1302,-2.0251,-2.0251,-1.7902,-1.6574,-1.6574,-1.6069,-1.5784,-1.5784,-1.5784,-1.5784,-1.5784,-1.5784,-1.5784,0.0,0.0,0.0,0.0,-2.4073,0.0,-2.4499,-2.4406,-2.3896,-2.3167,-2.3495,-2.349,-2.2206,-2.2241,-2.2386,-2.1966,-2.2212,-2.3299,-2.5773,-2.611,-2.611,-2.611,-2.6235,-2.6318,-2.6318,-2.7279,-2.7924,-2.7924,-2.8988,-2.9663,-2.9779,-2.9804,-2.9754,-2.9704,-2.9704,-2.9402,-2.8712,-2.8712,-2.8712,-2.8712,-2.8762,-2.9126,-2.9704,-2.9754,-2.9804,-2.9804,-2.9729,-2.9704,-2.9704,-2.9704,-2.9729,-2.9804,-2.9804,-2.9804,-2.9804,-2.9804,-2.9804,-2.9804,-2.9804,-2.9804,-2.9804,-2.9804,-2.9804,-2.9804,-2.9804,-2.8988,-2.7844,-2.6625,-2.4766,-2.3101,-2.3101,-2.3101,-2.3101,-2.3101,-2.3101,-2.3101,-2.3101,-2.3101,-2.3101,-2.3101,-2.3101,-2.3101,-2.3101,-2.3101,-2.3101,-2.3101,-2.3101,-2.3101,-2.3101,-2.3101,-2.3101,-2.3101,-2.3101,-2.3101,-2.3101,-2.3101,-2.3101,-2.3101,-2.1987,-2.1302,-2.1302,-1.9131,-1.7824,-1.7684,-1.6433,-1.5784,-1.5784,-1.5784,-1.5784,-1.5784,-1.5784,-1.5784,0.0,0.0,0.0,0.0,0.0,0.0,-2.4305,-2.4431,-2.4243,0.0,-2.2954,-2.3097,-2.251,-2.245,-2.2356,-2.195,-2.195,-2.2434,-2.3614,-2.3757,-2.3757,-2.3757,-2.4595,-2.5126,-2.5126,-2.613,-2.6812,-2.6812,-2.7827,-2.8806,-2.974,-2.9804,-2.9578,-2.9063,-2.9063,-2.8624,-2.762,-2.7595,-2.7595,-2.762,-2.8047,-2.8549,-2.9063,-2.9578,-2.9804,-2.9754,-2.9302,-2.9063,-2.9063,-2.9063,-2.9377,-2.9804,-2.9804,-2.9804,-2.9804,-2.9804,-2.9804,-2.9804,-2.9804,-2.9804,-2.9804,-2.9804,-2.9804,-2.9804,-2.9804,-2.8988,-2.7683,-2.5692,-2.4125,-2.3101,-2.3101,-2.3101,-2.3101,-2.3101,-2.3101,-2.3101,-2.3101,-2.3101,-2.3101,-2.3101,-2.3101,-2.3101,-2.3101,-2.3101,-2.3101,-2.3101,-2.3101,-2.3101,-2.3101,-2.3101,-2.3101,-2.3101,-2.3101,-2.3101,-2.3101,-2.3101,-2.3101,-2.3101,-2.1987,-2.1302,-2.1302,-1.9906,-1.8688,-1.7731,-1.6433,-1.5784,-1.5784,-1.5784,-1.5784,-1.5784,-1.5784,-1.5784,0.0,0.0,0.0,-2.5134,0.0,0.0,0.0,-2.4406,-2.4204,-2.3406,-2.3174,-2.2999,-2.267,0.0,-2.2446,-2.2323,-2.1873,-2.2046,-2.337,-2.2932,-2.2519,-2.2519,-2.3188,-2.3649,-2.3649,-2.466,-2.5817,-2.6909,-2.7427,-2.8198,-2.9276,-2.9101,-2.8825,-2.8524,-2.8524,-2.8122,-2.7329,-2.7293,-2.7293,-2.7293,-2.757,-2.8122,-2.8888,-2.9189,-2.9352,-2.9352,-2.9352,-2.9051,-2.8512,-2.8286,-2.8658,-2.9377,-2.9679,-2.9804,-2.9804,-2.9804,-2.9804,-2.9804,-2.9804,-2.9804,-2.9804,-2.9804,-2.9804,-2.9804,-2.9804,-2.8988,-2.7763,-2.613,-2.4851,-2.3844,-2.3256,-2.3101,-2.3101,-2.3101,-2.3101,-2.3101,-2.3101,-2.3101,-2.3101,-2.3101,-2.3101,-2.3101,-2.3101,-2.3101,-2.3101,-2.3101,-2.3101,-2.3101,-2.3101,-2.3101,-2.3101,-2.3101,-2.2555,-2.2467,-2.3057,-2.2536,-2.2448,-2.3057,-2.2536,-2.2208,-2.2208,-2.1033,-1.9542,-1.7731,-1.6433,-1.5784,-1.5784,-1.5784,-1.5784,-1.5784,-1.5784,-1.5784,0.0,0.0,0.0,0.0,0.0,-2.5327,0.0,0.0,0.0,0.0,0.0,0.0,0.0,0.0,0.0,0.0,0.0,0.0,0.0,-2.2587,0.0,-2.2124,-2.2261,-2.2394,-2.248,-2.3162,-2.4495,-2.6574,-2.6714,-2.7215,-2.8387,-2.8237,-2.8047,-2.7946,-2.7946,-2.7695,-2.7153,-2.7153,-2.7153,-2.7153,-2.7243,-2.7795,-2.8737,-2.8838,-2.8888,-2.8913,-2.9428,-2.8937,-2.7755,-2.7472,-2.7829,-2.8648,-2.9159,-2.9524,-2.9804,-2.9804,-2.9804,-2.9804,-2.9804,-2.9804,-2.9804,-2.9804,-2.9804,-2.9804,-2.9804,-2.8988,-2.7924,-2.7035,-2.6005,-2.4872,-2.3714,-2.343,-2.3387,-2.3125,-2.3101,-2.3101,-2.3101,-2.3101,-2.3101,-2.3101,-2.3101,-2.3101,-2.3101,-2.3101,-2.3101,-2.3101,-2.3101,-2.3101,-2.3101,-2.3101,-2.3101,-2.3101,-2.2006,-2.1676,-2.2687,-2.1676,-2.148,-2.2687,-2.2775,-2.2862,-2.3101,-2.1721,-2.0025,-1.8102,-1.681,-1.615,-1.615,-1.6386,-1.6292,-1.5784,-1.5784,-1.5784,0.0,0.0,0.0,0.0,-2.7419,0.0,0.0,0.0,-2.5134,-2.4205,0.0,0.0,0.0,0.0,0.0,0.0,0.0,0.0,-2.1553,-2.1724,-2.2164,-2.2895,-2.236,-2.2126,-2.2487,-2.1899,-2.2231,-2.3825,-2.4398,-2.5286,-2.6774,-2.7656,-2.7871,-2.7394,-2.7369,-2.7153,-2.66,-2.6575,-2.6575,-2.66,-2.7077,-2.7595,-2.8222,-2.8662,-2.8888,-2.8888,-2.8963,-2.8124,-2.6699,-2.6723,-2.7009,-2.7478,-2.7666,-2.8611,-2.9804,-2.9804,-2.9804,-2.9804,-2.9804,-2.9804,-2.9804,-2.9804,-2.9804,-2.9804,-2.9804,-2.8988,-2.8084,-2.7964,-2.7157,-2.6047,-2.4914,-2.4617,-2.4339,-2.3343,-2.3101,-2.3101,-2.3101,-2.3101,-2.3101,-2.3101,-2.3101,-2.3101,-2.3101,-2.3101,-2.3101,-2.3101,-2.3101,-2.3101,-2.3101,-2.3101,-2.3101,-2.3101,-2.2031,-2.1346,-2.148,-2.0404,-2.0206,-2.1436,-2.1525,-2.1987,-2.3057,-2.0899,-1.9588,-1.9314,-1.8087,-1.7498,-1.7498,-1.8534,-1.7933,-1.5784,-1.5784,-1.5784,0.0,0.0,0.0,0.0,0.0,0.0,-2.6741,0.0,-2.5385,0.0,0.0,0.0,0.0,0.0,0.0,0.0,-2.2448,0.0,0.0,0.0,-2.2037,0.0,0.0,0.0,-2.1036,-2.0918,-2.1271,-2.2303,-2.2746,-2.3795,-2.5683,-2.6094,-2.6599,-2.7268,-2.7002,-2.6876,-2.6977,-2.665,-2.6499,-2.6499,-2.6725,-2.7128,-2.7645,-2.7871,-2.7971,-2.7996,-2.8323,-2.7691,-2.6431,-2.561,-2.6245,-2.7653,-2.6564,-2.7651,-2.9804,-2.9804,-2.9804,-2.9804,-2.9804,-2.9804,-2.9804,-2.9804,-2.9804,-2.9804,-2.9804,-2.9443,-2.8949,-2.8307,-2.7763,-2.7157,-2.6088,-2.5294,-2.466,-2.4211,-2.3584,-2.3101,-2.3101,-2.3101,-2.3101,-2.3101,-2.3101,-2.3101,-2.3101,-2.3101,-2.3101,-2.3101,-2.3101,-2.3343,-2.3996,-2.4082,-2.4082,-2.4082,-2.3003,-2.2019,-2.1373,-2.0206,-1.9724,-2.0206,-2.0926,-2.1854,-2.3057,-2.1436,-2.0522,-2.0522,-1.936,-1.8734,-1.8734,-1.9268,-1.8948,-1.7933,-1.7933,-1.7933,-2.8624,0.0,0.0,0.0,0.0,0.0,0.0,0.0,0.0,0.0,0.0,0.0,0.0,0.0,0.0,-2.3954,0.0,-2.275,0.0,0.0,0.0,0.0,0.0,0.0,0.0,-2.0426,-2.0633,-2.1271,-2.1544,-2.2513,-2.4472,-2.485,-2.5634,-2.7042,-2.67,-2.6675,-2.7077,-2.67,-2.6499,-2.6499,-2.6499,-2.6776,-2.7293,-2.7293,-2.7293,-2.7318,-2.7871,-2.7401,-2.6167,-2.5312,-2.6089,-2.7742,-2.6394,-2.7463,-2.9804,-2.9804,-2.9804,-2.9804,-2.9804,-2.9804,-2.9804,-2.9804,-2.9804,-2.9804,-2.9804,-2.9804,-2.9624,-2.8806,-2.8569,-2.8307,-2.7197,-2.6337,-2.5525,-2.4957,-2.4168,-2.3474,-2.3169,-2.3101,-2.3101,-2.3101,-2.3101,-2.3101,-2.3101,-2.3101,-2.3101,-2.3101,-2.3101,-2.3517,-2.466,-2.4787,-2.4914,-2.521,-2.3915,-2.2509,-2.1337,-1.9889,-1.9131,-1.9497,-2.0612,-2.1854,-2.3057,-2.1943,-2.1302,-2.1302,-2.0432,-1.998,-1.998,-2.0314,-2.0494,-2.0449,-1.9815,-1.9497,0.0,0.0,0.0,-2.9164,0.0,0.0,0.0,0.0,-2.6917,0.0,0.0,0.0,0.0,0.0,-2.4575,-2.4079,-2.3948,0.0,0.0,0.0,0.0,0.0,0.0,0.0,0.0,-2.0689,-2.0129,0.0,-2.0751,-2.146,-2.2915,-2.4248,-2.5476,-2.649,-2.6499,-2.6499,-2.6524,-2.6499,-2.6499,-2.6499,-2.6499,-2.6776,-2.7293,-2.7293,-2.7293,-2.7318,-2.7871,-2.7164,-2.5667,-2.6277,-2.6838,-2.7338,-2.7377,-2.8421,-2.9804,-2.9804,-2.9804,-2.9804,-2.9804,-2.9804,-2.9804,-2.9804,-2.9804,-2.9804,-2.9804,-2.9804,-2.9779,-2.974,-2.9765,-2.9482,-2.8347,-2.8004,-2.7458,-2.5336,-2.4787,-2.4447,-2.3343,-2.3101,-2.3101,-2.3101,-2.3101,-2.3101,-2.3101,-2.3101,-2.3101,-2.3101,-2.3101,-2.3517,-2.466,-2.4787,-2.521,-2.6359,-2.4385,-2.2471,-2.1228,-1.9037,-1.8272,-1.9451,-2.0612,-2.1854,-2.3057,-2.1943,-2.1302,-2.1302,-2.1239,-2.1239,-2.1239,-2.2403,-2.2994,-2.2906,-2.0584,-1.9497,0.0,0.0,-3.0959,-3.0231,0.0,0.0,0.0,0.0,0.0,0.0,0.0,0.0,0.0,-2.48,-2.4725,-2.4582,-2.423,-2.3929,0.0,0.0,0.0,0.0,0.0,0.0,0.0,0.0,0.0,0.0,-2.0338,-2.1196,-2.2363,-2.3436,-2.5085,-2.7483,-2.6876,-2.6851,-2.7544,-2.6851,-2.6499,-2.6499,-2.6876,-2.6952,-2.6776,-2.7153,-2.7128,-2.6776,-2.6977,-2.6916,-2.6697,-2.6238,-2.6951,-2.827,-2.7734,-2.8421,-2.9804,-2.9804,-2.9804,-2.9804,-2.9804,-2.9804,-2.9804,-2.9804,-2.9804,-2.9804,-2.9804,-2.9804,-2.9804,-2.9804,-2.9804,-2.9702,-2.9326,-2.8688,-2.7924,-2.7174,-2.5859,-2.4702,-2.4296,-2.3627,-2.3101,-2.3101,-2.3714,-2.3996,-2.3212,-2.3714,-2.3973,-2.3212,-2.3101,-2.3517,-2.466,-2.5462,-2.6047,-2.6483,-2.5775,-2.4491,-2.2514,-1.9492,-1.8226,-1.9405,-1.9906,-2.0989,-2.3013,-2.2731,-2.2492,-2.2492,-2.2492,-2.2492,-2.2492,-2.2906,-2.3101,-2.3101,-2.2271,-2.1854,-3.0934,-3.1286,0.0,-3.1035,-3.0633,0.0,-2.9402,0.0,-2.8624,0.0,0.0,0.0,0.0,0.0,-2.541,-2.541,-2.4933,-2.4431,0.0,-2.3678,0.0,0.0,0.0,0.0,0.0,0.0,0.0,-1.9835,-2.0595,-2.1424,0.0,-2.338,-2.5192,-2.7759,-2.7118,-2.7128,-2.7821,-2.7153,-2.67,-2.6499,-2.6851,-2.6826,-2.6499,-2.6876,-2.6826,-2.6499,-2.6499,-2.67,-2.6982,-2.6723,-2.7397,-2.86,-2.8404,-2.8927,-2.9804,-2.9804,-2.9804,-2.9804,-2.9804,-2.9804,-2.9804,-2.9804,-2.9804,-2.9804,-2.9804,-2.9804,-2.9804,-2.9804,-2.9804,-2.9804,-2.9804,-2.9287,-2.8585,-2.8227,-2.6726,-2.5294,-2.4872,-2.393,-2.3212,-2.3627,-2.4296,-2.4702,-2.436,-2.4935,-2.4872,-2.3343,-2.3101,-2.3517,-2.466,-2.542,-2.6213,-2.6994,-2.673,-2.5545,-2.3205,-2.0127,-1.8856,-2.007,-2.0116,-2.1033,-2.3013,-2.3101,-2.3237,-2.3549,-2.3257,-2.3237,-2.3549,-2.3237,-2.3101,-2.3101,-2.3101,-2.3101]},{"header":{"parameterUnit":"m.s-1","parameterCategory":1,"la1":30.6,"la2":29.2853,"lo1":-89.7004,"lo2":-87.6739,"dy":0.0162,"dx":0.0183,"nx":112,"ny":82,"refTime":"2024-05-01T00:00:00:Z","depth":0,"parameterNumber":3,"parameterNumberName":"V-component_of_WINDS"},"data":[0.0,0.0,0.0,0.0,0.0,0.0,0.0,0.0,0.0,0.0,0.0,0.0,0.0,0.0,0.0,0.0,0.0,0.0,0.0,0.0,0.0,0.0,0.0,0.0,0.0,0.0,0.0,0.0,0.0,0.0,0.0,0.0,0.0,0.0,0.0,0.0,0.0,0.0,0.0,0.0,0.0,0.0,0.0,0.0,0.0,0.0,0.0,0.0,0.0,0.0,0.0,0.0,0.0,0.0,0.0,0.0,0.0,0.0,0.0,0.0,0.0,0.0,0.0,0.0,0.0,0.0,0.0,0.0,0.0,0.0,0.0,0.0,0.0,0.0,0.0,0.0,0.0,0.0,0.0,0.0,0.0,0.0,0.0,0.0,0.0,0.0,0.0,0.0,0.0,0.0,1.4858,1.3785,1.421,1.4508,1.4387,1.4609,1.4206,1.2975,0.0,0.0,0.0,0.0,0.0,0.0,0.0,0.0,0.0,0.0,0.0,0.0,0.0,0.0,0.0,0.0,0.0,0.0,0.0,0.0,0.0,0.0,0.0,0.0,0.0,0.0,0.0,0.0,0.0,0.0,0.0,0.0,0.0,0.0,0.0,0.0,0.0,0.0,0.0,0.0,0.0,0.0,0.0,0.0,0.0,0.0,0.0,0.0,0.0,0.0,0.0,0.0,0.0,0.0,0.0,0.0,0.0,0.0,0.0,0.0,0.0,0.0,0.0,0.0,0.0,0.0,0.0,0.0,0.0,0.0,0.0,0.0,0.0,0.0,0.0,0.0,0.0,0.0,0.0,0.0,0.0,0.0,0.0,0.0,0.0,0.0,0.0,0.0,0.0,0.0,0.0,0.0,0.0,0.0,0.0,0.0,0.0,0.0,0.0,0.0,0.0,0.0,0.0,0.0,1.4762,1.4395,1.4387,1.4027,1.3067,1.2499,1.2374,1.2875,0.0,0.0,0.0,0.0,0.0,0.0,0.0,0.0,0.0,0.0,0.0,0.0,0.0,0.0,0.0,0.0,0.0,0.0,0.0,0.0,0.0,0.0,0.0,0.0,0.0,0.0,0.0,0.0,0.0,0.0,0.0,0.0,0.0,0.0,0.0,0.0,0.0,0.0,0.0,0.0,0.0,0.0,0.0,0.0,0.0,0.0,0.0,0.0,0.0,0.0,0.0,0.0,0.0,0.0,0.0,0.0,0.0,0.0,0.0,0.0,0.0,0.0,0.0,0.0,0.0,0.0,0.0,0.0,0.0,0.0,0.0,0.0,0.0,0.0,0.0,0.0,0.0,0.0,0.0,0.0,0.0,0.0,0.0,0.0,0.0,0.0,0.0,0.0,0.0,0.0,0.0,0.0,0.0,0.0,0.0,0.0,0.0,0.0,0.0,0.0,0.0,0.0,0.0,1.5061,1.4883,1.5565,1.4808,1.3879,1.2905,1.2072,1.1782,1.2231,1.2634,0.0,0.0,0.0,0.0,0.0,0.0,0.0,0.0,0.0,0.0,0.0,0.0,0.0,0.0,0.0,0.0,0.0,0.0,0.0,0.0,0.0,0.0,0.0,0.0,0.0,0.0,0.0,0.0,0.0,0.0,0.0,0.0,0.0,0.0,0.0,0.0,0.0,0.0,0.0,0.0,0.0,0.0,0.0,0.0,0.0,0.0,0.0,0.0,0.0,0.0,0.0,0.0,0.0,0.0,0.0,0.0,0.0,0.0,0.0,0.0,0.0,0.0,0.0,0.0,0.0,0.0,0.0,0.0,0.0,0.0,0.0,0.0,0.0,0.0,0.0,0.0,0.0,0.0,0.0,0.0,0.0,0.0,0.0,0.0,0.0,0.0,0.0,0.0,0.0,0.0,0.0,0.0,0.0,0.0,0.0,0.0,0.0,0.0,0.0,0.0,0.0,0.0,1.5776,1.5631,1.6502,1.5677,1.4465,1.304,1.2093,1.1616,1.1684,1.1696,0.0,0.0,0.0,0.0,0.0,0.0,0.0,0.0,0.0,0.0,0.0,0.0,0.0,0.0,0.0,0.0,0.0,0.0,0.0,0.0,0.0,0.0,0.0,0.0,0.0,0.0,0.0,0.0,0.0,0.0,0.0,0.0,0.0,0.0,0.0,0.0,0.0,0.0,0.0,0.0,0.0,0.0,0.0,0.0,0.0,0.0,0.0,0.0,0.0,0.0,0.0,0.0,0.0,0.0,0.0,0.0,0.0,0.0,0.0,0.0,0.0,0.0,0.0,0.0,0.0,0.0,0.0,0.0,0.0,0.0,0.0,0.0,0.0,0.0,0.0,0.0,0.0,0.0,0.0,0.0,0.0,0.0,0.0,0.0,0.0,0.0,0.0,0.0,0.0,0.0,0.0,0.0,0.0,0.0,0.0,0.0,0.0,0.0,0.0,0.0,0.0,0.0,1.6831,1.7449,1.6697,1.7225,1.6342,1.3157,1.2025,1.1561,1.1696,1.1469,0.0,0.0,0.0,0.0,0.0,0.0,0.0,0.0,0.0,0.0,0.0,0.0,0.0,0.0,0.0,0.0,0.0,0.0,0.0,0.0,0.0,0.0,0.0,0.0,0.0,0.0,0.0,0.0,0.0,0.0,0.0,0.0,0.0,0.0,0.0,0.0,0.0,0.0,0.0,0.0,0.0,0.0,0.0,0.0,0.0,0.0,0.0,0.0,0.0,0.0,0.0,0.0,0.0,0.0,0.0,0.0,0.0,0.0,0.0,0.0,0.0,0.0,0.0,0.0,0.0,0.0,0.0,0.0,0.0,0.0,0.0,0.0,0.0,0.0,0.0,0.0,0.0,0.0,0.0,0.0,0.0,0.0,0.0,0.0,0.0,0.0,0.0,0.0,0.0,0.0,0.0,0.0,0.0,0.0,0.0,0.0,0.0,0.0,0.0,0.0,0.0,0.0,1.623,1.696,0.0,1.6978,1.6066,1.4642,1.2999,1.2155,1.2436,0.0,0.0,0.0,0.0,0.0,0.0,0.0,0.0,0.0,0.0,0.0,0.0,0.0,0.0,0.0,0.0,0.0,0.0,0.0,0.0,0.0,0.0,0.0,0.0,0.0,0.0,0.0,0.0,0.0,0.0,0.0,0.0,0.0,0.0,0.0,0.0,0.0,0.0,0.0,0.0,0.0,0.0,0.0,0.0,0.0,0.0,0.0,0.0,0.0,0.0,0.0,0.0,0.0,0.0,0.0,0.0,0.0,0.0,0.0,0.0,0.0,0.0,0.0,0.0,0.0,0.0,0.0,0.0,0.0,0.0,0.0,0.0,0.0,0.0,0.0,0.0,0.0,0.0,0.0,0.0,0.0,0.0,0.0,0.0,0.0,0.0,0.0,0.0,0.0,0.0,0.0,0.0,0.0,0.0,0.0,0.0,0.0,0.0,0.0,0.0,0.0,0.0,1.5245,1.6035,1.7002,0.0,1.7293,1.634,1.5731,1.3838,1.2688,1.2716,0.0,0.0,0.0,0.0,0.0,0.0,0.0,0.0,0.0,0.0,0.0,0.0,0.0,0.0,0.0,0.0,0.0,0.0,0.0,0.0,0.0,0.0,0.0,0.0,0.0,0.0,0.0,0.0,0.0,0.0,0.0,0.0,0.0,0.0,0.0,0.0,0.0,0.0,0.0,0.0,0.0,0.0,0.0,0.0,0.0,0.0,0.0,0.0,0.0,0.0,0.0,0.0,0.0,0.0,0.0,0.0,0.0,0.0,0.0,0.0,0.0,0.0,0.0,0.0,0.0,0.0,0.0,0.0,0.0,0.0,0.0,0.0,0.0,0.0,0.0,0.0,0.0,0.0,0.0,0.0,0.0,0.0,0.0,0.0,0.0,0.0,0.0,0.0,0.0,0.0,0.0,0.0,0.0,0.0,0.0,0.0,0.0,0.0,0.0,0.0,0.0,0.0,1.5264,1.6562,1.7882,1.9147,1.8509,1.7488,1.6217,1.4411,1.3049,0.0,0.0,0.0,0.0,0.0,0.0,0.0,0.0,0.0,0.0,0.0,0.0,0.0,0.0,0.0,0.0,0.0,0.0,0.0,0.0,0.0,0.0,0.0,0.0,0.0,0.0,0.0,0.0,0.0,0.0,0.0,0.0,0.0,0.0,0.0,0.0,0.0,0.0,0.0,0.0,0.0,0.0,0.0,0.0,0.0,0.0,0.0,0.0,0.0,0.0,0.0,0.0,0.0,0.0,0.0,0.0,0.0,0.0,0.0,0.0,0.0,0.0,0.0,0.0,0.0,0.0,0.0,0.0,0.0,0.0,0.0,0.0,0.0,0.0,0.0,0.0,0.0,0.0,0.0,0.0,0.0,0.0,0.0,0.0,0.0,0.0,0.0,0.0,0.0,0.0,0.0,0.0,0.0,0.0,0.0,0.0,0.0,0.0,0.0,0.0,0.0,0.0,0.0,1.4959,1.587,1.6945,1.8124,1.7771,1.7335,1.7113,1.5637,1.4437,1.3837,0.0,0.0,0.0,0.0,0.0,0.0,0.0,0.0,0.0,0.0,0.0,0.0,0.0,0.0,0.0,0.0,0.0,0.0,0.0,0.0,0.0,0.0,0.0,0.0,0.0,0.0,0.0,0.0,0.0,0.0,0.0,0.0,0.0,0.0,0.0,0.0,0.0,0.0,0.0,0.0,0.0,0.0,0.0,0.0,0.0,0.0,0.0,0.0,0.0,0.0,0.0,0.0,0.0,0.0,0.0,0.0,0.0,0.0,0.0,0.0,0.0,0.0,0.0,0.0,0.0,0.0,0.0,0.0,0.0,0.0,0.0,0.0,0.0,0.0,0.0,0.0,0.0,0.0,0.0,0.0,0.0,0.0,0.0,0.0,0.0,0.0,0.0,0.0,0.0,0.0,0.0,0.0,0.0,0.0,0.0,0.0,0.0,0.0,0.0,0.0,0.0,0.0,1.5259,1.6263,1.7429,1.8627,1.8099,1.7678,1.7733,1.6458,1.5331,1.4551,0.0,0.0,0.0,0.0,0.0,0.0,0.0,0.0,0.0,0.0,0.0,0.0,0.0,0.0,0.0,0.0,0.0,0.0,0.0,0.0,0.0,0.0,0.0,0.0,0.0,0.0,0.0,0.0,0.0,0.0,0.0,0.0,0.0,0.0,0.0,0.0,0.0,0.0,0.0,0.0,0.0,0.0,0.0,0.0,0.0,0.0,0.0,0.0,0.0,0.0,0.0,0.0,0.0,0.0,0.0,0.0,0.0,0.0,0.0,0.0,0.0,0.0,0.0,0.0,0.0,0.0,0.0,0.0,0.0,0.0,0.0,0.0,0.0,0.0,0.0,0.0,0.0,0.0,0.0,0.0,0.0,0.0,0.0,0.0,0.0,0.0,0.0,0.0,0.0,0.0,0.0,0.0,0.0,0.0,0.0,0.0,0.0,0.0,0.0,0.0,0.0,0.0,1.5962,1.7284,1.8714,1.9922,1.9034,1.8263,1.813,1.7008,1.5877,1.4857,0.0,0.0,0.0,0.0,0.0,0.0,0.0,0.0,0.0,0.0,0.0,0.0,0.0,0.0,0.0,0.0,0.0,0.0,0.0,0.0,0.0,0.0,0.0,0.0,0.0,0.0,0.0,0.0,0.0,0.0,0.0,0.0,0.0,0.0,0.0,0.0,0.0,0.0,0.0,0.0,0.0,0.0,0.0,0.0,0.0,0.0,0.0,0.0,0.0,0.0,0.0,0.0,0.0,0.0,0.0,0.0,0.0,0.0,0.0,0.0,2.1509,0.0,0.0,0.0,0.0,0.0,0.0,0.0,0.0,0.0,0.0,0.0,0.0,0.0,0.0,0.0,0.0,0.0,0.0,0.0,0.0,0.0,0.0,0.0,0.0,0.0,0.0,0.0,0.0,0.0,0.0,0.0,0.0,0.0,0.0,0.0,0.0,0.0,0.0,0.0,0.0,0.0,1.6184,1.7078,1.8084,1.8939,1.879,1.8503,1.8214,1.7549,1.6659,1.5467,1.5002,0.0,0.0,0.0,0.0,0.0,0.0,0.0,0.0,0.0,0.0,0.0,0.0,0.0,0.0,0.0,0.0,0.0,0.0,0.0,0.0,0.0,0.0,0.0,0.0,0.0,0.0,0.0,0.0,0.0,0.0,0.0,0.0,0.0,0.0,0.0,0.0,0.0,0.0,0.0,0.0,0.0,0.0,0.0,0.0,0.0,0.0,0.0,0.0,0.0,0.0,0.0,0.0,0.0,0.0,0.0,0.0,0.0,0.0,0.0,0.0,2.3183,0.0,0.0,0.0,0.0,0.0,0.0,0.0,0.0,0.0,0.0,0.0,0.0,0.0,0.0,0.0,0.0,0.0,0.0,0.0,0.0,0.0,0.0,0.0,0.0,0.0,0.0,0.0,0.0,0.0,0.0,0.0,0.0,0.0,0.0,0.0,0.0,0.0,0.0,0.0,0.0,1.6777,1.7629,1.841,1.8797,1.8848,1.856,1.7879,1.7574,1.7013,1.6088,1.5752,0.0,0.0,0.0,0.0,0.0,0.0,0.0,0.0,0.0,0.0,0.0,0.0,0.0,0.0,0.0,0.0,0.0,0.0,0.0,0.0,0.0,0.0,0.0,0.0,0.0,0.0,0.0,0.0,0.0,0.0,0.0,0.0,0.0,0.0,0.0,0.0,0.0,0.0,0.0,0.0,0.0,0.0,0.0,0.0,0.0,0.0,0.0,0.0,0.0,0.0,0.0,0.0,0.0,2.8033,2.8724,2.931,3.0326,3.0514,2.99,2.8741,2.7343,2.5798,2.4669,0.0,0.0,0.0,0.0,0.0,0.0,0.0,0.0,0.0,0.0,0.0,0.0,0.0,0.0,0.0,0.0,0.0,0.0,0.0,0.0,0.0,0.0,0.0,0.0,2.0245,1.9597,1.7078,0.0,0.0,0.0,0.0,0.0,0.0,0.0,0.0,0.0,0.0,0.0,1.746,1.8437,1.9133,1.9133,1.9133,1.8731,1.7626,1.7549,1.7225,1.6525,1.65,1.6281,0.0,0.0,0.0,0.0,0.0,0.0,0.0,0.0,0.0,0.0,0.0,0.0,0.0,0.0,0.0,0.0,0.0,0.0,0.0,0.0,0.0,0.0,0.0,0.0,0.0,0.0,0.0,0.0,0.0,0.0,0.0,0.0,2.6538,2.7338,0.0,0.0,0.0,0.0,0.0,0.0,0.0,0.0,0.0,0.0,0.0,0.0,0.0,3.1081,3.2143,3.1586,3.1863,3.2985,3.3303,3.3744,3.4272,3.5208,3.5541,3.5422,3.4669,0.0,2.6554,2.6288,0.0,0.0,0.0,0.0,0.0,0.0,0.0,0.0,0.0,0.0,0.0,0.0,0.0,0.0,0.0,0.0,0.0,0.0,0.0,0.0,0.0,0.0,2.3195,2.218,2.2301,2.2272,0.0,1.8398,1.6294,1.6092,1.5272,0.0,0.0,0.0,0.0,0.0,0.0,0.0,1.8084,1.9033,1.9685,1.9685,1.9685,1.9258,1.8179,1.8103,1.7652,1.6575,1.65,1.6479,1.6367,1.6367,0.0,0.0,0.0,0.0,0.0,0.0,0.0,0.0,0.0,0.0,0.0,0.0,0.0,0.0,0.0,0.0,0.0,0.0,0.0,0.0,0.0,0.0,0.0,0.0,0.0,0.0,0.0,0.0,0.0,2.8201,2.8454,2.6413,2.8017,2.8805,0.0,0.0,0.0,0.0,0.0,0.0,0.0,0.0,0.0,3.3743,3.4644,3.5346,3.589,3.5447,3.5471,3.5962,3.6664,3.6882,3.6678,3.7671,3.7734,3.6985,3.6716,3.4691,3.1535,3.0046,2.8626,2.7312,0.0,0.0,0.0,0.0,2.5716,2.5494,2.6126,2.5585,2.4751,2.5271,0.0,0.0,0.0,0.0,0.0,0.0,0.0,2.3393,0.0,0.0,2.5448,2.5578,2.5525,2.522,2.4272,2.2189,1.9828,0.0,1.7054,1.6576,1.5705,0.0,0.0,0.0,0.0,1.7978,1.8556,1.9058,1.9334,1.9334,1.9083,1.8581,1.7802,1.7451,1.7027,1.6525,1.65,1.65,1.65,1.65,1.65,0.0,0.0,0.0,0.0,0.0,0.0,0.0,0.0,0.0,0.0,0.0,0.0,0.0,0.0,0.0,0.0,0.0,0.0,0.0,0.0,0.0,0.0,0.0,0.0,0.0,0.0,0.0,0.0,3.0405,3.086,2.7341,2.9855,3.0848,0.0,0.0,0.0,0.0,0.0,0.0,3.3378,3.5601,3.7227,3.8084,3.8783,3.9188,3.9401,3.8533,3.8308,3.868,3.9029,3.9122,3.8984,3.9469,3.911,3.8153,3.7793,3.7015,3.5786,3.3138,3.1424,3.0192,2.8915,2.8226,2.8026,2.8732,2.8564,2.8111,2.9435,2.9103,2.8075,2.8226,2.7529,2.6414,2.502,0.0,0.0,0.0,0.0,2.5436,2.6638,2.6945,2.7162,2.8155,2.7889,2.7145,2.629,2.5067,2.3088,0.0,1.8895,1.8329,1.6658,0.0,0.0,0.0,0.0,1.8103,1.8907,1.9108,1.9208,1.9208,1.8857,1.8329,1.7652,1.72,1.6801,1.6525,1.65,1.65,1.65,1.65,1.65,1.65,0.0,0.0,0.0,0.0,0.0,0.0,0.0,0.0,0.0,0.0,0.0,0.0,0.0,0.0,0.0,0.0,0.0,0.0,0.0,0.0,0.0,0.0,0.0,0.0,0.0,0.0,0.0,0.0,0.0,3.2863,3.4415,0.0,0.0,0.0,0.0,3.4201,3.6055,3.7694,3.8943,4.0323,4.1675,4.2921,4.2449,4.2481,4.3128,4.091,4.0572,4.2137,4.0521,4.0597,4.2124,4.0935,4.0307,4.0187,3.8901,3.7943,3.7105,3.447,3.3005,3.2228,3.0886,3.0708,3.1188,3.0541,3.0719,3.1071,2.9782,2.9416,2.9636,3.0507,3.0383,2.9508,2.7671,2.6806,0.0,0.0,2.6463,2.6694,2.7883,2.816,2.8266,2.884,2.8309,2.7373,2.6352,2.5762,2.4696,0.0,2.0486,1.9533,1.8909,0.0,1.8683,1.8182,1.8581,1.8933,1.8983,1.9434,1.9761,1.9761,1.9736,1.9309,1.8254,1.8129,1.7629,1.6575,1.65,1.65,1.65,1.65,1.65,1.65,1.65,0.0,0.0,0.0,0.0,0.0,0.0,0.0,0.0,0.0,0.0,0.0,0.0,0.0,0.0,0.0,0.0,0.0,0.0,0.0,0.0,0.0,0.0,0.0,0.0,0.0,0.0,0.0,0.0,3.5107,3.7253,0.0,3.5795,3.7045,3.8033,3.8272,4.0098,4.1406,4.1884,4.3599,4.4766,4.5203,4.5421,4.5237,4.4617,4.3809,4.324,4.2983,4.2356,4.2139,4.2381,4.1482,4.0816,4.0337,3.9439,3.8422,3.7345,3.6387,3.54,3.4382,3.3903,3.3604,3.3454,3.3622,3.3566,3.3423,3.3309,3.3044,3.264,3.2154,3.151,3.0867,3.0221,2.9868,2.974,2.974,2.9748,2.9811,3.0248,3.0338,3.0367,3.057,2.9995,2.9031,2.7738,2.6929,2.5794,2.3548,2.2472,2.1515,2.0288,2.0087,1.9886,1.9309,1.9409,1.9509,1.9509,1.9685,1.9811,1.9811,1.951,1.8983,1.8279,1.7877,1.735,1.655,1.65,1.65,1.65,1.65,1.65,1.65,1.65,1.65,0.0,0.0,0.0,0.0,0.0,0.0,0.0,0.0,0.0,0.0,0.0,0.0,0.0,0.0,0.0,0.0,0.0,0.0,0.0,0.0,0.0,0.0,0.0,0.0,0.0,0.0,3.9518,3.7624,4.0224,4.1153,3.8598,4.0196,4.1414,4.1384,4.32,4.4306,4.4306,4.5771,4.6651,4.6651,4.665,4.6225,4.5339,4.4866,4.4216,4.3319,4.3339,4.312,4.2671,4.2051,4.1354,4.0696,4.0038,3.8871,3.7404,3.7404,3.6656,3.5519,3.5519,3.522,3.4891,3.534,3.522,3.4891,3.534,3.522,3.4651,3.3544,3.2886,3.2467,3.2228,3.2168,3.2168,3.2168,3.2168,3.2108,3.1899,3.1839,3.1721,3.119,3.045,2.949,2.8075,2.7248,2.6259,2.4576,2.3797,2.292,2.1496,2.1245,2.1016,2.0464,2.0363,2.0313,2.0112,2.0087,2.0012,1.9811,1.9484,1.8983,1.8254,1.8028,1.7526,1.655,1.6697,1.6701,1.65,1.65,1.65,1.65,1.65,1.66,1.6798,0.0,0.0,0.0,0.0,0.0,0.0,0.0,0.0,0.0,0.0,0.0,0.0,0.0,0.0,0.0,0.0,0.0,0.0,0.0,0.0,0.0,0.0,0.0,3.6626,4.0576,4.2731,4.0816,4.3419,4.4137,4.0935,4.2372,4.3479,4.3409,4.5203,4.6309,4.6309,4.695,4.7309,4.7309,4.6121,4.5434,4.5376,4.4093,4.3459,4.3401,4.333,4.329,4.326,4.2641,4.2021,4.1354,4.0666,3.926,3.7434,3.7434,3.6656,3.5519,3.5519,3.5519,3.5519,3.5519,3.5519,3.5519,3.5519,3.5519,3.54,3.4711,3.4533,3.4414,3.3754,3.3544,3.3544,3.3544,3.3514,3.3365,3.2677,3.2527,3.2109,3.0655,2.9659,2.8647,2.728,2.6742,2.6206,2.5059,2.4406,2.3678,2.2548,2.2347,2.2146,2.1594,2.1493,0.0,2.0819,2.0745,2.0492,1.9963,1.9862,1.9409,1.8329,1.8707,1.8281,1.66,1.7049,1.7099,1.6525,1.65,1.65,1.65,1.65,1.6798,1.7395,0.0,0.0,0.0,0.0,0.0,0.0,0.0,0.0,0.0,0.0,0.0,0.0,0.0,0.0,0.0,0.0,0.0,0.0,0.0,0.0,0.0,3.7823,4.0038,4.0038,4.2761,4.4736,4.4706,4.6322,4.692,4.5544,4.5903,4.6232,4.6202,4.6711,4.704,4.704,4.7219,4.7309,4.7309,4.6975,4.6326,4.5348,4.4963,4.427,4.3323,4.3279,4.329,4.326,4.2162,4.1602,4.1324,4.0187,3.908,3.8093,3.7614,3.6956,3.6178,3.5699,3.5519,3.5519,3.5519,3.5519,3.5519,3.5519,3.5519,3.5459,3.528,3.522,3.519,3.5011,3.4951,3.4861,3.4352,3.4234,3.3933,3.2796,3.2527,3.2288,3.1367,3.0539,2.9662,2.8624,2.7866,2.6989,2.5643,2.5259,2.4808,2.3728,2.317,2.2694,2.2171,2.1744,0.0,2.2032,2.1303,2.1042,2.1773,2.1381,2.0476,1.8906,1.8907,1.8281,1.66,1.6672,1.6651,1.65,1.65,1.65,1.65,1.65,1.6765,0.0,0.0,0.0,0.0,0.0,0.0,0.0,0.0,0.0,0.0,0.0,0.0,0.0,0.0,0.0,0.0,0.0,0.0,0.0,0.0,0.0,0.0,4.0576,4.2791,4.3359,4.5244,4.6711,4.71,4.8057,4.8327,4.7399,4.7309,4.7309,4.7309,4.7309,4.7309,4.7309,4.7309,4.7309,4.7309,4.7309,4.692,4.6142,4.5873,4.5214,4.4137,4.3828,4.3559,4.326,4.2252,4.1692,4.1324,4.0277,3.929,3.8362,3.7973,3.7285,0.0,0.0,0.0,0.0,0.0,3.5519,3.5424,3.5034,3.5133,3.5424,3.5034,3.5166,3.5519,3.5519,3.5519,3.5429,3.5011,3.4921,3.4651,3.3604,3.3335,3.3064,3.2047,3.1241,3.0459,2.9613,2.8519,2.7466,2.6657,2.6003,0.0,2.4782,2.4029,2.3371,2.3075,2.2814,2.2752,2.2907,2.2616,2.2422,2.261,2.2289,2.1342,1.955,1.9424,0.0,0.0,0.0,1.6773,1.65,1.65,0.0,0.0,0.0,1.7003,1.8046,0.0,0.0,0.0,1.9199,1.8989,0.0,0.0,0.0,0.0,0.0,0.0,0.0,0.0,0.0,0.0,0.0,0.0,0.0,0.0,0.0,0.0,4.316,4.4952,4.6228,4.7491,4.8267,4.8177,4.879,4.87,4.7429,4.7309,4.7309,4.7309,4.7309,4.7309,4.7309,0.0,0.0,0.0,0.0,4.7279,4.7189,4.6621,4.5933,4.5185,4.4586,4.3917,4.326,4.2671,4.2051,4.1354,4.0696,3.9679,3.8512,3.8422,3.7674,3.6507,3.5789,3.5519,3.5519,3.5519,3.5424,3.5198,3.4442,0.0,0.0,3.4442,3.4773,3.5519,3.5519,3.5519,3.5519,3.5519,3.5519,3.534,3.4651,3.4503,3.4135,3.2698,3.1898,3.1217,3.0335,2.9051,2.8046,2.7736,2.6716,2.582,2.572,2.4808,2.4079,2.4004,2.4171,2.4123,2.368,2.415,2.4158,2.3103,0.0,0.0,2.0374,2.0125,1.9365,1.7631,1.737,1.7049,1.6525,1.65,1.65,1.65,1.65,1.7281,1.891,1.9042,1.9947,2.1462,2.0667,2.0267,0.0,0.0,0.0,0.0,0.0,0.0,0.0,0.0,0.0,0.0,0.0,0.0,0.0,0.0,0.0,4.1308,4.3968,4.6218,4.7066,4.7835,4.8087,4.7549,4.8087,4.8177,4.7369,4.7309,4.7309,4.7309,4.7309,4.7309,4.7309,4.7309,4.7309,4.7309,4.7309,4.704,4.6531,4.6339,4.5723,4.4496,0.0,0.0,4.326,4.2671,4.2051,4.1354,4.0696,3.9948,3.917,3.8631,3.7943,3.7105,3.5968,3.5519,3.5519,3.5519,3.5001,3.4409,3.5001,3.4806,3.438,3.5034,3.5359,3.5519,3.5519,3.5519,0.0,3.5519,3.5519,3.534,3.4651,3.4503,3.4291,3.3449,3.315,3.2667,3.1277,3.0734,2.9971,2.8079,2.7492,2.7082,2.6459,2.5385,2.4506,2.4079,2.4171,2.4483,2.4942,2.4836,2.473,2.4937,2.4458,2.3417,2.1509,2.0928,1.9925,1.8245,1.7204,1.6626,1.65,1.65,1.65,1.65,1.65,1.6876,1.7655,1.8623,1.9494,2.0274,2.1043,2.1375,0.0,0.0,0.0,0.0,0.0,0.0,0.0,0.0,0.0,0.0,0.0,3.8105,3.8785,0.0,4.201,4.2699,4.4425,4.5824,4.6212,4.6291,4.6639,4.7662,4.809,4.7896,4.6872,4.7065,4.7309,4.7309,4.7309,4.7309,4.7309,4.7309,4.7309,4.7309,4.7309,4.716,4.68,4.68,4.6142,4.4796,4.4796,4.4287,4.326,4.2671,4.2231,4.1871,4.1175,4.0696,4.0337,3.932,3.8512,3.7793,3.6836,3.6447,3.6417,3.6118,3.5703,3.5184,3.4861,3.4773,3.4773,3.4773,3.51,3.5519,3.5519,3.5519,3.5519,3.5519,3.5519,3.5429,3.507,3.4981,3.4921,3.4592,3.3993,3.3303,3.2517,3.1502,3.0399,2.9247,2.8298,2.7703,2.7769,2.6565,2.546,2.4883,2.507,2.537,2.574,2.6017,2.6125,2.605,2.5438,2.4408,2.2838,2.1298,1.9919,1.8773,1.7837,1.725,1.6948,1.7225,1.7225,1.6948,1.7225,1.7769,1.8654,1.9258,1.9978,2.0826,2.1407,2.1875,0.0,0.0,0.0,0.0,0.0,0.0,0.0,0.0,3.7434,3.8841,4.0041,4.1085,4.1923,4.2553,4.3216,4.3901,4.465,4.5001,4.4802,4.448,4.5045,4.7044,4.7549,4.7272,4.6166,4.6801,4.7309,4.7309,4.7309,4.7309,4.7309,4.7309,4.7309,4.7309,4.7309,4.7309,4.7309,4.7309,4.6711,4.5484,4.5364,4.4676,4.3469,4.2851,4.253,4.2351,4.1572,4.1242,4.1085,3.9918,3.908,3.8542,3.8003,3.7704,3.7524,3.6776,3.6287,3.5844,3.4685,3.4677,3.51,3.4509,3.4839,3.5519,3.5519,3.5519,3.5519,3.5519,3.5519,3.5519,3.5519,3.5519,3.5519,3.5519,3.4592,3.3664,3.3514,3.2046,3.0625,3.0358,2.916,2.8363,2.8907,2.7901,2.678,2.6191,2.6356,2.6543,2.6466,2.7227,2.7495,2.6716,2.6123,2.529,2.3994,2.1828,2.0294,1.9672,1.8866,1.8187,1.773,1.8023,1.8003,1.7574,1.7978,1.869,1.9648,1.9756,2.0282,2.1189,2.1418,2.195,3.2413,3.2807,3.4562,3.8003,3.7614,3.7883,0.0,0.0,4.2961,4.4904,4.5896,4.6061,4.4944,4.5287,4.5231,4.3555,4.4323,4.4752,4.3717,4.3986,4.4223,4.3999,4.5004,4.564,4.5504,4.658,4.7309,4.7309,4.7309,4.7309,4.7309,4.7309,4.7309,4.7309,4.7309,4.7309,4.7309,4.7309,4.695,4.6202,4.5574,4.4915,4.4197,4.3499,4.291,4.2321,4.1055,4.0516,4.0457,3.9738,3.9379,3.929,3.923,3.8811,3.8123,3.6926,3.5558,3.4366,3.5096,3.4839,3.4279,3.51,3.5392,3.5519,3.5519,3.5519,3.5519,3.5519,3.5519,3.5519,3.5519,3.5519,3.5519,3.5519,3.4921,3.4234,3.3634,3.2856,3.1871,3.0565,3.0147,2.9782,2.9129,2.8844,2.8557,2.7989,2.7858,2.769,2.7396,2.8012,2.8008,2.6746,2.6512,2.5966,2.4708,2.3351,2.2278,2.1615,1.9955,1.8956,1.8926,1.8456,1.8179,1.8103,1.8179,1.8276,1.8398,1.8879,1.9181,1.933,2.0386,2.1547,3.5193,3.5805,0.0,0.0,4.0247,4.1773,4.4526,4.5083,4.5502,4.713,4.7658,4.7387,4.5974,4.5901,4.5358,0.0,4.3795,4.3985,4.2855,4.2631,4.2216,4.1364,4.2427,4.3307,4.3615,4.479,4.5395,4.5098,4.6082,4.6501,4.624,4.6931,4.7309,4.7309,4.7309,4.7309,4.7309,4.7309,4.698,4.6279,4.6022,4.5334,4.4317,4.3977,4.3539,4.288,4.2342,4.1893,4.1542,4.0816,4.0337,3.9948,3.9559,3.899,3.8332,3.7793,3.6688,3.5499,3.5926,3.5558,3.4938,3.5359,3.5519,3.5519,3.5519,3.5519,3.5519,3.5519,3.5519,3.5519,3.5519,3.5519,3.5519,3.5519,3.4981,3.4324,3.3634,3.2976,3.2199,3.1191,3.0628,3.0329,3.0419,2.9659,2.9264,3.0013,2.9341,2.8706,2.857,2.8921,2.8693,2.7345,2.6811,2.6057,2.4758,2.3862,2.3241,2.2984,2.1155,2.0104,2.0149,1.9502,1.8982,1.8657,1.8982,1.9133,1.9133,1.9359,1.9484,1.9484,1.9965,2.0721,3.6208,0.0,0.0,3.9534,4.2168,4.4736,4.5274,4.6441,4.7684,4.8865,4.8909,4.8365,4.7185,4.673,4.5902,4.3903,4.3904,4.3609,4.2137,4.1455,4.0701,3.9597,4.0131,4.0835,4.1408,4.3378,4.4308,4.3579,4.5378,4.6181,4.5417,4.6594,4.7309,4.7309,4.7309,4.7309,4.7309,4.7309,4.707,4.6591,4.6369,4.5723,4.4556,4.4197,4.3738,4.329,4.315,4.2791,4.2351,4.1692,4.0995,4.0337,3.9888,3.914,3.8422,3.8601,3.7734,3.6477,3.6477,3.6058,3.5519,3.5519,3.5519,3.5519,3.5519,3.5519,3.5519,3.5519,3.5519,3.5519,3.5519,3.5519,3.5519,3.5519,3.4981,3.4384,3.3873,3.3095,3.2407,3.2108,3.1279,3.0866,3.1632,3.0626,3.0174,3.1545,3.0719,2.9842,2.9639,2.9444,2.8963,2.7974,2.7285,2.6482,2.5501,2.4882,2.4498,2.4498,2.2864,2.1893,2.1939,2.1066,2.0373,1.9991,2.0373,2.0475,2.0296,2.0322,2.0246,2.0067,1.9914,2.0042,3.4231,0.0,3.7601,3.9974,4.2949,4.5783,4.7728,4.9194,5.0255,5.099,5.0614,4.9927,4.9213,4.8546,4.7461,4.5263,4.4967,4.4116,4.1667,4.0824,4.0124,3.9019,3.8441,3.8341,0.0,4.2841,4.484,4.3598,4.5853,4.6712,4.5463,4.6594,4.7309,4.7309,4.7309,4.7309,4.7309,4.7309,4.7309,4.7279,4.6621,4.5963,4.5214,4.3917,4.3319,4.326,4.2671,4.241,4.2351,4.1692,4.0995,4.0397,4.0367,3.9559,3.8482,3.914,3.8153,3.6477,3.6477,3.6058,3.5519,3.5519,3.5519,3.5519,3.5519,3.5519,3.5519,3.5519,3.5519,3.5519,3.5519,3.5519,3.5519,3.5519,3.4981,3.4503,3.4474,3.3425,3.2706,3.3305,3.2378,3.1661,3.2348,3.19,3.1662,3.2348,3.187,3.1213,3.0554,2.9388,2.8607,2.8577,2.7974,2.7555,2.7495,2.6901,2.6518,2.6518,2.5277,2.4586,2.4582,2.3248,2.2511,2.2485,2.2511,2.2194,2.1537,2.1691,2.14,2.0746,2.0093,1.9811,3.3674,0.0,3.9561,4.1894,4.4875,4.7578,4.873,4.9613,5.0136,4.9972,4.9045,4.7926,4.6738,4.6659,4.6002,4.3486,4.4151,4.4064,4.1641,4.1125,4.0375,3.8517,3.8467,0.0,0.0,0.0,0.0,4.1019,4.3671,4.4987,4.4191,4.6166,4.7309,4.7309,4.7309,4.7309,4.7309,4.7309,4.7309,4.7309,4.6172,4.5514,4.5244,4.3888,4.329,4.329,4.312,4.2761,4.2351,4.1692,4.0995,4.0367,3.9918,3.9469,3.911,3.9313,3.8721,3.7674,3.7255,3.6686,3.6088,3.5639,3.5519,3.5519,3.5519,3.5519,3.5519,3.5519,3.5519,3.5519,3.5519,3.5519,3.5519,3.5519,3.534,3.504,3.4623,3.4174,3.3754,3.3544,3.3155,3.2916,3.3125,3.2976,3.2916,3.3125,3.2587,3.1899,3.1241,3.0843,3.0399,2.9918,2.929,2.8564,2.7695,2.6986,2.6602,2.6602,2.5385,2.4867,2.53,2.4012,2.3329,2.3329,2.3329,2.3002,2.2326,2.2376,2.1853,2.0822,2.0938,2.0553,3.5877,3.9029,4.2134,4.3759,4.6417,4.8686,4.891,4.9434,4.9643,4.8745,4.7519,4.6245,4.5098,4.4836,4.4301,4.2767,4.3534,4.371,4.1902,4.1282,4.0439,3.8793,3.8592,3.8492,0.0,0.0,0.0,3.9672,4.2797,4.4347,4.3531,4.5913,4.7309,4.7309,4.7309,4.7309,4.7309,4.7309,4.7309,4.7309,4.6172,4.5544,4.5244,4.4167,4.3529,4.329,4.309,4.288,4.2641,4.1782,4.1145,4.0696,4.0038,3.9619,3.9373,3.9373,3.914,3.8661,3.8003,3.7345,3.6716,3.6058,3.5848,3.5818,3.5579,3.5519,3.5519,3.5519,3.5519,3.5519,3.5519,3.5519,3.5519,3.5519,3.5519,3.537,3.4951,3.4683,3.4444,3.4233,3.3814,3.3574,3.3814,3.3844,3.3754,3.3544,3.3125,3.2617,3.1929,3.1705,3.142,3.0934,3.0551,2.9793,2.8429,2.7923,2.7467,2.6986,2.6194,2.5912,2.6297,2.5254,2.4721,2.4721,2.4721,2.4385,2.3688,2.3713,2.3205,2.218,2.2031,2.1538,4.0376,4.3149,4.5169,4.5512,4.7433,4.912,4.8386,4.87,4.8686,4.7369,4.5992,4.4796,0.0,0.0,4.2574,4.3171,4.3384,4.3245,4.2504,4.1468,4.0525,0.0,0.0,0.0,0.0,0.0,0.0,3.9697,0.0,4.4794,4.3551,4.5913,4.7309,4.7309,4.7309,4.7309,4.7309,4.7309,4.7309,4.7309,4.6651,4.5963,4.5274,4.4616,4.3917,4.326,4.2671,4.2731,4.314,4.1893,4.1392,4.1265,4.0606,3.9978,3.9373,3.9373,3.9373,3.932,3.8661,3.7973,3.7315,3.6686,3.6477,3.6327,3.5699,3.5519,3.5519,3.5519,3.5519,3.5519,3.5519,3.5519,3.5519,3.5519,3.5519,3.5519,3.5519,3.4981,3.4743,3.5434,3.4535,3.3845,3.4444,3.4563,3.4354,3.3694,3.3544,3.3275,3.2587,3.2007,3.1663,3.1668,3.1702,3.1166,2.988,2.9713,2.9132,2.7826,2.772,2.7665,2.7635,2.6916,2.6578,2.6578,2.6578,2.6231,2.5568,2.5618,2.5325,2.4693,2.3356,2.2724,4.2165,4.4918,4.7344,4.7026,4.811,4.9,4.7818,4.689,4.5933,4.4616,4.2521,4.0876,0.0,0.0,0.0,4.2552,4.4604,0.0,4.3985,4.3491,0.0,4.0532,0.0,3.9923,4.0074,3.9722,0.0,0.0,4.2619,4.3834,4.3504,4.5913,4.7309,4.7309,4.7309,4.7309,4.7309,4.7309,4.7309,4.7309,4.6651,4.5963,4.5274,4.4616,4.3917,4.329,4.311,4.291,4.259,4.1752,4.1085,4.0576,3.9918,3.9559,3.9373,3.9373,3.9373,3.9409,3.92,3.8392,3.7315,3.6686,3.6148,3.5729,3.5549,3.5519,3.5519,3.5519,3.5519,3.5519,3.5519,3.5519,3.5519,3.5519,3.5519,3.5519,3.5519,3.537,3.5473,3.6197,3.6045,3.5706,3.5287,3.525,3.519,3.5011,3.4143,3.3275,3.2587,3.285,3.2903,3.2404,3.2802,3.2745,3.1907,3.1373,3.0696,2.9809,2.9321,2.8842,2.8301,2.766,2.7331,2.7331,2.7331,2.698,2.6327,2.6352,2.5776,2.4693,2.4753,2.4261,4.6494,4.8505,4.9791,4.8881,4.8771,4.8267,4.6052,4.5005,4.3748,4.1235,3.9798,0.0,3.7464,0.0,0.0,0.0,0.0,0.0,4.5548,4.4773,4.3826,0.0,4.158,0.0,4.0824,4.0375,4.0275,0.0,4.2778,4.3938,4.3938,4.635,4.7728,4.7728,4.7459,4.7309,4.7309,4.7309,4.7309,4.7309,4.692,4.6232,4.5274,4.4915,4.4227,4.329,0.0,4.2851,4.2701,4.1474,4.0905,4.0726,3.9798,3.9373,3.9373,3.9373,3.9373,3.9379,3.908,3.8482,3.7734,3.7105,3.6447,3.5878,3.5579,3.5519,3.5519,3.5519,3.5519,3.5519,3.5519,3.5519,3.5519,3.5519,3.5519,3.5519,3.5519,3.575,3.6196,3.6964,3.7114,3.6905,3.6102,3.5975,3.5847,3.5554,3.4592,3.3787,3.3424,3.3517,3.3572,3.3495,3.4086,3.4078,3.3136,3.2665,3.1922,3.0587,3.0482,2.9869,2.8542,2.8474,2.8182,2.7615,2.7585,2.7405,2.7046,2.7046,2.6664,2.5957,2.5959,2.5566,5.1458,5.2336,5.2007,5.0554,4.9194,4.7279,4.3958,4.288,4.1564,3.7913,0.0,3.6956,3.4893,3.6088,3.7943,3.9559,0.0,4.4448,4.6745,4.5601,4.4598,4.4863,4.2897,4.1501,4.1501,4.1053,4.0927,4.1351,4.332,4.4511,4.4623,4.6949,4.8237,4.8147,4.7608,4.7309,4.7309,4.7309,4.7309,4.7309,4.7309,4.6591,4.5304,4.5304,4.4586,4.326,4.2731,4.2821,4.314,4.1384,4.0935,4.1265,4.0038,3.9499,3.9373,3.9373,3.9373,3.932,3.8631,3.8332,3.8153,3.7584,3.7045,3.6477,3.5818,3.5639,3.5609,3.5519,3.5519,3.5519,3.5519,3.5519,3.5519,3.5519,3.5519,3.5519,3.5519,3.6165,3.6964,3.7677,3.7879,3.7674,3.6904,3.6661,3.6384,3.5718,3.5082,3.4698,3.4771,3.4162,3.3975,3.4544,3.5191,3.5116,3.3958,3.3879,3.3054,3.1154,3.1555,3.0935,2.8864,2.9315,2.8972,2.764,2.7585,2.7585,2.7585,2.7585,2.7585,2.756,2.6945,2.6657,5.2677,5.3025,5.2576,5.0644,4.8835,4.6591,4.3339,4.0427,0.0,0.0,3.4622,3.3724,3.4384,3.6088,3.8392,4.1392,0.0,0.0,0.0,0.0,4.5191,0.0,0.0,0.0,0.0,0.0,0.0,0.0,4.344,4.4525,4.5112,4.7165,4.8027,4.7489,4.7369,4.7309,4.7309,4.7309,4.7309,4.7309,4.7309,4.6591,4.5304,4.5304,4.4586,4.329,4.317,0.0,4.323,4.2372,4.1811,4.1294,4.0516,3.9888,3.9373,3.9373,3.9373,3.932,3.8631,3.8033,3.7554,3.7434,3.7345,3.7135,3.6507,3.6327,3.6207,3.5669,3.5519,3.5519,3.5519,3.5519,3.5519,3.5519,3.5519,3.5519,3.5519,3.66,3.7616,3.7764,3.8274,3.8469,3.7703,3.7024,3.6569,3.6415,3.5829,3.5635,3.6235,3.5218,3.4472,3.4577,3.5191,3.5509,3.5262,3.5228,3.4835,3.3873,3.3481,3.2304,3.0233,2.9775,2.8972,2.764,2.7585,2.7585,2.7585,2.7585,2.7585,2.7585,2.7458,2.7408,5.4461,5.4221,5.3234,5.1212,4.809,4.4604,4.0978,0.0,0.0,0.0,3.2643,3.2587,3.2886,0.0,0.0,0.0,0.0,0.0,0.0,0.0,0.0,0.0,0.0,0.0,0.0,0.0,0.0,0.0,4.4651,4.5465,4.5796,4.7719,4.8506,4.7848,4.7489,4.6975,4.6299,4.6975,4.6975,4.6299,4.6975,4.68,4.5813,4.5454,4.4766,4.3798,4.3439,4.329,4.323,4.2641,4.2021,4.1324,4.0666,4.0008,3.9373,3.9373,3.9373,3.932,3.8631,3.8422,3.8392,3.8033,3.7255,3.6357,3.6058,3.5968,3.5908,3.5579,3.5519,3.5519,3.5519,3.5519,3.5519,3.5519,3.5782,3.6165,3.66,3.7557,3.8497,3.8914,3.9262,3.9262,3.8497,3.8044,3.7671,3.7263,3.6949,3.6864,3.7242,3.6675,3.628,3.631,3.6272,3.6231,3.6231,3.5836,3.5318,3.4539,3.46,3.3692,3.1619,3.095,3.0009,2.8645,2.7966,2.7585,2.7585,2.7585,2.7585,2.7585,2.7585,2.7585,5.5658,5.4999,5.3484,5.1316,4.7211,4.266,3.8621,3.5439,0.0,0.0,3.0955,3.1659,3.1511,0.0,3.51,0.0,0.0,0.0,0.0,0.0,0.0,0.0,0.0,0.0,0.0,0.0,0.0,0.0,4.598,4.6412,4.6712,4.8372,4.9,4.8297,4.739,4.655,4.5824,4.655,4.655,4.5824,4.6814,4.695,4.6249,4.5603,4.4945,4.4287,4.3589,4.329,4.326,4.2791,4.2231,4.1572,4.0876,4.0217,3.9619,3.9433,3.9373,3.932,3.8631,3.8751,3.908,3.8392,3.7345,3.6297,3.5998,3.5908,3.5848,3.5579,3.5519,3.5519,3.5519,3.5519,3.5519,3.5519,3.607,3.6813,3.7648,3.8386,3.9156,3.9952,4.0113,3.9901,3.9262,3.9016,3.8718,3.8104,3.8051,3.8023,3.8044,3.819,3.8335,3.8381,3.755,3.6965,3.6829,3.6231,3.5554,3.4776,3.5261,3.4734,3.2838,3.228,3.1414,3.0064,2.8849,2.8216,2.8216,2.8069,2.7978,2.7978,2.786,2.7785,5.5089,5.4311,5.2692,5.0096,4.6198,4.183,3.7382,0.0,0.0,2.9663,2.9163,2.9475,3.1182,3.172,3.3065,3.6716,3.7973,3.9691,0.0,0.0,0.0,0.0,0.0,0.0,0.0,0.0,0.0,0.0,4.6542,4.6811,4.7969,4.882,4.9,4.8297,4.6533,4.6077,4.7106,4.6121,4.6121,4.7106,4.7266,4.695,4.6249,4.5603,4.4945,4.4287,4.3589,4.329,0.0,4.323,4.2851,4.2231,4.1602,4.0876,4.0247,3.9649,3.9373,3.932,3.8631,3.8422,3.8362,3.7704,3.8212,3.8841,3.7614,3.7225,3.6985,3.5818,3.5519,3.5519,3.5519,3.5519,3.5519,3.5519,3.607,3.6813,3.7648,3.8386,3.9156,3.9952,4.0113,4.0087,3.9978,3.9368,3.8881,3.8799,3.8799,3.8794,3.8782,3.9458,3.9902,3.991,3.8633,3.7516,3.6863,3.6728,3.6332,3.5532,3.5566,3.497,3.3555,3.3452,3.2765,3.1446,3.0639,3.0241,3.0241,2.9557,2.9225,2.9225,2.8677,2.8415,5.4581,5.4124,5.2471,4.9927,4.4959,3.9924,3.6902,0.0,2.9698,2.986,2.9514,2.9684,3.1212,3.1511,3.2288,3.4681,3.4951,3.628,0.0,0.0,0.0,0.0,0.0,0.0,0.0,0.0,0.0,4.7773,4.6488,4.5906,4.6399,4.6414,4.7172,4.8865,4.589,4.4489,4.5024,4.5252,4.5252,4.5024,4.6594,4.695,4.6249,4.5603,4.4945,4.4287,4.3589,4.329,0.0,4.329,4.2701,4.1782,4.1512,4.0726,3.9768,3.9529,3.9373,3.9343,3.911,3.902,3.896,3.8691,3.8955,3.9074,3.7375,3.6866,3.6656,3.5759,3.5519,3.5519,3.5519,3.5519,3.5519,3.5519,3.6415,3.7411,3.7735,3.8778,3.9714,4.0062,4.0113,4.0113,4.0113,3.985,3.961,3.961,3.961,3.961,3.961,3.9901,4.0113,4.0113,3.9174,3.8261,3.7516,3.7066,3.6468,3.5633,3.56,3.5374,3.4834,3.4047,3.3152,3.2154,3.1062,3.0284,2.9845,2.9534,2.9406,2.9384,2.9157,2.9042,5.2259,5.2522,5.1506,4.8594,4.3622,3.8809,0.0,3.2415,2.9516,2.9916,2.9779,2.9924,3.1002,3.1361,3.1929,3.3275,3.3455,3.4801,3.8805,0.0,0.0,0.0,0.0,0.0,0.0,0.0,0.0,4.8,4.6167,4.5072,4.5072,4.3786,4.4753,4.8308,4.4865,4.3504,4.4581,4.4794,4.4794,4.4627,4.6432,4.695,4.6249,4.5603,4.4945,4.4287,4.3589,4.329,0.0,4.329,4.2671,4.1692,4.1482,4.0696,3.9679,3.9463,3.9373,3.9373,3.9373,3.9589,3.9737,3.9481,3.9737,3.9791,3.7695,3.7045,3.6866,3.6028,3.5639,3.5519,3.5519,3.5519,3.5519,3.5519,3.6692,3.7793,3.7793,3.8995,4.0113,4.0113,4.0113,4.0113,4.0113,4.0113,4.0113,4.0113,4.0113,4.0113,4.0113,4.0113,4.0113,4.0113,3.9639,3.9005,3.8294,3.755,3.6772,3.5994,3.5735,3.56,3.56,3.4666,3.3927,3.3428,3.2262,3.1316,3.0587,3.0359,3.0163,2.9913,2.9739,2.9563,4.7456,4.8729,4.9301,4.5412,4.2133,3.8906,0.0,3.2636,3.0752,2.9548,2.9456,2.9774,3.0402,3.1032,3.1929,3.3275,3.4622,3.6387,3.9014,0.0,0.0,0.0,0.0,0.0,0.0,0.0,0.0,4.7536,4.5616,0.0,4.4512,4.1483,4.1781,4.6293,4.3279,4.3456,4.7222,4.4794,4.4794,4.7266,4.7309,4.695,4.6249,4.5603,4.4945,4.4287,4.3589,4.329,0.0,4.329,4.294,4.2321,4.1662,4.0965,4.0307,3.9612,3.9373,3.9373,3.9373,3.9955,4.0519,3.9666,4.0585,4.1531,3.9135,3.8362,3.8093,3.6836,3.5998,3.5519,3.5519,3.5519,3.5519,3.5519,3.6692,3.7793,3.7793,3.8995,4.0113,4.0113,4.0113,4.0113,4.0113,4.0113,4.0113,4.0113,4.0113,4.0113,4.0113,4.0113,4.0113,4.0113,4.0079,3.9808,3.9039,3.8294,3.7584,3.6829,3.6062,3.56,3.56,3.56,3.5566,3.5566,3.4822,3.4078,3.3368,3.2645,3.1901,3.1171,3.0559,2.9957,4.4152,4.4938,4.4664,4.1779,3.9391,3.6866,3.3668,3.1528,3.0147,3.0004,2.9697,2.9781,3.0976,3.1361,3.2079,3.3873,3.4563,3.5429,0.0,0.0,0.0,0.0,0.0,0.0,0.0,0.0,4.9328,4.8725,4.5675,4.3827,4.3827,4.1174,4.133,4.5012,4.2819,4.2593,4.4674,4.4794,4.5207,4.6003,4.6887,4.695,4.6249,4.5603,4.4945,4.4287,4.3589,4.329,4.329,4.329,4.2671,4.1722,4.1474,4.0696,3.9709,3.9499,3.9373,3.9481,4.0095,4.0481,4.0758,4.1062,4.1162,4.0966,4.0204,3.9665,3.8886,3.7037,3.6327,3.6058,3.5639,3.5519,3.5519,3.5519,3.6259,3.7114,3.7706,3.858,3.942,3.9978,4.0113,4.0113,4.0113,4.0113,4.0113,4.0113,4.0113,4.0113,4.0113,4.0113,4.0113,4.0113,4.0113,3.9808,3.9039,3.8768,3.8125,3.6897,3.6558,3.6163,3.5633,3.56,3.5363,3.4878,3.4607,3.4134,3.3423,3.3186,3.2679,3.1955,3.1234,3.1085,4.0043,4.1587,4.1825,3.935,3.7637,3.5848,3.2983,3.1286,3.033,3.0293,2.9982,3.0045,3.1276,3.172,3.2288,3.3544,3.4174,3.5073,0.0,0.0,0.0,0.0,0.0,0.0,0.0,4.9464,4.9209,4.897,4.5993,4.421,4.421,4.2279,4.2047,4.4056,4.2516,4.2689,4.4932,4.5252,4.5644,4.6121,4.6931,4.683,4.5933,4.5484,4.4796,4.3888,4.3469,4.329,0.0,4.306,4.2342,4.1354,4.1115,4.0367,3.9373,3.9373,3.9625,3.9955,4.0485,4.1131,4.1723,4.1917,4.1626,4.1231,4.156,4.0528,3.894,3.7575,3.6866,3.6387,3.5998,3.5699,3.5519,3.5519,3.607,3.6813,3.7648,3.8386,3.9156,3.9952,4.0113,4.0113,4.0113,4.0113,4.0113,4.0113,4.0113,4.0113,4.0113,4.0113,4.0113,4.0113,4.0113,3.991,3.9445,3.914,3.8599,3.7709,3.7347,3.6874,3.6096,3.6062,3.569,3.4945,3.4912,3.4539,3.3829,3.3558,3.3152,3.2679,3.2239,3.2273,0.0,3.8378,4.0158,3.7621,3.6526,3.5373,3.2687,3.1517,0.0,3.0232,3.0178,3.0478,3.1308,3.1989,3.2497,3.2706,3.3724,0.0,0.0,0.0,0.0,0.0,0.0,0.0,0.0,4.8476,4.9,4.8327,4.6517,4.5389,4.5389,4.421,4.3551,4.3646,4.2496,4.3551,4.7106,4.6018,4.6063,4.7309,4.7249,4.6591,4.5364,4.5304,4.4616,0.0,4.3319,4.329,4.323,4.2641,4.2021,4.1324,4.0666,4.0008,3.9409,3.9481,3.999,4.0724,4.086,4.1949,4.3169,4.2363,4.2077,4.2237,4.2986,4.1085,3.8632,3.8532,3.7627,3.6697,3.654,3.6028,3.5579,3.5579,3.6068,3.6783,3.7682,3.8362,3.9102,3.9927,4.0113,4.0138,4.0129,4.0138,4.0138,4.0129,4.0138,4.0113,4.0113,4.0113,4.0113,4.0113,4.0113,4.0113,4.0113,3.9445,3.9039,3.9005,3.8362,3.7652,3.6931,3.6829,3.6434,3.5701,3.5633,3.5261,3.4573,3.3829,3.3491,3.3491,3.3423,3.3423,3.3262,0.0,3.4938,3.3287,3.3053,3.2592,0.0,2.9498,2.9098,2.8465,0.0,0.0,3.1027,3.1545,3.2407,3.4472,3.4622,3.516,0.0,0.0,0.0,0.0,0.0,0.0,0.0,4.8327,4.8446,4.8297,4.6517,4.5389,4.5389,4.421,4.3929,4.4932,4.4627,4.4932,4.5824,4.6005,4.6469,4.7309,4.68,4.6381,4.6052,4.5544,4.4855,4.4047,4.3499,4.329,4.323,4.2641,4.2021,4.1324,4.0666,4.0008,3.9481,4.0165,4.0519,4.0894,4.2237,4.2956,4.3292,4.3078,4.2986,4.2925,4.2458,4.1789,4.0918,3.9722,3.9185,3.8558,3.6917,3.6357,3.6237,3.6237,3.6012,3.6285,3.8138,3.829,3.8442,3.985,4.0113,4.0229,4.0648,4.0368,4.0254,4.0672,4.0368,4.0113,4.0113,4.0113,4.0113,4.0113,4.0113,4.0113,4.0113,3.9943,3.9605,3.9039,3.8836,3.8396,3.7686,3.71,3.6728,3.6502,3.5904,3.5498,3.5329,3.4607,3.4235,3.4235,3.366,3.3694,3.2019,3.2976,3.3694,3.2677,3.2612,3.2234,3.0097,2.9505,0.0,0.0,0.0,0.0,0.0,0.0,0.0,3.4292,3.4771,0.0,0.0,0.0,0.0,0.0,0.0,0.0,0.0,4.8297,4.8147,4.7848,4.6889,4.6255,4.6255,4.5644,4.5553,4.6255,4.6255,4.6108,4.5815,4.6129,4.6352,4.6381,4.6022,4.5693,4.5394,4.5005,4.4496,4.3798,4.3439,4.329,4.323,4.2312,4.1752,4.1294,4.0337,3.9738,3.9517,4.0378,4.0961,4.1462,4.28,4.3562,4.3919,4.3919,4.3919,4.3798,4.335,4.3199,4.2857,4.1214,3.9997,3.8982,3.7813,3.6778,3.6028,3.6028,3.6021,3.6413,3.8007,3.8338,3.8635,3.9876,4.0113,4.0279,4.0803,4.0672,4.0577,4.0874,4.0672,4.0368,4.0104,4.0113,4.0113,4.0113,4.0113,4.0113,4.0113,4.0113,3.9943,3.9537,3.9478,3.9174,3.843,3.8024,3.7506,3.6829,3.6028,3.56,3.56,3.5194,3.5013,3.5013,3.4607,3.4641,3.175,3.3215,3.4412,3.3425,3.3154,3.2641,3.0739,0.0,0.0,0.0,0.0,0.0,0.0,0.0,0.0,0.0,0.0,0.0,0.0,0.0,0.0,0.0,0.0,0.0,4.8027,4.8087,4.7908,4.7339,4.7309,4.7309,4.7309,4.7309,4.7249,4.716,4.716,4.68,4.598,4.6112,4.5873,4.5304,4.5185,4.4855,4.4317,4.4317,4.3898,4.314,0.0,0.0,4.2901,4.1713,4.1235,4.1115,3.9888,3.9373,3.9517,4.0519,4.1363,4.2109,4.3139,4.3977,4.4615,4.4615,4.4615,4.4615,4.4615,4.4615,4.4298,4.28,4.0769,3.8995,3.8773,3.7168,3.5639,3.5639,3.6131,3.6844,3.7775,3.8451,3.9156,3.9952,4.0113,4.0279,4.0803,4.092,4.092,4.092,4.092,4.0685,4.0154,4.0113,4.0104,4.0204,4.0229,4.0254,4.0353,4.0279,4.0254,4.0343,4.0179,3.9774,3.9039,3.9005,3.8319,3.6829,3.6129,3.5701,3.56,3.56,3.56,3.56,3.5689,3.5689,3.2886,3.4262,3.4771,3.2378,3.1691,3.1319,3.0473,0.0,0.0,0.0,0.0,0.0,0.0,0.0,0.0,0.0,0.0,0.0,0.0,0.0,0.0,0.0,0.0,4.8446,4.68,4.713,4.7429,4.7309,4.7309,4.7309,4.7309,4.7309,4.704,4.6459,4.6429,4.5873,4.4646,4.5185,4.5394,4.5274,4.4736,4.4407,4.4317,4.4317,4.3658,4.256,0.0,4.2231,4.1624,4.0876,4.0546,4.0487,3.9709,3.9373,3.9625,4.1229,4.1917,4.2205,4.3827,4.4468,4.4615,4.4615,4.4615,4.4615,4.4615,4.4615,4.4525,4.4298,4.2485,4.0356,3.9058,3.7534,3.6327,3.6327,3.6466,3.6969,3.835,3.878,3.9156,3.9952,4.0113,4.0279,4.0803,4.092,4.092,4.092,4.092,4.0685,4.0154,4.0113,4.0279,4.0709,4.078,4.099,4.1508,4.1082,4.1013,4.1508,4.0625,3.9774,3.9039,3.9005,3.8319,3.6829,3.6694,3.6265,3.56,3.56,3.56,3.5622,3.6071,3.6049,3.2228,3.3395,3.4113,3.2886,3.3326,3.3726,3.2339,3.1709,0.0,0.0,0.0,0.0,0.0,0.0,0.0,0.0,0.0,0.0,0.0,0.0,0.0,0.0,0.0,4.7459,4.692,4.713,4.7309,4.7309,4.698,4.692,4.7279,4.6621,4.6262,4.6279,4.5963,4.5304,4.4317,4.4616,4.4586,4.4227,4.3888,4.3738,4.3738,4.3738,4.3269,4.241,0.0,4.2021,4.1324,4.0666,4.0397,4.0337,3.9679,3.9373,3.9625,4.1362,4.23,4.2862,4.415,4.4298,4.3977,4.444,4.4615,4.4615,4.4615,4.4615,4.4615,4.4615,4.2907,4.1051,4.0722,3.8933,3.7313,3.7686,3.7828,3.8026,3.8724,3.9226,3.9662,4.0003,4.0113,4.0279,4.0803,4.092,4.092,4.092,4.092,4.0685,4.0154,4.0343,4.0648,4.0897,4.1183,4.1495,4.1789,4.1573,4.1362,4.1296,4.0803,4.0391,4.0048,3.937,3.8667,3.8014,3.7202,3.6626,3.6231,3.5802,3.56,3.56,3.5854,3.6006,3.2108,3.3066,3.3933,3.3754,3.4891,3.5729,3.4651,3.4292,0.0,0.0,0.0,0.0,0.0,0.0,0.0,0.0,0.0,0.0,0.0,4.5244,4.5633,4.6651,4.677,4.692,4.7279,4.7309,4.7249,4.71,4.6621,4.6471,4.683,4.5843,4.5454,4.5843,4.5334,4.4736,4.4077,4.4077,4.3798,4.329,4.329,4.329,4.329,4.329,4.288,4.2171,4.2171,4.1722,4.0876,4.0367,4.0157,4.0127,3.9619,3.9517,3.9879,4.1229,4.2269,4.3108,4.3768,4.3562,4.3108,4.3768,4.4121,4.427,4.4064,4.4121,4.4265,4.4063,4.2627,4.1247,4.1658,3.9794,3.7892,3.8285,3.8634,3.8908,3.8908,3.9532,4.0113,4.0113,4.0113,4.0229,4.0648,4.0827,4.0874,4.0733,4.0827,4.0756,4.0343,4.0672,4.1001,4.1273,4.1746,4.2,4.2,4.2124,4.1958,4.134,4.1183,4.1059,4.092,3.9956,3.9312,3.9005,3.7912,3.7168,3.6795,3.6197,3.5769,3.56,3.5756,3.5941,3.3933,3.4801,3.522,3.4593,3.4533,3.5102,3.6746,3.6686,0.0,3.7734,0.0,0.0,0.0,0.0,0.0,0.0,0.0,0.0,4.7818,0.0,4.8027,4.8147,4.8147,4.7908,4.7369,4.7309,4.704,4.6399,4.6309,4.6052,4.5454,4.5334,4.5035,4.4466,4.4407,4.4077,4.3379,4.3349,4.3349,4.329,4.329,4.329,4.329,4.329,4.2641,4.1444,4.1444,4.0726,3.9559,3.9499,3.9463,3.9499,3.9403,3.9884,4.0622,4.0758,4.133,4.2077,4.2173,4.2173,4.2077,4.2173,4.2738,4.3229,4.2426,4.2738,4.3248,4.2587,4.1708,4.0881,4.0326,3.8996,3.7618,3.6936,3.7847,3.8908,3.8908,3.9532,4.0113,4.0113,4.0113,4.0138,4.0129,4.0577,4.0733,4.0229,4.0577,4.0897,4.085,4.0897,4.1318,4.2442,4.2616,4.2635,4.2635,4.3105,4.316,4.2616,4.2041,4.1473,4.0909,4.0804,4.0212,3.9029,3.8903,3.8159,3.6795,3.6761,3.6332,3.5622,3.6135,3.6114,3.3125,3.4352,3.534,3.4683,3.5731,0.0,0.0,3.7883,3.8571,3.9469,4.0487,0.0,0.0,0.0,0.0,0.0,0.0,4.6651,4.7549,4.7668,4.7668,4.7668,4.7668,4.7578,4.7339,4.692,4.6591,4.6309,4.5544,4.5155,4.5274,4.4526,4.4137,4.4317,4.3888,4.3559,4.329,4.294,4.294,4.329,4.329,4.329,4.329,4.291,4.2222,4.1392,4.0935,4.0247,3.9373,3.9373,3.9373,3.9373,3.9373,3.992,4.069,4.069,4.0927,4.1264,4.1788,4.1626,4.1264,4.182,4.2237,4.2426,4.2077,4.229,4.2565,4.2301,4.1692,4.1088,4.0812,3.9601,3.8511,3.8739,3.8851,3.9016,3.9558,3.9901,4.0113,4.0113,4.0113,4.0113,4.0113,4.0279,4.0319,4.0104,4.0279,4.0504,4.0874,4.1228,4.1789,4.2616,4.3013,4.3196,4.3196,4.3374,4.3391,4.3214,4.2693,4.2083,4.1473,4.1093,4.0665,4.0188,3.9394,3.8884,3.8665,3.7863,3.7077,3.6366,3.7036,3.6886,3.2587,3.3664,3.4771,3.4292,0.0,0.0,3.8571,3.9709,4.1025,4.2312,4.2611,0.0,0.0,0.0,0.0,0.0,4.5903,4.68,4.7249,4.7309,4.7309,4.7309,4.713,4.698,4.698,4.6381,4.5903,4.5651,4.4825,4.4436,4.4676,4.3798,4.3499,4.3947,4.3359,4.303,4.303,4.2372,4.2282,4.2701,4.2701,4.2821,4.3,4.262,4.1931,4.1055,4.0606,4.0038,3.9373,3.9373,3.9373,3.9373,3.9373,3.9773,4.0274,4.0274,4.0274,4.0347,4.0745,4.0606,4.0382,4.0745,4.1206,4.1593,4.1593,4.1691,4.1782,4.1818,4.1322,4.0729,4.0525,3.9891,3.9282,3.9373,3.9331,3.942,3.9978,4.0113,4.0113,4.0113,4.0113,4.0113,4.0113,4.0113,4.0113,4.0113,4.0113,4.0269,4.0827,4.1442,4.2103,4.2865,4.3268,4.3515,4.3515,4.3515,4.3515,4.3515,4.316,4.2713,4.2103,4.1703,4.1362,4.1183,4.032,3.9882,3.9777,3.8917,3.801,3.7144,3.7652,3.7523,3.2706,3.3006,3.3514,0.0,0.0,0.0,4.0786,4.2432,4.4137,4.677,4.5185,4.3319,4.3319,0.0,0.0,4.4227,4.5992,4.7309,4.7309,4.7309,4.7309,4.7309,4.6711,4.6279,4.6279,4.5693,4.5005,4.4377,4.4317,4.4018,4.3319,4.329,4.326,4.326,4.2671,4.2381,4.2381,4.1752,4.1422,4.1422,4.1422,4.1752,4.2381,4.2381,4.1662,4.0397,4.0367,4.0008,3.9409,3.9409,3.9373,3.9373,3.9373,3.9373,3.9373,3.9373,3.9373,3.932,3.8631,3.8841,3.932,3.8631,3.9447,4.069,4.069,4.0792,4.0891,4.0991,4.047,3.9742,3.9078,3.9506,3.9688,3.8193,3.8968,4.0113,4.0113,4.0113,4.0113,4.0113,4.0113,4.0113,4.0113,4.0113,4.0113,4.0113,4.0113,4.0294,4.085,4.1407,4.2246,4.3374,4.3497,4.3515,4.3515,4.3515,4.3515,4.3515,4.3515,4.325,4.2713,4.2693,4.2402,4.1832,4.181,4.1143,3.9834,3.9834,3.917,3.7922,3.7922,3.7922,3.2706,3.3694,0.0,3.4921,0.0,0.0,0.0,4.3021,0.0,0.0,4.6322,4.5263,4.4796,0.0,0.0,4.4975,4.5903,4.677,4.7249,4.692,4.6621,4.6621,4.6022,4.5603,4.5603,4.5005,4.4526,4.4317,4.3449,4.289,4.2671,4.2222,4.1953,4.1953,4.1773,4.1722,4.1722,4.1025,4.0935,4.1422,4.0457,4.0576,4.1662,4.0726,4.0068,3.9649,3.8721,3.8182,3.8003,3.8003,3.8571,3.9343,3.8871,3.899,3.9373,3.9373,3.9373,3.932,3.8631,3.8841,3.932,3.8631,3.8722,3.9191,3.9773,3.969,3.9544,4.0075,4.0159,3.9852,3.9109,3.9506,3.985,3.8799,3.8908,3.9394,3.9978,4.0113,4.0113,4.0113,4.0113,4.0113,4.0113,4.0417,4.0528,4.0154,4.0417,4.0709,4.0897,4.181,4.2541,4.2884,4.3268,4.3515,4.3515,4.3515,4.3515,4.3515,4.3515,4.325,4.2713,4.2693,4.2616,4.2422,4.2,4.181,4.1843,4.1003,4.0101,3.9227,3.9394,3.887,3.2946,3.3993,0.0,3.6387,3.905,4.1863,4.3688,0.0,0.0,0.0,0.0,4.6202,4.5783,4.5274,0.0,4.5244,4.5873,4.6381,4.6501,4.6411,4.619,4.5933,4.5304,4.4915,4.4915,4.4077,4.3539,4.3539,4.262,4.2021,4.2021,4.1632,4.1422,4.1422,4.1115,4.0995,4.0995,4.0337,4.0068,4.0187,3.9379,3.929,3.9768,3.926,3.8871,3.8571,3.7764,3.7554,3.7793,3.7793,3.8422,3.9379,3.896,3.905,3.9373,3.9373,3.9373,3.929,3.8332,3.8452,3.8841,3.7943,3.8034,3.8629,3.9461,3.9497,3.9401,4.0194,4.0258,3.9978,3.9506,3.974,3.9901,3.9069,3.9123,3.9532,3.9978,4.0113,4.0113,4.0113,4.0113,4.0113,4.0113,4.0528,4.078,4.049,4.0685,4.092,4.092,4.1746,4.2422,4.2674,4.3178,4.3515,4.3515,4.3515,4.3515,4.3515,4.3515,4.3339,4.305,4.3032,4.3032,4.3032,4.2657,4.256,4.2693,4.1958,4.1152,4.0262,4.0371,3.9851,3.3305,0.0,0.0,3.7913,4.0217,0.0,4.4915,4.683,4.8117,4.8117,0.0,4.6429,4.6309,4.5304,4.4676,4.5214,4.5813,4.6022,4.5394,4.5783,4.5903,4.5274,4.4586,4.4137,4.4137,4.3,4.2321,4.2321,4.1692,4.1265,4.1205,4.1145,4.1085,4.1025,4.0487,4.0187,4.0127,3.9649,3.905,3.8302,3.8302,3.7973,3.7345,3.7943,3.7853,3.7225,3.7225,3.7614,3.8212,3.8153,3.8571,3.9194,3.917,3.923,3.932,3.932,3.9379,3.9194,3.7883,3.7853,3.8217,3.6997,3.7469,3.868,3.959,3.9855,3.9979,4.086,4.0595,4.0113,4.0113,4.0113,3.9927,3.9183,3.9584,4.0113,4.0113,4.0113,4.0113,4.0113,4.0113,4.0113,4.0113,4.0577,4.0955,4.0955,4.0897,4.0827,4.0827,4.134,4.1958,4.2557,4.3124,4.3463,4.3497,4.3515,4.3515,4.3515,4.3515,4.3515,4.3515,4.3515,4.3515,4.3515,4.3515,4.325,4.2751,4.2713,4.216,4.1047,4.0932,4.0648,3.3305,3.4382,0.0,0.0,4.2641,4.5544,4.6621,4.68,4.6741,4.6741,4.7339,4.7549,4.6459,4.604,4.5753,4.5364,4.5424,4.5454,4.5304,4.4975,4.4706,4.4556,4.3509,4.283,4.283,4.2081,4.1632,4.1632,4.0995,4.0397,3.9858,3.932,3.8781,3.8272,3.8631,3.8571,3.8063,3.896,3.8811,3.7614,3.7614,3.7285,3.6686,3.6836,3.6537,3.5908,3.5908,3.6297,3.6866,3.6327,3.6806,3.7793,3.7315,3.7734,3.8601,3.8601,3.896,3.9194,3.7883,3.7853,3.8322,3.7602,3.7556,3.8091,3.948,3.9532,3.9274,4.0112,4.0214,4.0113,4.0113,4.0113,4.0062,3.9876,3.9978,4.0113,4.0113,4.0113,4.0113,4.0113,4.0113,4.0113,4.0113,4.0955,4.1617,4.1617,4.0861,4.0279,4.0279,4.0733,4.1318,4.1937,4.2521,4.305,4.348,4.3515,4.3515,4.3515,4.3515,4.3515,4.3515,4.3515,4.3515,4.3515,4.3515,4.3426,4.3321,4.292,4.2577,4.2302,4.1318,4.085,3.3694,0.0,0.0,4.1294,0.0,4.6022,4.6681,4.6322,4.5843,4.5843,4.6381,4.6651,4.5963,4.5574,4.5244,4.4885,4.4825,4.4706,4.4407,4.4047,4.3718,4.3419,4.253,4.1931,4.1931,4.1294,4.0905,4.0905,4.0008,3.929,3.8931,3.8302,3.7764,3.7434,3.7734,3.7764,3.7404,3.8093,3.7943,3.6956,3.6956,3.6626,3.6028,3.6028,3.5818,3.5519,3.5519,3.5878,3.6447,3.6118,3.6537,3.7375,3.7045,3.7345,3.7973,3.8272,3.8422,3.8362,3.7644,3.7434,3.7455,3.7214,3.7374,3.7919,3.9079,3.9454,3.9558,3.9978,4.0113,4.0113,4.0113,4.0113,4.0113,4.0113,4.0113,4.0113,4.0113,4.0113,4.0113,4.0113,4.0113,4.0113,4.0113,4.0814,4.1486,4.1768,4.1036,4.0392,4.0104,4.0577,4.1115,4.1746,4.2342,4.2939,4.3463,4.3515,4.3515,4.3515,4.3515,4.3515,4.3515,4.3515,4.3515,4.3515,4.3515,4.3515,4.3515,4.3214,4.2808,4.2262,4.1603,4.1036,3.3784,0.0,3.8751,4.294,4.4646,0.0,4.6022,4.5633,4.5125,4.5125,4.5214,4.5244,4.5155,4.4676,4.4257,4.4018,4.3988,4.3748,4.309,4.2961,4.2791,4.2291,4.1662,4.1175,4.1055,4.0457,4.0008,3.9888,3.8841,3.8182,3.8063,3.7554,3.7195,3.7075,3.7195,3.7195,3.7075,3.7315,3.7045,3.6327,3.6327,3.6028,3.5519,3.5519,3.5519,3.5519,3.5519,3.5818,3.6327,3.6327,3.6626,3.7075,3.7075,3.7135,3.7315,3.7853,3.7793,3.7404,3.7285,3.6926,3.6523,3.6568,3.7144,3.7937,3.8663,3.9447,4.0113,4.0113,4.0113,4.0113,4.0113,4.0113,4.0113,4.0113,4.0113,4.0113,4.0113,4.0113,4.0113,4.0113,4.0113,4.0104,4.0229,4.0528,4.0967,4.1573,4.115,4.0601,4.0154,4.048,4.099,4.1595,4.2083,4.2599,4.3142,4.3232,4.3232,4.3232,4.3303,4.3356,4.3356,4.3463,4.3515,4.3515,4.3515,4.3515,4.3515,4.3515,4.3032,4.2103,4.2,4.1397,0.0,0.0,3.9709,0.0,4.3998,4.5304,0.0,0.0,4.4436,0.0,4.4915,4.5125,4.4556,4.4377,4.3958,4.286,4.265,4.244,4.1743,4.1654,4.1594,4.1534,4.0935,4.0307,3.9738,3.905,3.8422,3.7853,3.7644,3.7315,3.6776,3.6656,3.6357,3.5789,3.6297,3.6327,3.5759,3.6866,3.6806,3.5639,3.5639,3.5579,3.5519,3.5519,3.5519,3.5519,3.5519,3.5549,3.5639,3.5639,3.5699,3.5759,3.5759,3.6118,3.6626,3.6716,3.7015,3.7345,3.6806,3.6567,3.6523,3.6568,3.7144,3.7937,3.8663,3.9447,4.0113,4.0113,4.0113,4.0113,4.0113,4.0113,4.0113,4.0113,4.0113,4.0113,4.0113,4.0113,4.0113,4.0113,4.0113,4.0254,4.0709,4.049,4.0392,4.0943,4.0552,4.0179,4.0113,4.0154,4.0417,4.0967,4.107,4.1362,4.1979,4.2041,4.2041,4.2041,4.2521,4.2789,4.2789,4.325,4.3515,4.3515,4.3515,4.3515,4.3515,4.3515,4.3409,4.3268,4.2789,4.2221,3.3634,3.5669,3.7973,0.0,4.2462,4.3299,4.4018,0.0,4.321,4.321,4.315,4.312,4.321,4.321,4.291,4.1991,4.1841,4.1752,4.1452,4.1055,4.0696,4.0337,4.0038,3.9439,3.8392,3.8362,3.8123,3.7464,3.7075,3.6776,3.6507,3.6148,3.5789,3.5519,3.5789,3.5789,3.5519,3.6058,3.6058,3.5519,3.5519,3.5519,3.5519,3.5519,3.5519,3.5519,3.5519,3.5519,3.5519,3.5519,3.5519,3.5519,3.5519,3.5669,3.5998,3.6357,3.6417,3.6357,3.6447,3.6237,3.6009,3.6445,3.6843,3.7352,3.8553,3.9156,3.9532,3.9978,4.0113,4.0113,4.0113,4.0113,4.0113,4.0113,4.0113,4.0113,4.0113,4.0113,4.0113,4.0113,4.0113,4.0279,4.0803,4.0466,4.0303,4.0827,4.0441,4.0113,4.0113,4.0113,4.0328,4.085,4.092,4.1138,4.1768,4.181,4.181,4.181,4.2362,4.2693,4.2693,4.3214,4.3515,4.3515,4.3515,4.3515,4.3515,4.3515,4.3339,4.305,4.2789,4.2362,0.0,0.0,3.5579,3.902,4.0247,0.0,0.0,0.0,4.1692,0.0,4.1474,4.1235,4.1602,4.1931,4.1931,4.1235,4.1145,4.1025,4.0666,4.0187,3.9649,3.899,3.8865,3.8452,3.7285,3.7614,3.7644,3.6985,3.6507,3.6237,3.6237,3.5759,3.5519,3.5519,3.5519,3.5519,3.5519,3.5519,3.5519,3.5519,3.5519,3.5519,3.5519,3.5519,3.5519,3.5489,3.5686,3.5653,3.5489,3.5686,3.5683,3.5519,3.5519,3.5619,3.5842,3.6325,3.6205,3.5842,3.6356,3.6075,3.5587,3.6134,3.6446,3.6843,3.8218,3.8745,3.9069,3.9876,4.0113,4.0113,4.0113,4.0113,4.0113,4.0113,4.0113,4.0113,4.0113,4.0113,4.0113,4.0113,4.0113,4.0229,4.0648,4.0368,4.0254,4.0648,4.0343,4.0113,4.0113,4.0113,4.0254,4.0638,4.0685,4.0874,4.1331,4.1375,4.1442,4.1538,4.2124,4.2557,4.2693,4.3214,4.3515,4.3515,4.3515,4.3515,4.3515,4.3515,4.3286,4.2884,4.2884,4.258,0.0,3.124,0.0,3.528,0.0,0.0,0.0,0.0,0.0,0.0,4.0487,4.0277,3.9679,4.0576,4.1205,4.0546,4.0457,4.0008,3.8721,3.8512,3.8242,3.7584,3.7524,3.7255,3.6596,3.6567,3.6297,3.5639,3.5579,3.5549,3.5549,3.5519,3.5519,3.5519,3.5519,3.5519,3.5519,3.5519,3.5519,3.5519,3.5519,3.5519,3.5519,3.5519,3.5519,3.5522,3.6259,3.6134,3.5554,3.6259,3.6134,3.5519,3.5519,3.5911,3.6569,3.66,3.6569,3.6569,3.66,3.6101,3.5519,3.5522,3.6038,3.6752,3.7587,3.833,3.9069,3.9876,4.0113,4.0113,4.0113,4.0113,4.0113,4.0113,4.0113,4.0113,4.0113,4.0113,4.0113,4.0113,4.0113,4.0113,4.0163,4.0138,4.0113,4.0163,4.0138,4.0113,4.0113,4.0113,4.0113,4.0129,4.0129,4.0129,4.0179,4.0179,4.0417,4.092,4.1495,4.2083,4.2674,4.3214,4.3515,4.3515,4.3515,4.3515,4.3515,4.3515,4.3497,4.3463,4.3463,4.3178,0.0,0.0,0.0,3.3604,3.54,3.6896,0.0,3.8631,3.8841,3.905,3.8781,3.8422,3.8182,3.9559,4.0546,3.9888,3.9409,3.8931,3.8452,3.8033,3.7524,3.6896,3.7165,3.6985,3.5968,3.6237,3.6207,3.5549,3.5519,3.5519,3.5519,3.5519,3.5519,3.5519,3.5519,3.5519,3.5519,3.5519,3.5519,3.5519,3.5519,3.5519,3.5519,3.5519,3.5519,3.5522,3.6259,3.6165,3.5522,3.5782,3.5718,3.5519,3.5519,3.5683,3.5943,3.6415,3.66,3.66,3.66,3.6415,3.6134,3.5651,3.5683,3.6038,3.6814,3.7587,3.8358,3.9129,3.9688,4.0113,4.0113,4.0113,4.0113,4.0113,4.0368,4.0504,4.0154,4.0113,4.0113,4.0113,4.0113,4.0113,4.0113,4.0113,4.0113,4.0113,4.0113,4.0113,4.0113,4.0113,4.0113,4.0113,4.0113,4.0113,4.0113,4.0113,4.0179,4.0368,4.1286,4.1895,4.2103,4.3014,4.3515,4.3515,4.3515,4.3515,4.3515,4.3515,4.3515,4.3515,4.3515,4.3374,2.8693,0.0,0.0,0.0,0.0,3.4292,3.6028,0.0,3.6603,3.7325,3.7301,3.7276,3.7785,3.9164,3.9873,3.8882,3.8362,3.7973,3.7793,3.7375,3.6866,3.6237,3.6537,3.6447,3.5579,3.5908,3.5968,3.5549,3.5519,0.0,3.5519,3.5519,3.5519,3.5519,3.5519,3.5519,3.5519,3.5519,3.5519,3.5519,3.5519,3.5519,3.5519,3.5519,3.5519,3.5522,3.6038,3.5943,3.5522,3.575,3.5718,3.5519,3.5519,3.5651,3.5911,3.6415,3.66,3.66,3.66,3.6446,3.6134,3.5683,3.5519,3.5651,3.6384,3.7144,3.7933,3.869,3.9506,4.0113,4.0113,4.0113,4.0113,4.0113,4.0368,4.0528,4.0179,4.0254,4.0328,4.0129,4.0113,4.0113,4.0113,4.0113,4.0113,4.0113,4.0113,4.0113,4.0113,4.0113,4.0113,4.0113,4.0113,4.0113,4.0113,4.0113,4.0179,4.0343,4.1263,4.1895,4.2083,4.3014,4.3515,4.3515,4.3515,4.3515,4.3515,4.3515,4.3515,4.3515,4.3515,4.3515,0.0,0.0,0.0,0.0,0.0,0.0,3.3785,0.0,3.3065,3.5119,3.6073,3.6999,3.8446,3.9299,3.922,3.7654,3.7443,3.7233,3.6667,3.6577,3.6307,3.5644,3.5554,3.5522,3.5522,3.5489,3.5519,3.5519,3.5519,3.5519,3.5519,3.5519,3.5519,3.5519,3.5519,3.5489,3.5459,3.5459,3.5459,3.5459,3.5459,3.5489,3.5519,3.5519,3.5519,3.5519,3.5519,3.5519,3.5554,3.629,3.6134,3.5519,3.5519,3.5943,3.6569,3.6569,3.66,3.66,3.66,3.6134,3.5522,3.5519,3.5519,3.5651,3.6353,3.7144,3.7966,3.8663,3.9447,4.0113,4.0113,4.0113,4.0113,4.0113,4.0138,4.0138,4.0113,4.0504,4.0733,4.0204,4.0113,4.0113,4.0113,4.0113,4.0113,4.0113,4.0113,4.0113,4.0113,4.0113,4.0113,4.0113,4.0113,4.0113,4.0113,4.0113,4.0319,4.085,4.1486,4.2062,4.2655,4.3214,4.3515,4.3515,4.3515,4.3515,4.3515,4.3515,4.3515,4.3515,4.3515,4.3515,2.7735,0.0,0.0,0.0,0.0,0.0,3.133,3.1719,3.2222,3.3763,3.4678,3.5656,3.7042,3.786,3.8221,3.7772,3.8089,3.834,3.8183,3.7743,3.7365,3.7177,3.6631,3.6321,3.6321,3.5814,3.5519,0.0,3.5519,3.5519,3.5519,3.5519,3.5519,3.5519,3.5519,3.528,3.4803,3.4803,3.4803,3.4803,3.4803,3.5011,3.5519,3.5519,3.5519,3.5519,3.5519,3.5519,3.5519,3.5718,3.5683,3.5519,3.5519,3.5619,3.5878,3.6415,3.66,3.66,3.66,3.6477,3.6196,3.5653,3.5519,3.5522,3.5718,3.6753,3.7851,3.808,3.9076,4.0113,4.0113,4.0113,4.0113,4.0113,4.0392,4.0577,4.0179,4.0504,4.0733,4.0204,4.0113,4.0113,4.0113,4.0113,4.0113,4.0113,4.0113,4.0113,4.0113,4.0113,4.0113,4.0113,4.0113,4.0113,4.0113,4.0113,4.0154,4.0294,4.1263,4.1874,4.2041,4.2995,4.3515,4.3515,4.3515,4.3515,4.3515,4.3515,4.3515,4.3515,4.3515,4.3515,0.0,0.0,0.0,0.0,0.0,0.0,2.9924,3.0223,3.0684,0.0,3.2932,3.3948,3.5561,3.6491,3.7183,3.7752,3.8428,3.8795,3.8456,3.8049,3.7793,3.7793,3.7381,3.7084,3.7084,3.6415,3.5943,3.5943,3.5653,3.5519,3.5519,3.5519,3.5519,3.5519,3.5519,3.519,3.4503,3.4503,3.4503,3.4503,3.4503,3.4831,3.5519,3.5519,3.5519,3.5519,3.5519,3.5519,3.5519,3.5519,3.5519,3.5519,3.5519,3.5519,3.5554,3.5975,3.6134,3.6134,3.6134,3.6134,3.607,3.5651,3.5519,3.5519,3.5519,3.6321,3.7352,3.7706,3.8914,4.0113,4.0113,4.0113,4.0113,4.0113,4.0343,4.0456,4.0154,4.0343,4.0456,4.0154,4.0113,4.0113,4.0113,4.0113,4.0113,4.0113,4.0113,4.0113,4.0113,4.0113,4.0113,4.0113,4.0113,4.0113,4.0113,4.0113,4.0113,4.0113,4.092,4.1407,4.1407,4.256,4.3178,4.3178,4.341,4.3515,4.3515,4.3515,4.3515,4.3515,4.3515,4.3515,0.0,0.0,0.0,0.0,2.8753,0.0,2.9262,2.9086,2.9052,3.0328,3.1109,3.2183,3.4112,3.525,3.6264,3.7384,3.828,3.8681,3.8121,3.808,3.808,3.808,3.7994,3.7937,3.7937,3.7203,3.6722,3.6722,3.6038,3.5587,3.5489,3.5519,3.5459,3.54,3.54,3.504,3.4294,3.4294,3.4294,3.4294,3.4354,3.4711,3.54,3.5459,3.5519,3.5519,3.5429,3.54,3.54,3.54,3.5429,3.5519,3.5519,3.5519,3.5519,3.5519,3.5519,3.5519,3.5519,3.5519,3.5519,3.5519,3.5519,3.5519,3.5519,3.6038,3.6783,3.7674,3.8968,4.0113,4.0113,4.0113,4.0113,4.0113,4.0113,4.0113,4.0113,4.0113,4.0113,4.0113,4.0113,4.0113,4.0113,4.0113,4.0113,4.0113,4.0113,4.0113,4.0113,4.0113,4.0113,4.0113,4.0113,4.0113,4.0113,4.0113,4.0113,4.0113,4.0601,4.092,4.092,4.1979,4.2635,4.2693,4.3232,4.3515,4.3515,4.3515,4.3515,4.3515,4.3515,4.3515,0.0,0.0,0.0,0.0,0.0,0.0,2.8966,2.9116,2.9475,0.0,3.0392,3.1357,3.2829,3.4652,3.5777,3.5385,3.6894,3.8468,3.9495,3.9636,3.9636,3.9636,3.9076,3.869,3.869,3.8019,3.7589,3.7589,3.6844,3.6134,3.5522,3.5519,3.525,3.4713,3.4713,3.4113,3.2916,3.2886,3.2886,3.2916,3.3425,3.4023,3.4713,3.525,3.5519,3.5459,3.4921,3.4713,3.4713,3.4713,3.5011,3.5519,3.5519,3.5519,3.5519,3.5519,3.5519,3.5519,3.5519,3.5519,3.5519,3.5519,3.5519,3.5519,3.5519,3.6038,3.6904,3.827,3.9368,4.0113,4.0113,4.0113,4.0113,4.0113,4.0113,4.0113,4.0113,4.0113,4.0113,4.0113,4.0113,4.0113,4.0113,4.0113,4.0113,4.0113,4.0113,4.0113,4.0113,4.0113,4.0113,4.0113,4.0113,4.0113,4.0113,4.0113,4.0113,4.0113,4.0601,4.092,4.092,4.1617,4.2221,4.2674,4.3232,4.3515,4.3515,4.3515,4.3515,4.3515,4.3515,4.3515,0.0,0.0,0.0,2.9953,0.0,0.0,0.0,2.9086,2.9102,2.9098,2.9134,2.957,3.0847,0.0,3.2967,3.3567,3.4835,3.6152,3.7308,3.8355,3.9005,3.9005,3.8975,3.8972,3.8972,3.8247,3.7476,3.6699,3.6314,3.5769,3.5045,3.4681,3.4352,3.3993,3.3993,3.3514,3.2497,3.2527,3.2527,3.2527,3.2856,3.3514,3.4503,3.4863,3.4981,3.4981,3.4981,3.4622,3.4054,3.4697,3.4998,3.5011,3.537,3.5519,3.5519,3.5519,3.5519,3.5519,3.5519,3.5519,3.5519,3.5519,3.5519,3.5519,3.5519,3.6038,3.6843,3.8019,3.8914,3.9584,3.9978,4.0113,4.0113,4.0113,4.0113,4.0113,4.0113,4.0113,4.0113,4.0113,4.0113,4.0113,4.0113,4.0113,4.0113,4.0113,4.0113,4.0113,4.0113,4.0113,4.0113,4.0113,4.0377,4.0427,4.0138,4.0343,4.0392,4.0138,4.0343,4.048,4.048,4.1059,4.1789,4.2674,4.3232,4.3515,4.3515,4.3515,4.3515,4.3515,4.3515,4.3515,0.0,0.0,0.0,0.0,0.0,3.025,0.0,0.0,0.0,0.0,0.0,0.0,0.0,0.0,0.0,0.0,0.0,0.0,0.0,3.5539,0.0,3.7653,3.798,3.84,3.8937,3.817,3.7095,3.5831,3.5531,3.5149,3.4513,3.3876,3.3425,3.3305,3.3305,3.3006,3.2288,3.2288,3.2288,3.2288,3.2467,3.3125,3.4324,3.4444,3.4503,3.4533,3.507,3.4716,3.3819,3.4848,3.5064,3.4753,3.5294,3.5499,3.5519,3.5519,3.5519,3.5519,3.5519,3.5519,3.5519,3.5519,3.5519,3.5519,3.5519,3.6038,3.6722,3.7381,3.8104,3.8854,3.9662,3.9876,3.9901,4.0054,4.0113,4.0113,4.0113,4.0113,4.0113,4.0113,4.0113,4.0113,4.0113,4.0113,4.0113,4.0113,4.0113,4.0113,4.0113,4.0113,4.0113,4.0113,4.0635,4.0767,4.0303,4.0767,4.0827,4.0303,4.0254,4.0204,4.0113,4.0744,4.1516,4.2518,4.3087,4.3339,4.3339,4.325,4.3286,4.3515,4.3515,4.3515,0.0,0.0,0.0,0.0,3.2677,0.0,0.0,0.0,2.9953,2.8846,0.0,0.0,0.0,0.0,0.0,0.0,0.0,0.0,3.1068,3.1757,3.3486,3.6729,3.5958,3.6195,3.8753,3.7739,3.6816,3.66,3.5417,3.4644,3.4502,3.3849,3.3215,3.2647,3.2617,3.2288,3.163,3.16,3.16,3.163,3.2198,3.2886,3.3634,3.4234,3.4503,3.4503,3.4593,3.4576,3.456,3.4591,3.4962,3.5488,3.5491,3.5489,3.5519,3.5519,3.5519,3.5519,3.5519,3.5519,3.5519,3.5519,3.5519,3.5519,3.5519,3.6038,3.66,3.6691,3.7293,3.8076,3.8827,3.9016,3.9236,3.9927,4.0113,4.0113,4.0113,4.0113,4.0113,4.0113,4.0113,4.0113,4.0113,4.0113,4.0113,4.0113,4.0113,4.0113,4.0113,4.0113,4.0113,4.0113,4.0577,4.0897,4.0827,4.1375,4.1429,4.085,4.0803,4.0601,4.0138,4.1127,4.1768,4.1895,4.2482,4.277,4.277,4.2246,4.2505,4.3515,4.3515,4.3515,0.0,0.0,0.0,0.0,0.0,0.0,3.1869,0.0,3.0253,0.0,0.0,0.0,0.0,0.0,0.0,0.0,2.9255,0.0,0.0,0.0,3.0823,0.0,0.0,0.0,3.6253,3.6231,3.5753,3.484,3.4693,3.422,3.3321,3.31,3.2846,3.2497,3.2108,3.1959,3.2079,3.169,3.1511,3.1511,3.178,3.2258,3.2946,3.3215,3.3335,3.3365,3.3754,3.3517,3.2932,3.4063,3.4514,3.4455,3.5252,3.5552,3.5519,3.5519,3.5519,3.5519,3.5519,3.5519,3.5519,3.5519,3.5519,3.5519,3.5519,3.5718,3.607,3.6477,3.6843,3.7293,3.8048,3.858,3.8989,3.9315,3.974,4.0113,4.0113,4.0113,4.0113,4.0113,4.0113,4.0113,4.0113,4.0113,4.0113,4.0113,4.0113,3.9927,3.9447,3.9394,3.9394,3.9394,3.9943,4.045,4.0839,4.1429,4.1703,4.1429,4.107,4.0672,4.0138,4.085,4.1273,4.1273,4.1874,4.22,4.22,4.1916,4.2062,4.2505,4.2505,4.2505,3.4113,0.0,0.0,0.0,0.0,0.0,0.0,0.0,0.0,0.0,0.0,0.0,0.0,0.0,0.0,2.8547,0.0,2.8473,0.0,0.0,0.0,0.0,0.0,0.0,0.0,3.4164,3.4085,3.3228,3.3656,3.3534,3.2476,3.2532,3.2517,3.2228,3.175,3.172,3.2198,3.175,3.1511,3.1511,3.1511,3.1839,3.2527,3.2527,3.2527,3.2557,3.3215,3.2946,3.2241,3.3897,3.4387,3.4182,3.5185,3.5549,3.5519,3.5519,3.5519,3.5519,3.5519,3.5519,3.5519,3.5519,3.5519,3.5519,3.5519,3.5519,3.5619,3.6134,3.6321,3.6477,3.7263,3.7876,3.8381,3.8799,3.9342,3.985,4.0028,4.0113,4.0113,4.0113,4.0113,4.0113,4.0113,4.0113,4.0113,4.0113,4.0113,3.9825,3.8989,3.8908,3.8827,3.8635,3.9313,4.009,4.077,4.1582,4.1979,4.181,4.1228,4.0672,4.0138,4.0625,4.092,4.092,4.1318,4.1538,4.1538,4.142,4.1331,4.1353,4.166,4.181,0.0,0.0,0.0,3.4833,0.0,0.0,0.0,0.0,3.2078,0.0,0.0,0.0,0.0,0.0,2.9352,2.8697,2.8603,0.0,0.0,0.0,0.0,0.0,0.0,0.0,0.0,3.1557,3.1825,0.0,3.2494,3.2499,3.2499,3.2546,3.2244,3.1569,3.1511,3.1511,3.154,3.1511,3.1511,3.1511,3.1511,3.1839,3.2527,3.2527,3.2527,3.2557,3.3215,3.3545,3.3678,3.4244,3.4897,3.5547,3.5517,3.5491,3.5519,3.5519,3.5519,3.5519,3.5519,3.5519,3.5519,3.5519,3.5519,3.5519,3.5519,3.5519,3.5489,3.5522,3.5552,3.5686,3.6446,3.6661,3.7023,3.8553,3.8908,3.9123,3.9927,4.0113,4.0113,4.0113,4.0113,4.0113,4.0113,4.0113,4.0113,4.0113,4.0113,3.9825,3.8989,3.8908,3.8635,3.7908,3.9023,4.0022,4.0562,4.1893,4.2402,4.1832,4.1228,4.0672,4.0138,4.0625,4.092,4.092,4.0909,4.0909,4.0909,4.0417,4.0129,4.0179,4.1286,4.181,0.0,0.0,3.6896,3.6028,0.0,0.0,0.0,0.0,0.0,0.0,0.0,0.0,0.0,2.9621,2.9532,2.9295,2.8876,2.8517,0.0,0.0,0.0,0.0,0.0,0.0,0.0,0.0,0.0,0.0,3.1924,3.2252,3.1789,3.2704,3.3139,3.2826,3.1959,3.1929,3.2826,3.1929,3.1511,3.1511,3.1959,3.2049,3.1839,3.2288,3.2258,3.1839,3.2079,3.2435,3.2968,3.3583,3.4264,3.4911,3.5338,3.5491,3.5519,3.5519,3.5519,3.5519,3.5519,3.5519,3.5519,3.5519,3.5519,3.5519,3.5519,3.5519,3.5519,3.5519,3.5519,3.5554,3.5814,3.6228,3.6722,3.7231,3.8157,3.8962,3.9262,3.9714,4.0113,4.0113,3.9662,3.9447,4.0003,3.9662,3.9506,4.0003,4.0113,3.9825,3.8989,3.8469,3.8076,3.7822,3.8213,3.891,3.9997,4.1683,4.2422,4.1853,4.1617,4.1082,4.0163,4.0279,4.0368,4.0368,4.0368,4.0368,4.0368,4.0179,4.0113,4.0113,4.049,4.0672,3.6866,3.7285,0.0,3.6985,3.6507,0.0,3.504,0.0,3.4113,0.0,0.0,0.0,0.0,0.0,3.0283,3.0283,2.9714,2.9116,0.0,2.8218,0.0,0.0,0.0,0.0,0.0,0.0,0.0,2.9968,3.1338,3.1913,0.0,3.2552,3.3205,3.3156,3.2317,3.2258,3.3155,3.2288,3.175,3.1511,3.1929,3.1899,3.1511,3.1959,3.1899,3.1511,3.1511,3.175,3.2227,3.3148,3.3758,3.4235,3.5154,3.5484,3.5519,3.5519,3.5519,3.5519,3.5519,3.5519,3.5519,3.5519,3.5519,3.5519,3.5519,3.5519,3.5519,3.5519,3.5519,3.5519,3.5519,3.5846,3.6259,3.6538,3.7555,3.858,3.8854,3.9532,4.0003,3.9714,3.9262,3.8962,3.9269,3.8859,3.8854,3.9927,4.0113,3.9825,3.8989,3.8497,3.7962,3.7411,3.7648,3.8321,3.9691,4.138,4.2103,4.1495,4.1473,4.1059,4.0163,4.0113,4.035,4.0891,4.0383,4.035,4.0891,4.035,4.0113,4.0113,4.0113,4.0113]}]]